[[{"header":{"parameterUnit":"m.s-1","parameterCategory":1,"la1":30.6,"la2":28.766,"lo1":-90.7593,"lo2":-88.6598,"dy":0.0162,"dx":0.0183,"nx":116,"ny":114,"refTime":"2023-04-10T06:00:00:Z","depth":0,"parameterNumber":2,"parameterNumberName":"U-component_of_WINDS"},"data":[0.0,0.0,0.0,0.0,0.0,0.0,0.0,0.0,0.0,0.0,0.0,0.0,0.0,0.0,0.0,0.0,0.0,0.0,0.0,0.0,0.0,0.0,0.0,0.0,0.0,0.0,0.0,0.0,0.0,0.0,0.0,0.0,0.0,0.0,0.0,0.0,0.0,0.0,0.0,0.0,0.0,0.0,0.0,0.0,0.0,0.0,0.0,0.0,0.0,0.0,0.0,0.0,0.0,0.0,0.0,0.0,0.0,0.0,0.0,0.0,0.0,0.0,0.0,0.0,0.0,0.0,0.0,0.0,0.0,0.0,0.0,0.0,0.0,0.0,0.0,0.0,0.0,0.0,0.0,0.0,0.0,0.0,0.0,0.0,0.0,0.0,0.0,0.0,0.0,0.0,0.0,0.0,0.0,0.0,0.0,0.0,0.0,0.0,0.0,0.0,0.0,0.0,0.0,0.0,0.0,0.0,0.0,0.0,0.0,0.0,0.0,0.0,0.0,0.0,0.0,0.0,0.0,0.0,0.0,0.0,0.0,0.0,0.0,0.0,0.0,0.0,0.0,0.0,0.0,0.0,0.0,0.0,0.0,0.0,0.0,0.0,0.0,0.0,0.0,0.0,0.0,0.0,0.0,0.0,0.0,0.0,0.0,0.0,0.0,0.0,0.0,0.0,0.0,0.0,0.0,0.0,0.0,0.0,0.0,0.0,0.0,0.0,0.0,0.0,0.0,0.0,0.0,0.0,0.0,0.0,0.0,0.0,0.0,0.0,0.0,0.0,0.0,0.0,0.0,0.0,0.0,0.0,0.0,0.0,0.0,0.0,0.0,0.0,0.0,0.0,0.0,0.0,0.0,0.0,0.0,0.0,0.0,0.0,0.0,0.0,0.0,0.0,0.0,0.0,0.0,0.0,0.0,0.0,0.0,0.0,0.0,0.0,0.0,0.0,0.0,0.0,0.0,0.0,0.0,0.0,0.0,0.0,0.0,0.0,0.0,0.0,0.0,0.0,0.0,0.0,0.0,0.0,0.0,0.0,0.0,0.0,0.0,0.0,0.0,0.0,0.0,0.0,0.0,0.0,0.0,0.0,0.0,0.0,0.0,0.0,0.0,0.0,0.0,0.0,0.0,0.0,0.0,0.0,0.0,0.0,0.0,0.0,0.0,0.0,0.0,0.0,0.0,0.0,0.0,0.0,0.0,0.0,0.0,0.0,0.0,0.0,0.0,0.0,0.0,0.0,0.0,0.0,0.0,0.0,0.0,0.0,0.0,0.0,0.0,0.0,0.0,0.0,0.0,0.0,0.0,0.0,0.0,0.0,0.0,0.0,0.0,0.0,0.0,0.0,0.0,0.0,0.0,0.0,0.0,0.0,0.0,0.0,0.0,0.0,0.0,0.0,0.0,0.0,0.0,0.0,0.0,0.0,0.0,0.0,0.0,0.0,0.0,0.0,0.0,0.0,0.0,0.0,0.0,0.0,0.0,0.0,0.0,0.0,0.0,0.0,0.0,0.0,0.0,0.0,0.0,0.0,0.0,0.0,0.0,0.0,0.0,0.0,0.0,0.0,0.0,0.0,0.0,0.0,0.0,0.0,0.0,0.0,0.0,0.0,0.0,0.0,0.0,0.0,0.0,0.0,0.0,0.0,0.0,0.0,0.0,0.0,0.0,0.0,0.0,0.0,0.0,0.0,0.0,0.0,0.0,0.0,0.0,0.0,0.0,0.0,0.0,0.0,0.0,0.0,0.0,0.0,0.0,0.0,0.0,0.0,0.0,0.0,0.0,0.0,0.0,0.0,0.0,0.0,0.0,0.0,0.0,0.0,0.0,0.0,0.0,0.0,0.0,0.0,0.0,0.0,0.0,0.0,0.0,0.0,0.0,0.0,0.0,0.0,0.0,0.0,0.0,0.0,0.0,0.0,0.0,0.0,0.0,0.0,0.0,0.0,0.0,0.0,0.0,0.0,0.0,0.0,0.0,0.0,0.0,0.0,0.0,0.0,0.0,0.0,0.0,0.0,0.0,0.0,0.0,0.0,0.0,0.0,0.0,0.0,0.0,0.0,0.0,0.0,0.0,0.0,0.0,0.0,0.0,0.0,0.0,0.0,0.0,0.0,0.0,0.0,0.0,0.0,0.0,0.0,0.0,0.0,0.0,0.0,0.0,0.0,0.0,0.0,0.0,0.0,0.0,0.0,0.0,0.0,0.0,0.0,0.0,0.0,0.0,0.0,0.0,0.0,0.0,0.0,0.0,0.0,0.0,0.0,0.0,0.0,0.0,0.0,0.0,0.0,0.0,0.0,0.0,0.0,0.0,0.0,0.0,0.0,0.0,0.0,0.0,0.0,0.0,0.0,0.0,0.0,0.0,0.0,0.0,0.0,0.0,0.0,0.0,0.0,0.0,0.0,0.0,0.0,0.0,0.0,0.0,0.0,0.0,0.0,0.0,0.0,0.0,0.0,0.0,0.0,0.0,0.0,0.0,0.0,0.0,0.0,0.0,0.0,0.0,0.0,0.0,0.0,0.0,0.0,0.0,0.0,0.0,0.0,0.0,0.0,0.0,0.0,0.0,0.0,0.0,0.0,0.0,0.0,0.0,0.0,0.0,0.0,0.0,0.0,0.0,0.0,0.0,0.0,0.0,0.0,0.0,0.0,0.0,0.0,0.0,0.0,0.0,0.0,0.0,0.0,0.0,0.0,0.0,0.0,0.0,0.0,0.0,0.0,0.0,0.0,0.0,0.0,0.0,0.0,0.0,0.0,0.0,0.0,0.0,0.0,0.0,0.0,0.0,0.0,0.0,0.0,0.0,0.0,0.0,0.0,0.0,0.0,0.0,0.0,0.0,0.0,0.0,0.0,0.0,0.0,0.0,0.0,0.0,0.0,0.0,0.0,0.0,0.0,0.0,0.0,0.0,0.0,0.0,0.0,0.0,0.0,0.0,0.0,0.0,0.0,0.0,0.0,0.0,0.0,0.0,0.0,0.0,0.0,0.0,0.0,0.0,0.0,0.0,0.0,0.0,0.0,0.0,0.0,0.0,0.0,0.0,0.0,0.0,0.0,0.0,0.0,0.0,0.0,0.0,0.0,0.0,0.0,0.0,0.0,0.0,0.0,0.0,0.0,0.0,0.0,0.0,0.0,0.0,0.0,0.0,0.0,0.0,0.0,0.0,0.0,0.0,0.0,0.0,0.0,0.0,0.0,0.0,0.0,0.0,0.0,0.0,0.0,0.0,0.0,0.0,0.0,0.0,0.0,0.0,0.0,0.0,0.0,0.0,0.0,0.0,0.0,0.0,0.0,0.0,0.0,0.0,0.0,0.0,0.0,0.0,0.0,0.0,0.0,0.0,0.0,0.0,0.0,0.0,0.0,0.0,0.0,0.0,0.0,0.0,0.0,0.0,0.0,0.0,0.0,0.0,0.0,0.0,0.0,0.0,0.0,0.0,0.0,0.0,0.0,0.0,0.0,0.0,0.0,0.0,0.0,0.0,0.0,0.0,0.0,0.0,0.0,0.0,0.0,0.0,0.0,0.0,0.0,0.0,0.0,0.0,0.0,0.0,0.0,0.0,0.0,0.0,0.0,0.0,0.0,0.0,0.0,0.0,0.0,0.0,0.0,0.0,0.0,0.0,0.0,0.0,0.0,0.0,0.0,0.0,0.0,0.0,0.0,0.0,0.0,0.0,0.0,0.0,0.0,0.0,0.0,0.0,0.0,0.0,0.0,0.0,0.0,0.0,0.0,0.0,0.0,0.0,0.0,0.0,0.0,0.0,0.0,0.0,0.0,0.0,0.0,0.0,0.0,0.0,0.0,0.0,0.0,0.0,0.0,0.0,0.0,0.0,0.0,0.0,0.0,0.0,0.0,0.0,0.0,0.0,0.0,0.0,0.0,0.0,0.0,0.0,0.0,0.0,0.0,0.0,0.0,0.0,0.0,0.0,0.0,0.0,0.0,0.0,0.0,0.0,0.0,0.0,0.0,0.0,0.0,0.0,0.0,0.0,0.0,0.0,0.0,0.0,0.0,0.0,0.0,0.0,0.0,0.0,0.0,0.0,0.0,0.0,0.0,0.0,0.0,0.0,0.0,0.0,0.0,0.0,0.0,0.0,0.0,0.0,0.0,0.0,0.0,0.0,0.0,0.0,0.0,0.0,0.0,0.0,0.0,0.0,0.0,0.0,0.0,0.0,0.0,0.0,0.0,0.0,0.0,0.0,0.0,0.0,0.0,0.0,0.0,0.0,0.0,0.0,0.0,0.0,0.0,0.0,0.0,0.0,0.0,0.0,0.0,0.0,0.0,0.0,0.0,0.0,0.0,0.0,0.0,0.0,0.0,0.0,0.0,0.0,0.0,0.0,0.0,0.0,0.0,0.0,0.0,0.0,0.0,0.0,0.0,0.0,0.0,0.0,0.0,0.0,0.0,0.0,0.0,0.0,0.0,0.0,0.0,0.0,0.0,0.0,0.0,0.0,0.0,0.0,0.0,0.0,0.0,0.0,0.0,0.0,0.0,0.0,0.0,0.0,0.0,0.0,0.0,0.0,0.0,0.0,0.0,0.0,0.0,0.0,0.0,0.0,0.0,0.0,0.0,0.0,0.0,0.0,0.0,0.0,0.0,0.0,0.0,0.0,0.0,0.0,0.0,0.0,0.0,0.0,0.0,0.0,0.0,0.0,0.0,0.0,0.0,0.0,0.0,0.0,0.0,0.0,0.0,0.0,0.0,0.0,0.0,0.0,0.0,0.0,0.0,0.0,0.0,0.0,0.0,0.0,0.0,0.0,0.0,0.0,0.0,0.0,0.0,0.0,0.0,0.0,0.0,0.0,0.0,0.0,0.0,0.0,0.0,0.0,0.0,0.0,0.0,0.0,0.0,0.0,0.0,0.0,0.0,0.0,0.0,0.0,0.0,0.0,0.0,0.0,0.0,0.0,0.0,0.0,0.0,0.0,0.0,0.0,0.0,0.0,0.0,0.0,0.0,0.0,0.0,0.0,0.0,0.0,0.0,0.0,0.0,0.0,0.0,0.0,0.0,0.0,0.0,0.0,0.0,0.0,0.0,0.0,0.0,0.0,0.0,0.0,0.0,0.0,0.0,0.0,0.0,0.0,0.0,0.0,0.0,0.0,0.0,0.0,0.0,0.0,0.0,0.0,0.0,0.0,0.0,0.0,0.0,0.0,0.0,0.0,0.0,0.0,0.0,0.0,0.0,0.0,0.0,0.0,0.0,0.0,0.0,0.0,0.0,0.0,0.0,0.0,0.0,0.0,0.0,0.0,0.0,0.0,0.0,0.0,0.0,0.0,0.0,0.0,0.0,0.0,0.0,0.0,0.0,0.0,0.0,0.0,0.0,0.0,0.0,0.0,0.0,0.0,0.0,0.0,0.0,0.0,0.0,0.0,0.0,0.0,0.0,0.0,0.0,0.0,0.0,0.0,0.0,0.0,0.0,0.0,0.0,0.0,0.0,0.0,0.0,0.0,0.0,0.0,0.0,0.0,0.0,0.0,0.0,0.0,0.0,0.0,0.0,0.0,0.0,0.0,0.0,0.0,0.0,0.0,0.0,0.0,0.0,0.0,0.0,0.0,0.0,0.0,0.0,0.0,0.0,0.0,0.0,0.0,0.0,0.0,0.0,0.0,0.0,0.0,0.0,0.0,0.0,0.0,0.0,0.0,0.0,0.0,0.0,0.0,0.0,0.0,0.0,0.0,0.0,0.0,0.0,0.0,0.0,0.0,0.0,0.0,0.0,0.0,0.0,0.0,0.0,0.0,0.0,0.0,0.0,0.0,0.0,0.0,0.0,0.0,0.0,0.0,0.0,0.0,0.0,0.0,0.0,0.0,0.0,0.0,0.0,0.0,0.0,0.0,0.0,0.0,0.0,0.0,0.0,0.0,0.0,0.0,0.0,0.0,0.0,0.0,0.0,0.0,0.0,0.0,0.0,0.0,0.0,0.0,0.0,0.0,0.0,0.0,0.0,0.0,0.0,0.0,0.0,0.0,0.0,0.0,0.0,0.0,0.0,0.0,0.0,0.0,0.0,0.0,0.0,0.0,0.0,0.0,0.0,0.0,0.0,0.0,0.0,0.0,0.0,0.0,0.0,0.4552,0.5527,0.0,0.0,0.0,0.0,0.0,0.0,0.0,0.0,0.0,0.0,0.0,0.0,0.0,0.0,0.0,0.0,0.0,0.0,0.0,0.0,0.0,0.0,0.0,0.0,0.0,0.0,0.0,0.0,0.0,0.0,0.0,0.0,0.0,0.0,0.0,0.0,0.0,-0.1606,-0.1209,-0.0724,-0.0155,0.0445,0.2507,0.5699,0.0,0.0,0.0,0.0,0.0,0.0,0.0,0.0,0.0,0.0,0.0,0.0,0.0,0.0,0.0,0.0,0.0,0.0,0.0,0.0,0.0,0.0,0.0,0.0,0.0,0.0,0.0,0.0,0.0,0.0,0.0,0.0,0.0,0.0,0.0,0.0,0.0,0.0,0.0,0.0,0.0,0.0,0.0,0.0,0.0,0.0,0.0,0.0,0.0,0.0,0.0,0.0,0.0,0.0,0.0,0.0,0.0,0.0,0.0,0.0,0.0,0.0,0.0,0.0,0.0,0.0,0.0,0.0,0.0,0.0,0.351,0.4255,0.0,0.0,0.0,0.0,0.0,0.0,0.0,0.0,0.0,0.0,0.0,0.0,0.0,0.0,0.0,0.0,0.0,0.0,0.0,0.0,0.0,0.0,0.0,0.2345,0.225,0.2073,0.1218,0.0687,0.0,0.0,0.0,0.0,0.0,0.0,-0.5255,-0.5197,-0.4846,-0.4238,-0.3777,-0.3534,-0.3477,-0.2869,-0.0056,0.444,0.4117,0.0,0.0,0.0,0.0,0.0,0.0,0.0,0.0,0.0,0.0,0.0,0.0,0.0,0.0,0.0,0.0,0.0,0.0,0.0,0.0,0.0,0.0,0.0,0.0,0.0,0.0,0.0,0.0,0.0,0.0,0.0,0.0,0.0,0.0,0.0,0.0,0.0,0.0,0.0,0.0,0.0,0.0,0.0,0.0,0.0,0.0,0.0,0.0,0.0,0.0,0.0,0.0,0.0,0.0,0.0,0.0,0.0,0.0,0.0,0.0,0.0,0.0,0.0,-0.0488,0.0197,0.0066,0.1766,0.2518,0.2546,0.2716,0.3147,0.3749,0.3601,0.0,0.0,0.0,0.0,0.0,0.0,0.0,0.0,0.0,0.0,0.0,0.0,0.0,0.0,0.0,0.0,0.0,0.0,0.0,0.1129,-0.0753,-0.1068,-0.1516,-0.2444,-0.2769,-0.2926,-0.2926,0.0,0.0,0.0,0.0,0.0,-0.554,-0.5638,-0.5272,-0.4371,-0.4196,-0.3993,-0.3836,-0.3448,-0.2446,-0.0898,0.1103,0.2716,0.4033,0.0,0.0,0.0,0.0,0.0,0.0,0.0,0.0,0.0,0.0,0.0,0.0,0.0,0.0,0.0,0.0,0.0,0.0,0.0,0.0,0.0,0.0,0.0,0.0,0.0,0.0,0.0,0.0,0.0,0.0,0.0,0.0,0.0,0.0,0.0,0.0,0.0,0.0,0.0,0.0,0.0,-0.5392,-0.4322,0.0,0.0,0.0,0.0,0.0,0.0,0.0,0.0,0.0,0.0,0.0,0.0,0.0,-0.3619,-0.2631,-0.267,-0.2674,-0.268,-0.2367,-0.2255,-0.222,-0.0536,0.0251,0.0323,0.1753,0.0,0.2757,0.2347,0.0,0.0,0.0,0.0,0.0,0.0,0.0,0.0,0.0,0.0,0.0,0.0,0.0,0.0,0.0,0.0,0.0,0.0,0.0,0.0,0.0,-0.28,-0.3114,-0.3598,-0.3709,-0.376,-0.3722,-0.3719,0.0,0.0,-0.5231,-0.5683,-0.6698,-0.6552,-0.6307,-0.5986,-0.6097,-0.6071,-0.5933,-0.5928,-0.535,-0.4264,-0.3195,-0.1115,0.1604,0.2174,0.0,0.0,0.0,0.0,0.0,0.0,0.0,0.0,0.0,0.0,0.0,0.0,0.0,0.0,0.0,0.0,0.0,0.0,0.0,0.0,0.0,0.0,0.0,0.0,0.0,0.0,0.0,0.0,0.0,0.0,0.0,0.0,0.0,0.0,0.0,0.0,0.0,0.0,0.0,-0.7255,-0.6943,-0.6193,-0.625,-0.6405,0.0,0.0,0.0,0.0,0.0,0.0,0.0,0.0,0.0,-0.5852,-0.5799,-0.5588,-0.5178,-0.5281,-0.535,-0.5384,-0.4482,-0.4076,-0.4028,-0.1401,-0.019,-0.0114,0.1661,0.2428,0.2468,0.22,0.2052,0.2001,0.0,0.0,0.0,0.0,0.1745,0.1723,0.0,0.0,0.0,0.0,0.0,0.0,0.0,0.0,0.0,0.0,0.0,0.0,-0.4266,-0.4543,-0.4702,-0.4751,-0.4828,-0.4849,-0.4787,-0.4766,-0.5115,-0.5895,-0.585,-0.6363,-0.7607,-0.7354,-0.7313,-0.746,-0.7706,-0.7763,-0.7674,-0.7883,-0.751,-0.6638,-0.6733,-0.4658,-0.1075,-0.069,0.0149,0.1167,0.0,0.0,0.0,0.0,0.0,0.0,0.0,0.0,0.0,0.0,0.0,0.0,0.0,0.0,0.0,0.0,0.0,0.0,0.0,0.0,0.0,0.0,0.0,0.0,0.0,0.0,0.0,0.0,0.0,0.0,0.0,0.0,0.0,0.0,0.0,0.0,0.0,-0.7986,-0.823,-0.7834,-0.8225,-0.8156,0.0,0.0,0.0,0.0,0.0,0.0,-0.7607,-0.7711,-0.7586,-0.7138,-0.723,-0.7356,-0.7481,-0.75,-0.754,-0.7562,-0.5906,-0.5142,-0.5104,-0.167,-0.0119,-0.004,0.1768,0.2489,0.2457,0.2292,0.2178,0.2106,0.2068,0.2041,0.2053,0.2045,0.2046,0.2055,0.0,0.0,0.0,0.0,0.0,0.0,0.0,0.0,0.0,0.0,0.0,-0.5396,-0.6668,-0.7009,-0.7161,-0.7306,-0.7423,-0.7522,-0.7517,-0.7381,-0.7346,-0.7404,-0.7399,-0.7482,-0.7701,-0.7804,-0.7943,-0.815,-0.8115,-0.8126,-0.8166,-0.8177,-0.8156,-0.8098,-0.8481,-0.6973,-0.3991,-0.2595,-0.1904,-0.1802,-0.1882,0.0,0.0,0.0,0.0,0.0,0.0,0.0,0.0,0.0,0.0,0.0,0.0,0.0,0.0,0.0,0.0,0.0,0.0,0.0,0.0,0.0,0.0,0.0,0.0,0.0,0.0,0.0,0.0,0.0,0.0,0.0,0.0,0.0,0.0,0.0,0.0,0.0,0.0,-0.8579,-0.9196,0.0,0.0,0.0,0.0,-0.6603,-0.7766,-0.8515,-0.8355,-0.8469,-0.8467,-0.8317,-0.838,-0.8442,-0.8507,-0.8227,-0.8065,-0.8027,-0.61,-0.5182,-0.5099,-0.1531,0.0082,0.0165,0.1874,0.2594,0.2577,0.2371,0.2266,0.2195,0.2206,0.2181,0.2175,0.2113,0.2121,0.2171,0.0,0.0,0.0,0.0,0.0,0.0,0.0,0.0,-0.4037,-0.6028,-0.6351,-0.664,-0.7244,-0.7611,-0.7848,-0.7892,-0.7975,-0.7981,-0.7853,-0.7703,-0.7638,-0.7638,-0.7638,-0.7693,-0.7837,-0.8002,-0.8206,-0.8463,-0.855,-0.8758,-0.903,-0.903,-0.9077,-0.9154,-0.9228,-0.8686,-0.7727,-0.6701,-0.5581,-0.4446,-0.4503,-0.3673,0.0,0.0,0.0,0.0,0.0,0.0,0.0,0.0,0.0,0.0,0.0,0.0,0.0,0.0,0.0,0.0,0.0,0.0,0.0,0.0,0.0,0.0,0.0,0.0,0.0,0.0,0.0,0.0,0.0,0.0,0.0,0.0,0.0,0.0,0.0,0.0,0.0,-0.5629,-0.604,0.0,-0.4774,-0.5376,-0.5484,-0.4665,-0.5509,-0.586,-0.5277,-0.5665,-0.5783,-0.5499,-0.5524,-0.5437,-0.52,-0.5092,-0.4843,-0.4544,-0.3858,-0.3516,-0.3428,-0.1025,0.0085,0.0127,0.1879,0.2649,0.2581,0.251,0.2473,0.2383,0.2358,0.2311,0.2276,0.223,0.2221,0.221,0.0,0.0,0.0,0.0,0.0,0.0,0.0,0.0,-0.4534,-0.617,-0.6754,-0.7195,-0.76,-0.7827,-0.8027,-0.8312,-0.8296,-0.8199,-0.8068,-0.8071,-0.7983,-0.7853,-0.8022,-0.8223,-0.8426,-0.8644,-0.8882,-0.9101,-0.924,-0.9404,-0.9621,-0.9621,-0.967,-0.9756,-0.9796,-0.98,-0.9811,-0.9437,-0.8328,-0.6832,-0.6899,-0.5997,-0.468,0.0,0.0,0.0,0.0,0.0,0.0,0.0,0.0,0.0,0.0,0.0,0.0,0.0,0.0,0.0,0.0,0.0,0.0,0.0,0.0,0.0,0.0,0.0,0.0,0.0,0.0,0.0,0.0,0.0,0.0,0.0,0.0,0.0,0.0,-0.4827,-0.4448,-0.4071,-0.4521,-0.4413,-0.3387,-0.4056,-0.4209,-0.3406,-0.422,-0.4534,-0.4012,-0.44,-0.4513,-0.4296,-0.4282,-0.408,-0.364,-0.3478,-0.317,-0.2675,-0.2018,-0.1711,-0.1667,0.0175,0.1001,0.0993,0.2222,0.2712,0.2646,0.2628,0.2621,0.2575,0.2482,0.2379,0.2335,0.2335,0.2323,0.2269,0.0,0.0,0.0,0.0,0.0,0.0,-0.1607,-0.347,-0.4977,-0.5122,-0.6019,-0.6898,-0.7707,-0.7624,-0.7846,-0.8663,-0.8491,-0.8356,-0.8416,-0.8656,-0.8594,-0.8162,-0.865,-0.9107,-0.9504,-0.9762,-0.9958,-1.0127,-1.0127,-1.006,-0.9924,-0.9924,-0.9924,-0.9958,-1.0264,-1.0312,-1.0168,-1.048,-0.9933,-0.8884,-0.8903,-0.7929,-0.6479,0.0,0.0,0.0,0.0,0.0,0.0,0.0,0.0,0.0,0.0,0.0,0.0,0.0,0.0,0.0,0.0,0.0,0.0,0.0,0.0,0.0,0.0,0.0,0.0,0.0,0.0,0.0,0.0,0.0,0.0,0.0,0.0,0.0,-0.3646,-0.44,-0.455,-0.4217,-0.485,-0.4469,-0.225,-0.3977,-0.4534,-0.292,-0.3941,-0.4691,-0.4828,-0.4829,-0.4857,-0.485,-0.4848,-0.4624,-0.4126,-0.3715,-0.3217,-0.2734,-0.0852,0.009,0.0134,0.1953,0.2786,0.2783,0.2797,0.2784,0.2778,0.2718,0.2694,0.2679,0.257,0.2454,0.2389,0.2389,0.2387,0.2386,0.0,0.0,0.0,0.0,0.0,0.0,-0.1607,-0.2276,-0.3037,-0.4058,-0.4435,-0.4747,-0.5119,-0.5166,-0.5697,-0.694,-0.698,-0.7474,-0.8682,-0.8784,-0.8898,-0.9118,-0.9351,-0.9582,-0.9774,-0.9946,-1.0194,-1.0474,-1.0474,-1.0586,-1.0829,-1.0829,-1.0829,-1.0863,-1.0926,-1.1012,-1.1047,-1.1153,-1.0909,-1.0414,-0.9844,-0.9465,-0.9194,0.0,0.0,0.0,0.0,0.0,0.0,0.0,0.0,0.0,0.0,0.0,0.0,0.0,0.0,0.0,0.0,0.0,0.0,0.0,0.0,0.0,0.0,0.0,0.0,0.0,0.0,0.0,0.0,0.0,0.0,0.0,-0.0231,-0.0598,-0.2317,-0.1831,-0.1298,-0.1199,-0.1385,-0.1268,-0.0647,-0.1121,-0.1128,-0.0328,-0.094,-0.1177,-0.0894,-0.118,-0.1368,-0.136,-0.1358,-0.1166,-0.0696,-0.0554,-0.0046,0.0817,0.1361,0.1763,0.211,0.2641,0.2849,0.2785,0.2819,0.2803,0.278,0.2742,0.2683,0.2672,0.2607,0.2534,0.2489,0.2489,0.2424,0.2386,0.0,0.0,0.0,0.0,0.0,0.0,-0.077,-0.1412,-0.2088,-0.286,-0.3332,-0.3735,-0.4066,-0.4038,-0.447,-0.5584,-0.6276,-0.7051,-0.8053,-0.878,-0.9451,-1.0049,-1.0152,-1.0322,-1.0594,-1.0735,-1.0912,-1.1089,-1.1089,-1.1197,-1.1355,-1.1355,-1.1389,-1.1443,-1.1443,-1.1531,-1.171,-1.171,-1.1646,-1.1577,-1.1103,-1.0746,-1.0436,-1.0316,-0.9863,-0.9247,-0.8985,-0.8079,-0.682,-0.5577,0.0,0.0,0.0,0.0,0.0,0.0,0.0,0.0,0.0,0.0,0.0,0.0,0.0,0.0,0.0,0.0,0.0,0.0,0.0,0.0,0.0,0.0,0.0,0.0,0.0,-0.0259,-0.1066,-0.0496,0.0,0.0,0.0,0.0,0.0,0.0,0.0098,0.0391,0.0147,0.0098,0.0389,0.0146,0.0,0.0,0.0,0.0239,0.0709,0.094,0.1446,0.2217,0.2436,0.2698,0.2956,0.2897,0.2882,0.2819,0.2853,0.2838,0.2819,0.2788,0.2732,0.2722,0.0,0.0,0.0,0.0,0.2529,0.2499,0.0,0.0,0.0,0.0,0.0,0.0,0.0401,-0.0741,-0.1605,-0.1604,-0.2365,-0.3097,-0.3579,-0.3386,-0.3541,-0.4407,-0.5708,-0.6635,-0.687,-0.8421,-0.967,-1.0396,-1.0413,-1.0643,-1.1057,-1.1192,-1.1263,-1.1263,-1.1263,-1.1205,-1.1083,-1.1083,-1.1147,-1.1263,-1.1283,-1.1366,-1.1546,-1.1559,-1.1611,-1.1702,-1.1747,-1.1422,-1.0933,-1.116,-1.1386,-1.1639,-1.1734,-1.0828,-0.9515,-0.9047,0.0,0.0,0.0,0.0,0.0,0.0,0.0,0.0,0.0,0.0,0.0,0.0,0.0,0.0,0.0,0.0,0.0,0.0,0.0,0.0,0.0,0.0,0.0,0.0,0.0,0.0,0.0,0.0,0.0,0.0,0.0,0.0,0.0,0.0,0.0,0.0,0.0,0.0,0.0,0.0,0.0,0.0,0.0,0.0197,0.0624,0.115,0.1668,0.2121,0.2659,0.2969,0.3011,0.2935,0.2921,0.2919,0.2891,0.2879,0.2876,0.2846,0.2787,0.2773,0.266,0.2615,0.2611,0.2623,0.2609,0.2607,0.0,0.0,0.0,0.0,0.0,0.0,0.0409,-0.0028,-0.0338,-0.0344,-0.0508,-0.0681,-0.079,-0.0746,-0.1327,-0.2942,-0.3368,-0.4286,-0.6091,-0.6759,-0.7213,-0.7429,-0.7547,-0.7618,-0.7709,-0.7914,-0.8001,-0.8001,-0.8001,-0.7992,-0.7973,-0.7973,-0.7983,-0.8005,-0.8011,-0.8101,-0.8243,-0.828,-0.8172,-0.7972,-0.8375,-0.9955,-1.2168,-1.2096,-1.215,-1.2264,-1.1815,-1.1734,-1.154,-0.9494,-0.7921,-0.6385,-0.4274,-0.2687,0.0,0.0,0.0,0.0,0.0,0.0,0.0,0.0,0.0,0.0,0.0,0.0,0.0,0.0,0.0,0.0,0.0,0.0,0.0,0.0,0.0,0.0,0.0,0.0,0.0,0.0,0.0,0.0,0.0,0.0,0.0,0.0,0.0,0.0,0.0,0.0,0.0,0.0,0.0,0.0051,0.015,0.0644,0.1175,0.1636,0.2191,0.0,0.2996,0.2966,0.2999,0.2998,0.292,0.2908,0.2905,0.2876,0.2851,0.2777,0.2705,0.2677,0.2675,0.2686,0.266,0.2597,0.0,0.0,0.0,0.0,0.0,0.0,0.2212,0.1451,0.0913,0.09,0.0364,0.0,0.0,-0.0163,-0.0563,-0.1277,-0.2338,-0.3878,-0.6102,-0.6508,-0.6725,-0.6831,-0.7005,-0.713,-0.7212,-0.7294,-0.7333,-0.725,-0.725,-0.725,-0.725,-0.725,-0.7274,-0.7353,-0.7358,-0.7244,-0.7088,-0.713,-0.6927,-0.6644,-0.6929,-0.8015,-0.9492,-0.9585,-0.9571,-0.9497,-0.9412,-0.945,-0.9332,-0.8265,-0.6868,-0.5354,-0.3824,-0.2365,-0.114,0.0,0.0,0.0,0.0,0.0,0.0,0.0,0.0,0.0,0.0,0.0,0.0,0.0,0.0,0.0,0.0,0.0,0.0,0.0,0.0,0.0,0.0,0.0,0.0,0.0,0.0,0.0,0.0,0.0,0.0,0.0,0.0,0.0,0.0,0.0,0.0,0.0,0.0,0.0,0.0,0.0812,0.1304,0.1582,0.2351,0.2862,0.3074,0.3043,0.3029,0.3028,0.2998,0.2975,0.296,0.293,0.29,0.287,0.2794,0.28,0.2759,0.2743,0.2728,0.2713,0.0,0.0,0.0,0.0,0.0,0.0,0.0,0.2759,0.179,0.1791,0.0734,0.0,0.0,-0.0228,-0.033,-0.01,-0.1745,-0.3546,-0.536,-0.5699,-0.5914,-0.6087,-0.6332,-0.6504,-0.6644,-0.6647,-0.6576,-0.6477,-0.6477,-0.6477,-0.6477,-0.6357,-0.6391,-0.6486,-0.6391,-0.6157,-0.5831,-0.5818,-0.5581,-0.5221,-0.5402,-0.5398,-0.5266,-0.5566,-0.6044,-0.6645,-0.6989,-0.6916,-0.663,-0.6822,-0.5511,-0.3688,-0.3049,-0.1819,-0.0593,-0.0455,-0.0415,0.0,0.0,0.0,0.0,0.0,0.0,0.0,0.0,0.0,0.0,0.0,0.0,0.0,0.0,0.0,0.0,0.0,0.0,0.0,0.0,0.0,0.0,0.0,0.0,0.0,0.0,0.0,0.0,0.0,0.0,0.0,0.0,0.0,0.0,0.0,0.0106,0.0158,0.0157,0.1241,0.1794,0.1777,0.2766,0.3193,0.3117,0.3131,0.3115,0.3112,0.3118,0.3079,0.2996,0.3018,0.2947,0.2924,0.2924,0.2876,0.2808,0.2803,0.2793,0.278,0.0,0.0,0.0,0.0,0.0,0.0,0.0,0.0,0.179,0.1791,0.0757,0.0,0.0,-0.0032,-0.0163,-0.0429,-0.1002,-0.1452,-0.1764,-0.2146,-0.2398,-0.2461,-0.2917,-0.3124,-0.3168,-0.3168,-0.3166,-0.3123,-0.3123,-0.3123,-0.3123,-0.2719,-0.2519,-0.2524,-0.2159,-0.1967,-0.1929,-0.1925,-0.1682,-0.1381,-0.173,-0.1429,-0.078,-0.1223,-0.3676,-0.6859,-0.6928,-0.6988,-0.6965,-0.6541,-0.5363,-0.3966,-0.3026,-0.1807,-0.0625,-0.0164,-0.004,-0.0038,-0.0074,-0.0074,-0.0037,0.0,0.0,0.0,0.0,0.0,0.0,0.0,0.0,0.0,0.0,0.0,0.0,0.0,0.0,0.0,0.0,0.0,0.0,0.0,0.0,0.0,0.0,0.0,0.0,0.0,0.0,0.0,0.0,0.0,0.0,0.0,0.0541,0.0804,0.0797,0.1843,0.2401,0.2431,0.3024,0.3264,0.3258,0.3204,0.3178,0.3174,0.3137,0.3067,0.3013,0.3009,0.3006,0.3002,0.3002,0.2934,0.2898,0.2872,0.283,0.2782,0.0,0.0,0.0,0.0,0.0,0.0,0.0,0.0,0.3975,0.4071,0.2387,0.1158,0.1165,0.0483,-0.0229,-0.0758,-0.0768,-0.0866,-0.1183,-0.1356,-0.1478,-0.1558,-0.1758,-0.1975,-0.224,-0.2255,-0.2387,-0.2638,-0.2387,-0.227,-0.2285,-0.1777,-0.1565,-0.1524,-0.1376,-0.1165,-0.0944,-0.0959,-0.0699,-0.0304,-0.0481,-0.0307,0.0,-0.0221,-0.1358,-0.294,-0.3184,-0.3143,0.0,-0.3034,-0.2485,-0.1698,-0.1255,-0.0756,-0.0251,-0.0041,0.0,0.0,0.0,0.0,0.0,0.0,0.0,0.0,0.0,0.0,0.0,0.0,0.0,0.0,0.0,0.0,0.0,0.0,0.1196,0.1592,0.022,0.1217,0.155,0.0165,0.0,0.0,0.0,0.0,0.0,0.0,0.0332,0.05,0.05,0.0884,0.1048,0.1048,0.1312,0.1412,0.1407,0.2199,0.2552,0.2582,0.3082,0.332,0.33,0.3277,0.3255,0.3234,0.3144,0.3091,0.3065,0.3076,0.3705,0.4755,0.4755,0.5464,0.6181,0.3791,0.2846,0.2804,0.0,0.0,0.0,0.0,0.0,0.0,0.0,0.0,0.0,0.0,0.3835,0.2541,0.2564,0.1718,0.0956,0.0496,0.0668,0.0691,0.0404,0.0302,0.0274,0.0246,-0.0298,-0.073,-0.1098,-0.158,-0.1977,-0.232,-0.1977,-0.1812,-0.187,-0.1348,-0.1132,-0.1136,-0.1016,-0.0797,-0.0485,-0.0489,-0.0311,0.0,0.0,0.0,0.0,0.0,0.0,-0.0042,-0.0382,-0.0291,-0.0041,-0.0404,-0.0282,0.0,0.0,0.0,0.0,0.0,0.0,0.0,0.0,0.0,0.0,0.0,0.0,0.0,0.0,0.0,0.0,0.0,0.0506,0.072,0.0106,0.1064,0.1504,0.0219,0.2589,0.3763,0.1332,0.3064,0.3893,0.2098,0.1816,0.1811,0.1859,0.1488,0.1331,0.1504,0.2577,0.3203,0.3203,0.3632,0.384,0.3773,0.3909,0.3999,0.3999,0.4566,0.4472,0.3848,0.4896,0.4648,0.3345,0.3899,0.4534,0.5085,0.4972,0.4859,0.483,0.4808,0.5605,0.687,0.687,0.7756,0.8688,0.5684,0.4536,0.4484,0.0,0.0,0.0,0.0,0.0,0.0,0.0,0.0,0.0,0.0,0.0,0.0,0.0,0.4009,0.4034,0.4119,0.4158,0.4192,0.4317,0.4136,0.4051,0.4127,0.2263,0.1195,0.1194,-0.0475,-0.1347,-0.1347,-0.1347,-0.1304,-0.1304,-0.0913,-0.0699,-0.0707,-0.0223,-0.0045,0.0,0.0,0.0,0.0,0.0,0.0,0.0,0.0,0.0,0.0,0.0,0.0,0.0,0.0,0.0,0.0,0.0,0.0,0.0,0.0,0.0,0.0,0.0,0.0,0.0,0.0,0.0,0.0,0.0,0.0,0.0,0.0,0.1784,0.2637,0.043,0.3715,0.5305,0.0718,0.398,0.6263,0.3855,0.5441,0.6827,0.6608,0.6499,0.6435,0.6592,0.5222,0.4671,0.5367,0.7635,0.8933,0.8933,0.8989,0.8899,0.8707,0.9245,0.9539,0.9539,1.0116,0.9168,0.6894,0.9273,0.7937,0.346,0.5484,0.7585,0.9611,0.9463,0.9273,0.9108,0.9104,0.9052,0.9023,0.9023,0.9065,0.9064,0.8877,0.8832,0.8783,0.0,0.0,0.0,0.0,0.0,0.0,0.0,0.0,0.0,0.0,0.0,0.0,0.0,0.0,0.0,0.0,0.4294,0.4311,0.4369,0.4485,0.4558,0.4549,0.4115,0.3783,0.3542,0.3049,0.2697,0.241,0.276,0.2243,0.0975,0.1463,0.0978,-0.0223,-0.009,0.0,0.0,0.0,0.0,0.0,0.0,0.0,0.0,0.0,0.0,0.0,0.0,0.0,0.0,0.0,0.0,0.0,0.0,0.0,0.0234,0.1326,0.1809,0.2279,0.3555,0.4072,0.4323,0.4579,0.463,0.4682,0.4738,0.4732,0.4665,0.464,0.5054,0.5165,0.4384,0.5556,0.6121,0.4607,0.7241,0.8641,0.6313,0.8076,0.8916,0.7158,0.6946,0.7164,0.7474,0.6992,0.678,0.7175,0.8794,0.9786,0.9786,1.0185,1.0334,1.0303,1.0337,1.0408,1.0408,1.0596,1.0265,0.9462,1.0142,0.9561,0.7915,0.8501,0.9171,0.9875,0.9662,0.9502,0.9382,0.9325,1.001,1.1154,1.1154,1.1982,1.3122,1.3121,1.3127,1.2708,0.0,0.0,0.0,0.0,0.0,0.0,0.0,0.0,0.0,0.0,0.0,0.0,0.0,0.0,0.0,0.0,0.0,0.5818,0.589,0.6137,0.631,0.6326,0.6011,0.5739,0.5532,0.4972,0.4584,0.438,0.4784,0.4312,0.3152,0.3559,0.3101,0.1972,0.1986,0.1993,0.2039,0.1993,0.1624,0.103,0.0964,0.0562,0.0,0.0,0.0,0.0,0.0642,0.0824,0.0747,0.0185,0.0742,0.1572,0.1067,0.1309,0.2016,0.3219,0.3779,0.434,0.5703,0.6309,0.6609,0.6912,0.6991,0.7058,0.7171,0.7092,0.699,0.6915,0.729,0.7323,0.6433,0.7593,0.8122,0.6586,0.9252,1.0807,0.8624,1.0444,1.1363,0.9703,0.9601,0.9776,1.0081,1.0451,1.0462,1.0029,1.1954,1.3103,1.3007,1.3433,1.3654,1.3516,1.3435,1.3329,1.3288,1.3278,1.3297,1.3242,1.1343,1.1219,1.2737,1.1545,1.1465,1.2277,1.2034,1.1841,1.1729,1.1658,1.2331,1.3424,1.3424,1.4191,1.5343,1.5343,1.5343,1.4931,0.0,0.0,0.0,0.0,0.0,0.0,0.0,0.0,0.0,0.0,0.0,0.0,0.0,0.0,0.0,0.0,0.0,0.0,0.8838,0.8986,0.9136,0.928,0.7897,0.7133,0.7141,0.5441,0.4643,0.478,0.4914,0.5036,0.5101,0.524,0.5356,0.5423,0.5423,0.553,0.5627,0.5517,0.4451,0.2838,0.2725,0.1613,0.0,0.0,0.0038,0.0296,0.1768,0.2413,0.233,0.0766,0.2225,0.4473,0.3086,0.3779,0.5131,0.5541,0.5882,0.6166,0.6614,0.6915,0.718,0.735,0.7346,0.7395,0.7514,0.7419,0.7295,0.7175,0.8562,0.9155,0.6809,0.982,1.1267,0.6967,1.0189,1.2656,1.0878,1.2497,1.3934,1.4096,1.408,1.4053,1.4167,1.5217,1.5322,1.3875,1.6713,1.842,1.8335,1.8464,1.8409,1.8124,1.8111,1.8036,1.7936,1.7936,1.7915,1.7846,1.3058,1.3063,1.7278,1.4539,1.4458,1.6503,1.6212,1.5995,1.5901,1.5901,1.5771,1.5593,1.5593,1.5593,1.5593,1.5593,1.5593,1.5533,0.0,0.0,0.0,0.0,0.0,0.0,0.0,0.0,0.0,0.0,0.0,0.0,0.0,0.0,0.0,0.0,0.0,0.0,0.9584,0.9188,0.8973,0.9006,0.8905,0.8902,0.9026,0.8593,0.8466,0.8607,0.8635,0.7962,0.6655,0.6676,0.5953,0.4626,0.4626,0.4641,0.4668,0.4721,0.3807,0.2314,0.2368,0.1426,0.0,0.0,0.0709,0.1757,0.2165,0.3875,0.5709,0.4039,0.4191,0.5038,0.4931,0.5233,0.5994,0.7553,0.8297,0.8986,1.0756,1.1471,1.1786,1.2214,1.2241,1.2251,1.2301,1.2125,1.1863,1.1555,1.1589,1.1429,1.0517,1.1533,1.2158,1.1268,1.262,1.3777,1.3634,1.4227,1.47,1.4673,1.4727,1.4744,1.4673,1.5441,1.5975,1.6034,1.7576,1.8511,1.8477,1.862,1.862,1.8423,1.8321,1.8247,1.8199,1.8091,1.7914,1.7649,1.627,1.6185,1.7236,1.6119,1.5955,1.6503,1.6212,1.5995,1.5901,1.5901,1.5771,1.5593,1.5593,1.5593,1.5593,1.5593,1.5593,1.5573,0.0,0.0,0.0,0.0,0.0,0.0,0.0,0.0,0.0,0.0,0.0,0.0,0.0,0.0,0.0,0.0,0.0,0.0,0.0,1.0311,0.9767,0.9467,0.9225,0.9122,0.9229,0.9307,0.94,0.947,0.9579,0.9088,0.8111,0.8194,0.7684,0.6713,0.6713,0.6735,0.6807,0.6818,0.5861,0.0,0.0,0.3402,0.1988,0.1989,0.2545,0.3429,0.4107,0.6049,0.8215,0.7561,0.7001,0.6799,0.7825,0.8251,0.8692,1.0019,1.0688,1.1288,1.2714,1.3423,1.376,1.4085,1.4124,1.4015,1.3923,1.3629,1.3238,1.282,1.2335,1.196,1.1705,1.1868,1.2156,1.2515,1.3185,1.3846,1.4434,1.4684,1.4852,1.4994,1.5081,1.5092,1.5026,1.5888,1.6543,1.6609,1.7702,1.8454,1.8684,1.8871,1.885,1.864,1.8552,1.8443,1.8321,1.8233,1.807,1.7846,1.7568,1.7439,1.7277,1.6777,1.6585,1.651,1.6279,1.6096,1.6003,1.6003,1.5906,1.5832,1.5832,1.5832,1.5832,1.5832,1.5832,1.5832,0.0,0.0,0.0,0.0,0.0,0.0,0.0,0.0,0.0,0.0,0.0,0.0,0.0,0.0,0.0,0.0,0.0,0.0,0.0,0.0,1.0868,1.0074,0.915,0.8651,0.859,0.8727,0.8781,0.8781,0.8959,0.9076,0.9209,0.9318,0.9476,0.9634,0.9634,0.9693,0.9824,0.9715,0.8686,0.7101,0.7043,0.6015,0.4513,0.0,0.4732,0.5211,0.6765,0.8358,0.9824,1.0536,0.9869,0.9093,1.0892,1.1596,1.1849,1.2357,1.2727,1.3064,1.3439,1.3847,1.4139,1.4292,1.4167,1.401,1.3624,1.3254,1.2874,1.2252,1.1813,1.1542,1.1434,1.1498,1.1748,1.215,1.2738,1.3439,1.4292,1.4532,1.4787,1.5233,1.5293,1.5293,1.5293,1.6289,1.6763,1.6392,1.748,1.8364,1.8843,1.909,1.9115,1.883,1.8875,1.8674,1.8375,1.8375,1.8287,1.8091,1.7806,1.7534,1.7405,1.6926,1.6648,1.6544,1.6381,1.6232,1.611,1.609,1.6083,1.6083,1.6083,1.6083,1.6083,1.6083,1.6083,1.6083,0.0,0.0,0.0,0.0,0.0,0.0,0.0,0.0,0.0,0.0,1.4948,1.3697,0.0,0.0,0.0,0.0,0.0,0.0,0.0,0.0,0.0,0.9344,0.9117,0.8884,0.8623,0.8606,0.8622,0.8622,0.866,0.8693,0.8715,0.8731,0.8764,0.8802,0.8802,0.8818,0.8845,0.8995,0.8163,0.6725,0.6933,0.6075,0.4653,0.4681,0.5479,0.0,0.8474,0.9345,0.9851,1.0732,1.0929,1.0941,1.1914,1.2401,1.2743,1.3124,1.3352,1.358,1.4042,1.4222,1.4292,1.4264,1.4151,1.3841,1.3292,1.2884,1.2428,1.1772,1.1494,1.1237,1.0922,1.1204,1.1705,1.2362,1.3058,1.3841,1.4724,1.5092,1.5347,1.569,1.5718,1.5718,1.5718,1.5905,1.6215,1.6602,1.7332,1.7948,1.8345,1.9019,1.9305,1.9128,1.9128,1.8993,1.8694,1.8694,1.8534,1.8091,1.7914,1.7684,1.7412,1.7087,1.6856,1.6642,1.6429,1.6293,1.6259,1.6137,1.6083,1.6083,1.6083,1.6083,1.6083,1.6083,1.6083,1.6083,0.0,0.0,0.0,0.0,0.0,0.0,0.0,1.7068,1.7129,1.7817,1.668,1.5855,1.6065,1.6154,1.5973,0.0,0.0,0.0,0.0,0.0,0.0,0.9742,0.915,0.8751,0.859,0.8683,0.8683,0.859,0.0,0.8683,0.859,0.859,0.859,0.859,0.859,0.859,0.8595,0.8715,0.8355,0.7752,0.7887,0.7545,0.7002,0.6973,0.7482,0.0,0.9202,0.9601,0.9867,1.0579,1.1107,1.1612,1.2509,1.2928,1.3227,1.3526,1.3738,1.3944,1.4238,1.4461,1.4586,1.4521,1.4282,1.3847,1.3058,1.2553,1.2031,1.1243,1.1036,1.0944,1.0728,1.1079,1.1581,1.2074,1.2661,1.3376,1.4459,1.4814,1.5135,1.5745,1.5816,1.5816,1.5816,1.6055,1.6366,1.666,1.7642,1.831,1.8471,1.908,1.9393,1.9325,1.9237,1.9094,1.8884,1.8884,1.8694,1.8321,1.8091,1.786,1.7636,1.7263,1.7012,1.6856,1.6639,1.6449,1.6307,1.6232,1.6151,1.6083,1.6083,1.6083,1.6083,1.6083,1.6083,1.6083,0.0,0.0,0.0,0.0,0.0,0.0,0.0,1.7044,1.7141,1.8155,1.7851,1.7527,1.7527,1.7699,1.7162,0.0,0.0,0.0,0.0,0.0,0.0,0.0,0.0,0.0,0.859,0.0,0.0,0.859,0.8716,0.0,0.0,0.0,0.0,0.0,0.859,0.859,0.859,0.8617,0.8698,0.0,0.0,0.8976,0.9136,0.0,0.0,0.0,0.0,0.9568,0.9769,1.038,1.0933,1.1556,1.2515,1.3069,1.3417,1.3586,1.3874,1.4167,1.432,1.4602,1.4872,1.4646,1.4347,1.3836,1.2819,1.2259,1.1721,1.0863,1.0695,1.0695,1.0695,1.0987,1.1335,1.1754,1.2199,1.2912,1.4108,1.4434,1.4825,1.569,1.5805,1.5816,1.5816,1.6238,1.6538,1.666,1.7909,1.8706,1.8927,1.9247,1.9481,1.9481,1.9325,1.9183,1.904,1.9006,1.883,1.8474,1.8267,1.8036,1.7902,1.7467,1.7195,1.7019,1.6863,1.6581,1.6354,1.632,1.6218,1.6083,1.6083,1.6083,1.6083,1.6083,1.6083,1.6083,0.0,0.0,0.0,0.0,0.0,0.0,0.0,1.708,1.7358,1.8191,1.7176,1.6371,1.6371,1.6259,1.5673,0.0,0.0,0.0,0.0,0.0,0.0,0.0,0.0,0.0,0.0,0.0,0.0,0.859,0.86,0.0,0.0,0.0,0.0,0.0,0.0,0.859,0.8595,0.8738,0.0,0.0,0.0,0.0,0.0,0.0,0.0,0.0,0.0,0.9334,0.9459,1.0166,1.059,1.0906,1.1699,1.2542,1.3186,1.3162,1.3613,1.4139,1.4417,1.4673,1.4828,1.4434,1.4167,1.372,1.2536,1.202,1.1623,1.0847,1.0695,1.0695,1.0695,1.0814,1.1139,1.1726,1.2129,1.2786,1.3988,1.445,1.4885,1.5516,1.5745,1.5816,1.5816,1.5877,1.6116,1.666,1.7829,1.8838,1.9597,1.9644,1.9644,1.9644,1.9481,1.9345,1.9183,1.9061,1.883,1.8474,1.8375,1.8145,1.786,1.7684,1.7392,1.7161,1.7019,1.6781,1.649,1.6361,1.6218,1.6083,1.6083,1.6083,1.6083,1.6083,1.6083,1.6083,0.0,0.0,0.0,0.0,0.0,0.0,1.6972,1.7092,1.7443,1.8396,1.7321,1.6139,1.5384,1.4435,1.3513,1.279,0.0,0.0,0.0,0.0,0.0,0.0,0.0,0.0,0.0,0.0,0.9262,0.9262,0.9023,0.0,0.0,0.0,0.0,0.0,0.0,0.859,0.8595,0.8754,0.0,0.0,0.0,0.0,0.0,0.0,0.0,0.0,0.0,0.0,0.9568,0.9895,1.0253,1.0655,1.0802,1.1455,1.2281,1.294,1.3423,1.3917,1.4379,1.4727,1.4896,1.4602,1.4195,1.3597,1.2613,1.2036,1.1481,1.0831,1.0695,1.0717,1.0793,1.0787,1.096,1.1417,1.1552,1.1971,1.2975,1.3357,1.3874,1.4912,1.5194,1.5423,1.5772,1.6116,1.6788,1.7818,1.8602,1.916,1.9522,1.9434,1.9379,1.9379,1.9325,1.9217,1.9081,1.9027,1.8884,1.8674,1.8511,1.8335,1.8124,1.7792,1.748,1.7317,1.708,1.6809,1.6517,1.6463,1.6293,1.6083,1.6083,1.6083,1.6083,1.6083,1.6083,1.6083,0.0,0.0,0.0,0.0,0.0,1.6139,1.6863,1.7044,1.7301,1.7819,1.6735,1.5444,1.4198,1.2703,1.1666,1.137,1.1603,0.0,0.0,0.0,0.0,0.0,0.0,0.0,0.0,0.0,0.9694,0.9694,0.9422,0.9289,0.0,0.0,0.8856,0.8751,0.0,0.0,0.0,0.0,0.0,0.0,0.0,0.0,0.0,0.0,0.0,0.0,0.0,0.0,0.0,0.0,0.0,1.0775,1.0481,1.0862,1.1544,1.2323,1.2993,1.3602,1.4097,1.4575,1.4885,1.4673,1.4178,1.3515,1.2672,1.1995,1.1421,1.082,1.0695,1.0722,1.0809,1.0782,1.0831,1.1128,1.1188,1.1504,1.2362,1.264,1.3172,1.4282,1.4577,1.4946,1.5739,1.6683,1.766,1.8494,1.906,1.9345,1.9305,1.9149,1.9115,1.9203,1.9169,1.9094,1.8993,1.8938,1.885,1.8694,1.8552,1.8389,1.8233,1.788,1.7602,1.7405,1.7202,1.691,1.6585,1.6537,1.6374,1.6144,1.6096,1.6083,1.609,1.613,1.6151,1.6157,0.0,0.0,0.0,0.0,0.0,0.0,1.6622,1.6923,1.6838,1.6112,1.5022,1.3892,1.2748,1.1254,1.0308,1.0308,1.0036,0.0,0.0,0.0,0.0,0.0,0.0,0.0,0.0,0.0,0.9694,0.9694,0.9694,0.9694,0.9694,0.9694,0.9489,0.9084,0.0,0.0,0.0,0.0,0.0,0.0,0.0,0.0,0.9951,0.0,0.0,0.0,0.0,0.0,0.0,0.0,0.0,0.0,0.0,1.097,1.124,1.1323,1.2216,1.3246,1.3548,1.414,1.4646,1.4532,1.4053,1.3385,1.2596,1.1982,1.1421,1.082,1.0695,1.0695,1.0695,1.0793,1.0922,1.0879,1.1221,1.1706,1.2318,1.2711,1.3113,1.3722,1.3949,1.4475,1.5676,1.7556,1.8555,1.8231,1.8794,1.9149,1.9006,1.8909,1.8905,1.9183,1.9061,1.8993,1.8993,1.8888,1.8694,1.8474,1.8389,1.8247,1.8091,1.7935,1.7704,1.7419,1.7419,1.7108,1.6682,1.6533,1.6435,1.6293,1.6144,1.6083,1.6096,1.6252,1.6307,1.6327,0.0,0.0,0.0,0.0,0.0,0.0,0.0,1.5339,1.5194,1.457,1.3332,1.2521,1.2478,1.1053,1.0089,1.0089,1.0001,0.0,0.0,0.0,0.0,0.0,0.0,0.0,0.0,0.0,1.0234,1.0234,1.0108,1.0027,1.0027,0.9794,0.9628,0.9522,0.9522,0.9455,0.0,0.0,0.0,0.0,0.0,1.0917,1.1843,0.0,0.0,0.0,0.0,0.0,0.0,0.0,0.0,0.0,0.0,0.0,0.0,1.1541,1.1972,1.2455,1.2786,1.3276,1.3645,1.345,1.345,1.336,1.261,1.2471,1.2337,1.1771,1.1541,1.1558,1.1865,1.1806,1.1859,1.2314,1.2142,1.2119,1.2488,1.2674,1.3015,1.3705,1.5004,1.6379,1.7666,1.8271,1.8678,1.9006,1.9064,1.904,1.8993,1.885,1.8854,1.8905,1.8762,1.8674,1.8674,1.8531,1.8443,1.8332,1.8335,1.8233,1.8091,1.7935,1.7704,1.7412,1.7311,1.7066,1.6696,1.6648,1.654,1.6449,1.6402,1.632,1.6252,1.6402,1.6395,1.6334,0.0,0.0,0.0,0.0,0.0,0.0,0.0,1.495,1.4407,1.3461,1.2327,1.1579,1.1425,1.0507,0.9954,0.9984,0.9967,0.0,0.0,0.0,0.0,0.0,0.0,0.0,0.0,1.0419,1.0548,1.0663,1.0612,1.0584,1.0584,1.0406,1.0204,0.9969,0.9969,0.9871,0.0,0.0,0.0,0.0,1.055,1.1247,1.2137,0.0,0.0,0.0,0.0,0.0,0.0,0.0,0.0,0.0,0.0,0.0,0.0,0.0,1.1853,1.2119,1.2594,1.3096,1.3458,1.3451,1.3447,1.3328,1.2881,1.2723,1.2588,1.2093,1.1965,1.2001,1.2203,1.2185,1.2289,1.271,1.2393,1.2212,1.261,1.2884,1.3346,1.4133,1.5693,1.7067,1.7838,1.8481,1.896,1.9211,1.9094,1.8972,1.8905,1.8875,1.882,1.882,1.862,1.8454,1.8407,1.8319,1.8287,1.8233,1.8233,1.8158,1.8002,1.7956,1.7704,1.7412,1.7317,1.7107,0.0,1.6723,1.6642,1.6554,1.6544,1.6435,1.6327,1.6469,1.6429,1.6334,0.0,0.0,0.0,0.0,0.0,0.0,0.0,1.5455,1.4375,1.2813,1.2018,1.1169,1.003,0.9937,0.9937,0.9988,0.0,0.0,0.0,0.0,0.0,0.0,0.0,0.0,0.0,1.0405,1.0655,1.1063,1.1145,1.1296,1.1559,1.1454,1.1115,1.0609,1.0501,1.0187,0.0,0.0,0.0,0.0,1.0824,1.1103,0.0,0.0,0.0,0.0,0.0,0.0,0.0,0.0,0.0,0.0,0.0,0.0,0.0,0.0,0.0,0.0,0.0,1.3472,1.3831,1.4072,1.3728,1.3284,1.319,1.282,0.0,1.1988,1.2041,1.2138,1.1951,1.2135,1.2313,1.244,1.2231,1.2216,1.2708,1.3433,1.413,1.4954,1.6189,1.6873,1.6782,1.834,1.9305,1.9027,1.8993,1.8918,1.882,1.882,1.8762,1.88,1.8599,1.8464,1.8321,1.8301,1.8213,1.8077,1.8077,1.8002,1.7915,1.7915,1.7704,1.7439,1.7426,1.7256,1.6985,1.6777,1.6716,1.6702,1.656,1.6463,1.6341,1.6483,1.6442,1.6334,0.0,0.0,0.0,0.0,0.0,0.0,0.0,0.0,0.0,0.0,1.2644,1.2209,1.1073,1.1123,1.0861,0.0,0.0,0.0,0.0,0.0,0.0,0.0,0.0,0.0,0.0,1.0249,1.1049,1.2509,1.1454,1.2331,1.489,1.242,1.1828,1.2793,1.1396,1.0658,0.0,0.0,0.0,0.0,1.1206,1.2073,0.0,0.0,0.0,0.0,1.6378,1.5551,0.0,0.0,0.0,0.0,0.0,0.0,0.0,0.0,1.2801,1.2966,1.3241,0.0,1.2756,1.2714,1.3047,1.3331,0.0,1.3137,1.325,1.2913,1.2828,1.2874,1.3131,1.3151,1.327,1.3763,1.3578,1.3456,1.3801,1.4754,1.5585,1.622,1.7466,1.8291,1.8403,1.8917,1.9217,1.9149,1.8938,1.8854,1.882,1.882,1.8708,1.8586,1.8494,1.8464,1.8321,1.8091,1.8004,1.797,1.797,1.7956,1.7915,1.7915,1.7758,1.7534,1.7419,1.7317,1.7127,1.6985,1.6924,1.6924,1.689,1.6707,1.649,1.6588,1.6479,1.6334,0.0,0.0,0.0,0.0,0.0,0.0,0.0,0.0,0.0,0.0,0.0,1.1882,1.1288,1.15,0.0,0.0,0.0,0.0,0.0,0.0,0.0,0.0,0.0,0.9893,1.0116,1.0893,1.1895,1.3185,1.3136,1.4113,1.6066,1.4377,1.3544,1.3438,1.161,1.0765,0.0,0.0,1.1029,1.1213,1.1363,0.0,0.0,0.0,0.0,0.0,1.596,1.5371,0.0,1.4361,1.3544,1.2494,0.0,0.0,0.0,0.0,1.3105,1.3248,1.3356,1.3142,1.2838,1.2868,1.3102,1.3353,1.3268,1.3363,1.3437,1.318,1.3159,1.3214,1.339,1.3519,1.3756,1.4224,1.4072,1.4152,1.4893,1.5443,1.612,1.7145,1.7912,1.8462,1.8728,1.9018,1.9169,1.9115,1.8943,1.882,1.882,1.882,1.8728,1.864,1.8565,1.8464,1.8321,1.8091,1.7968,1.7968,1.7956,1.7915,1.7915,1.7915,1.7792,1.7595,1.7507,1.7399,1.7188,1.7107,1.7039,1.6971,1.6904,1.6727,1.653,1.656,1.6456,1.6225,0.0,0.0,0.0,0.0,0.0,0.0,0.0,0.0,0.0,0.0,0.0,0.0,0.0,0.0,0.0,0.0,0.0,0.0,0.0,0.0,0.0,0.0,0.0,1.0573,1.0904,1.2091,1.3139,1.4062,1.5245,1.6183,1.6958,1.6426,1.5061,1.3033,1.148,1.0765,0.0,0.0,1.1009,1.1206,1.1301,0.0,0.0,0.0,0.0,0.0,0.0,0.0,0.0,1.4099,1.3493,1.2665,1.2549,0.0,0.0,0.0,0.0,0.0,1.3397,1.3471,1.3519,1.358,1.3498,1.3437,1.3524,1.3478,1.3302,1.3118,1.3227,1.339,1.3349,1.3654,1.3984,1.438,1.4375,1.4769,1.5983,1.6084,1.654,1.7845,1.815,1.8332,1.8561,1.8966,1.9149,1.9027,1.8871,1.882,1.882,1.882,1.882,1.882,1.864,1.8498,1.8355,1.8179,1.8091,1.8091,1.7935,1.7915,1.7915,1.7915,1.7792,1.7629,1.7609,1.7433,1.7222,1.7202,1.7107,1.6971,1.6784,1.6642,1.6506,1.6506,1.6381,1.6164,0.0,0.0,0.0,0.0,0.0,0.0,0.0,0.0,0.0,0.0,0.0,0.0,0.0,0.0,0.0,0.0,0.0,0.0,0.0,0.0,0.0,1.3096,1.3096,1.3286,1.3685,1.3913,1.5048,1.7118,1.6495,1.7852,2.0939,1.6963,1.3908,1.1699,1.131,1.0955,1.0691,0.0,1.0914,1.12,1.1227,0.0,0.0,0.0,0.0,0.0,0.0,0.0,0.0,1.2454,1.2564,1.2665,1.2549,0.0,0.0,0.0,0.0,0.0,1.3511,1.3777,1.3885,1.3526,1.3417,1.341,1.3431,1.3315,1.3234,1.3315,1.337,1.3546,1.4034,1.4183,1.4407,1.4957,1.5573,1.6184,1.6888,1.7603,1.8007,1.782,1.8767,1.9307,1.8976,1.909,1.9183,1.9169,1.8918,1.882,1.882,1.882,1.882,1.882,1.8742,1.8654,1.8498,1.8233,1.8091,1.8091,1.7935,1.7915,1.7915,1.7915,1.7902,1.7826,1.7649,1.7494,1.7372,1.7243,1.7107,1.6978,1.6951,1.6849,1.6662,1.6662,1.6554,1.6442,0.0,0.0,0.0,0.0,0.0,0.0,0.0,0.0,0.0,0.0,0.0,0.0,0.0,0.0,0.0,0.0,0.0,0.0,0.0,0.0,1.5156,1.5156,1.5298,1.5096,1.4512,1.5541,1.6915,1.8641,1.9263,2.0003,2.0797,1.6388,1.3738,1.259,1.1432,1.0894,1.0813,1.0813,1.1016,1.1322,0.0,0.0,0.0,0.0,0.0,0.0,0.0,0.0,0.0,0.0,1.2488,1.2665,1.2549,0.0,0.0,0.0,0.0,0.0,1.3464,1.3607,1.3715,1.3756,1.3946,1.4038,1.3926,1.3892,1.3871,1.3783,1.3831,1.3994,1.4346,1.4746,1.5323,1.6246,1.6686,1.7082,1.7586,1.8037,1.8363,1.8535,1.8998,1.9371,1.9345,1.9257,1.9169,1.9094,1.8884,1.882,1.882,1.882,1.882,1.882,1.8674,1.8565,1.8366,1.8199,1.8091,1.8091,1.7935,1.7915,1.7915,1.7915,1.7915,1.786,1.7792,1.7629,1.7412,1.7344,1.7182,1.6971,1.689,1.6757,1.6689,1.6608,1.6581,1.6574,0.0,0.0,0.0,0.0,0.0,0.0,0.0,0.0,0.0,0.0,0.0,0.0,0.0,0.0,0.0,0.0,0.0,0.0,0.0,0.0,1.6747,1.6747,1.7123,1.6915,1.6021,1.718,1.8533,2.0101,2.1749,2.159,1.9655,1.5934,1.385,1.3189,1.1569,1.0867,1.0914,1.0948,1.1151,1.1396,0.0,0.0,0.0,0.0,0.0,0.0,0.0,0.0,0.0,0.0,0.0,0.0,0.0,0.0,0.0,1.4121,1.4069,1.3903,1.4025,1.4124,1.4182,1.4117,1.4251,1.4441,1.4496,1.4509,1.4509,1.4534,1.4557,1.4665,1.4848,1.5466,1.63,1.7351,1.7616,1.7846,1.8335,1.8409,1.864,1.9291,1.9237,1.9291,1.9739,1.9434,1.9203,1.9047,1.8905,1.8854,1.882,1.882,1.88,1.8708,1.862,1.8477,1.8267,1.8179,1.8111,1.8036,1.797,1.7915,1.7915,1.7915,1.7915,1.7915,1.7915,1.7684,1.7419,1.7419,1.7263,1.7019,1.6863,1.675,1.6736,1.6673,1.67,1.673,0.0,0.0,0.0,0.0,0.0,0.0,0.0,0.0,0.0,0.0,0.0,0.0,0.0,0.0,0.0,0.0,0.0,0.0,0.0,0.0,1.7781,1.7781,1.8524,1.9247,1.9876,1.8864,1.956,2.2087,2.2906,2.1806,1.8806,1.6216,1.3927,1.1928,1.1513,1.1199,1.0921,1.109,1.1274,1.1402,1.1545,0.0,0.0,0.0,0.0,0.0,0.0,0.0,0.0,0.0,0.0,0.0,0.0,0.0,1.5933,1.7525,1.6982,1.5826,1.5961,1.6249,1.6082,1.4496,1.3783,1.3783,1.4869,1.4808,1.474,1.5602,1.5628,1.558,1.5913,1.6469,1.7093,1.7779,1.8179,1.8654,1.9191,1.9279,1.9447,1.9786,1.9759,1.9739,1.9902,1.959,1.9345,1.9203,1.9061,1.8918,1.882,1.882,1.8694,1.8552,1.8674,1.8531,1.8111,1.8233,1.8158,1.7936,1.7915,1.7915,1.7915,1.7915,1.7915,1.7915,1.7915,1.7684,1.7419,1.7419,1.7324,1.7161,1.7019,1.6965,1.6965,1.6951,1.6951,1.6944,0.0,0.0,0.0,0.0,0.0,0.0,0.0,0.0,0.0,0.0,0.0,0.0,0.0,0.0,0.0,0.0,0.0,0.0,0.0,1.8076,1.8403,1.8403,1.8402,1.9174,2.075,2.0803,2.1768,2.3731,2.2017,2.0344,1.8641,1.5037,1.2708,1.1581,1.2315,1.2559,1.2521,1.364,1.4205,1.4356,1.4542,1.466,0.0,0.0,0.0,0.0,0.0,0.0,0.0,0.0,1.5654,1.5974,1.6552,1.6991,1.7411,1.7957,1.7735,1.7302,1.7624,1.7002,1.6228,1.591,1.4901,1.4197,1.512,1.5411,1.5615,1.6049,1.632,1.6537,1.6734,1.7114,1.7589,1.8179,1.8586,1.8952,1.9319,1.9522,1.961,1.9732,1.9759,1.9773,1.9916,1.961,1.9359,1.9217,1.9081,1.8918,1.882,1.882,1.8786,1.8674,1.8552,1.8355,1.8091,1.8057,1.7935,1.7683,1.7826,1.7915,1.7915,1.7915,1.7915,1.7915,1.7915,1.7758,1.7507,1.7507,1.7419,1.7188,1.7134,1.7114,1.7121,1.7216,1.7134,1.6998,0.0,0.0,0.0,0.0,0.0,0.0,0.0,0.0,0.0,0.0,0.0,0.0,0.0,0.0,0.0,0.0,0.0,0.0,1.7508,1.8082,1.85,1.8553,1.852,1.929,2.104,2.197,2.3082,2.4342,2.1852,1.9963,1.8606,1.5518,1.3529,1.2553,1.3842,1.4501,1.4631,1.5649,1.6148,1.6254,1.6507,1.6593,0.0,0.0,0.0,0.0,0.0,0.0,0.0,0.0,1.7511,1.775,1.8308,1.8689,1.9054,1.9548,1.9372,1.8926,1.8587,1.811,1.7436,1.6235,1.5952,1.592,1.5663,1.59,1.6293,1.6775,1.6965,1.7093,1.7236,1.7439,1.7717,1.8319,1.8762,1.9094,1.9333,1.9481,1.9556,1.9705,1.9637,1.959,1.9848,1.9535,1.9291,1.9149,1.904,1.8918,1.882,1.882,1.8728,1.8677,1.8464,1.8267,1.8023,1.7968,1.786,1.7717,1.7812,1.7915,1.7915,1.7915,1.7915,1.7915,1.7812,1.7717,1.7521,1.7521,1.7453,1.727,1.7317,1.7304,1.7277,1.7385,1.729,1.7148,0.0,0.0,0.0,0.0,0.0,0.0,0.0,0.0,0.0,0.0,0.0,0.0,0.0,0.0,0.0,0.0,0.0,0.0,1.7508,1.7762,1.8028,1.8275,1.908,1.9999,2.1051,2.2139,2.3082,2.3812,2.2871,2.1087,1.8625,1.8202,1.689,1.4952,1.6195,1.6856,1.7102,1.6718,1.6534,1.6543,1.6789,1.6838,0.0,0.0,0.0,0.0,0.0,0.0,0.0,0.0,1.7455,1.7836,2.013,2.0716,2.0978,2.2859,2.2367,2.0795,1.8772,1.9675,1.9977,1.5073,1.6784,1.9076,1.6671,1.6205,1.6653,1.7846,1.7616,1.7249,1.7399,1.7426,1.7623,1.8213,1.8687,1.9094,1.9333,1.9305,1.9305,1.9624,1.9393,1.9325,1.9684,1.9379,1.9149,1.8993,1.8993,1.8918,1.882,1.882,1.8677,1.8335,1.8407,1.8321,1.7915,1.8023,1.8023,1.7915,1.7915,1.7915,1.7915,1.7915,1.7915,1.786,1.7704,1.7507,1.7426,1.7426,1.7426,1.7439,1.7534,1.75,1.7419,1.7426,1.7419,1.7419,0.0,0.0,0.0,0.0,0.0,0.0,0.0,0.0,0.0,0.0,0.0,0.0,0.0,0.0,0.0,0.0,0.0,0.0,1.7508,1.7762,1.8028,1.8275,1.8899,1.9455,1.9963,2.1401,2.2766,2.4077,2.2572,2.1146,1.9828,1.8298,1.7058,1.6241,1.7986,1.8533,1.8216,1.9282,1.9729,1.9763,2.0193,2.0399,0.0,0.0,0.0,0.0,0.0,0.0,0.0,0.0,0.0,0.0,2.1908,2.2342,2.2643,2.3083,2.29,2.2423,2.1975,2.0529,1.8948,1.8174,1.8547,1.867,1.6933,1.6533,1.6878,1.8023,1.8023,1.7812,1.7738,1.7914,1.8111,1.8287,1.8599,1.8938,1.9217,1.9325,1.9325,1.9203,1.9291,1.9359,1.9345,1.9257,1.9094,1.8909,1.8938,1.8884,1.862,1.8708,1.8674,1.8477,1.8409,1.8267,1.8023,1.7968,1.7914,1.7915,1.7915,1.7915,1.7915,1.7915,1.7915,1.786,1.7704,1.7684,1.7724,1.7623,1.7629,1.7724,1.767,1.7568,1.7541,1.7684,1.7602,1.7453,0.0,0.0,0.0,0.0,0.0,0.0,0.0,0.0,0.0,0.0,0.0,0.0,0.0,0.0,0.0,0.0,0.0,0.0,0.0,1.7724,1.7949,1.8447,1.8761,1.9322,2.012,2.1293,2.2381,2.3297,2.263,2.1547,2.0087,1.9894,1.9267,1.8428,2.0505,2.1053,2.0468,2.1483,2.1643,2.1305,2.1849,2.2006,2.1847,0.0,0.0,0.0,0.0,0.0,0.0,0.0,0.0,0.0,2.2659,2.2874,2.3128,2.3094,2.2677,2.2243,2.2573,2.1323,2.0026,2.0473,2.0993,2.0902,1.8861,1.7875,1.767,1.8423,1.8321,1.8077,1.8057,1.8057,1.8111,1.8287,1.8565,1.8871,1.9169,1.9183,1.9149,1.9081,1.9081,1.9081,1.9115,1.9061,1.8959,1.8841,1.8796,1.8762,1.864,1.8654,1.862,1.8474,1.8389,1.8247,1.8091,1.799,1.7915,1.7915,1.7915,1.7915,1.7915,1.7915,1.7881,1.7772,1.7623,1.7575,1.7602,1.7629,1.7649,1.7772,1.7738,1.7738,1.7738,1.7881,1.7758,1.7623,0.0,0.0,0.0,0.0,0.0,0.0,0.0,0.0,0.0,0.0,0.0,0.0,0.0,0.0,0.0,0.0,0.0,0.0,0.0,0.0,1.7965,1.8655,1.8794,1.9564,2.1063,2.1583,2.1837,2.1837,2.2776,2.2062,1.9848,2.2232,2.2506,2.1101,2.3175,2.3731,2.3046,2.2997,2.2417,2.1595,2.2127,2.2175,2.1994,2.2502,0.0,0.0,0.0,0.0,0.0,0.0,0.0,0.0,2.2611,2.2695,2.2731,2.2973,2.1967,2.0913,2.1684,2.2038,2.2126,2.1994,2.3251,2.4008,2.1817,1.9996,1.8823,1.8929,1.8531,1.8213,1.8321,1.7947,1.7805,1.8247,1.8552,1.883,1.9115,1.8938,1.8884,1.9128,1.8816,1.8674,1.8938,1.885,1.88,1.8786,1.8599,1.8586,1.8752,1.8586,1.8454,1.844,1.8375,1.8233,1.8077,1.7935,1.7915,1.7915,1.7915,1.7915,1.7915,1.7915,1.7772,1.7568,1.7426,1.7344,1.7236,1.7473,1.7595,1.7629,1.7812,1.7915,1.7915,1.7915,1.7915,1.7915,0.0,0.0,0.0,0.0,0.0,0.0,0.0,0.0,0.0,0.0,0.0,0.0,0.0,0.0,0.0,0.0,0.0,0.0,0.0,0.0,1.8638,1.8702,1.9524,2.0325,2.1075,2.1208,2.1268,2.1268,2.1921,2.1941,2.1432,2.2411,2.2745,2.2629,2.3284,2.3297,2.2744,2.2332,2.203,2.1873,2.2393,2.2453,2.2248,2.2574,0.0,0.0,0.0,0.0,0.0,0.0,0.0,0.0,2.2611,2.2695,2.2695,2.2756,2.1704,2.0978,2.3324,2.2198,2.0628,2.1819,2.0688,2.0136,2.3456,2.2591,2.0573,1.8836,1.864,1.8728,1.8474,1.8352,1.8335,1.8321,1.8464,1.864,1.883,1.8905,1.8918,1.8871,1.8884,1.8871,1.8875,1.8841,1.8674,1.8423,1.8477,1.8443,1.8253,1.8321,1.8301,1.8199,1.8158,1.8077,1.7914,1.7936,1.7915,1.7915,1.7915,1.7915,1.7915,1.7915,1.7724,1.7412,1.7433,1.7399,1.7385,1.7514,1.7663,1.7826,1.7902,1.7915,1.7915,1.7915,1.7915,1.7915,0.0,0.0,0.0,0.0,0.0,0.0,0.0,0.0,0.0,0.0,0.0,0.0,0.0,0.0,0.0,0.0,0.0,0.0,0.0,0.0,1.9094,1.9534,2.0364,2.094,2.1139,2.1151,2.1142,2.1099,2.1377,2.1655,2.1921,2.2574,2.3094,2.3442,2.38,2.3575,2.2864,2.2681,2.2404,2.2127,2.2526,2.2538,2.232,2.2453,0.0,0.0,2.1764,0.0,0.0,0.0,0.0,0.0,0.0,0.0,2.2502,2.2502,2.1612,2.1217,2.4034,2.2665,2.0826,2.2566,2.1908,2.1273,2.2915,2.1645,1.9771,1.8534,1.9405,1.9936,1.8621,1.8301,1.8213,1.8213,1.8335,1.8511,1.8786,1.8762,1.8762,1.882,1.8762,1.8742,1.8654,1.8654,1.8586,1.8423,1.8355,1.8287,1.8199,1.8213,1.8213,1.8199,1.8057,1.7989,1.8024,1.7826,1.7792,1.7915,1.7915,1.7915,1.786,1.7724,1.7528,1.7311,1.7311,1.727,1.7229,1.7473,1.7609,1.7561,1.7827,1.7826,1.7772,1.7846,1.7915,1.7915,0.0,0.0,0.0,0.0,0.0,0.0,0.0,0.0,0.0,0.0,0.0,0.0,0.0,0.0,0.0,0.0,0.0,0.0,0.0,0.0,0.0,2.068,2.1149,2.1376,2.1344,2.1237,2.1173,2.1172,2.1172,2.1522,2.2162,2.2804,2.3396,2.3884,2.4234,2.3937,2.3155,2.3173,2.2862,2.232,2.2586,2.2502,2.2236,0.0,0.0,0.0,2.1583,2.1619,2.168,2.1897,0.0,0.0,0.0,0.0,2.2296,2.2296,2.1578,2.1337,2.4175,2.3156,2.1792,2.3894,2.3769,2.2856,2.1556,1.9981,1.8642,1.8255,1.979,2.0648,1.8654,1.8091,1.7935,1.8036,1.8179,1.8375,1.8664,1.8565,1.8552,1.8674,1.8565,1.8498,1.8498,1.8498,1.8477,1.8407,1.8233,1.8124,1.8233,1.8124,1.8091,1.8199,1.7948,1.788,1.7968,1.7758,1.7704,1.7826,1.7902,1.7881,1.7827,1.7561,1.7378,1.7229,1.7202,1.7114,1.7012,1.7405,1.7419,1.7229,1.7629,1.7738,1.7609,1.7772,1.7846,1.7915,0.0,0.0,0.0,0.0,0.0,0.0,0.0,0.0,0.0,0.0,0.0,0.0,0.0,0.0,0.0,0.0,0.0,0.0,0.0,0.0,0.0,2.1577,2.136,2.1441,2.189,2.1372,2.1207,2.1462,2.1462,2.2042,2.3198,2.3143,2.3454,2.4125,2.374,2.3499,2.3318,2.2705,2.2393,2.232,2.2586,2.2393,0.0,0.0,0.0,0.0,0.0,2.2006,2.2199,2.2236,2.2248,0.0,0.0,0.0,2.2296,2.2296,2.1414,2.1057,2.3892,2.339,2.2838,2.6036,2.2548,1.8786,2.0559,2.0835,2.017,1.8115,1.8376,1.8799,1.8398,1.8179,1.8023,1.7914,1.8023,1.8145,1.8179,1.8287,1.8355,1.8375,1.8355,1.8355,1.8355,1.8355,1.8287,1.8158,1.8111,1.8036,1.7935,1.7956,1.7846,1.7683,1.7649,1.7568,1.7507,1.7548,1.7609,1.7629,1.7812,1.7779,1.748,1.7521,1.748,1.7385,1.7249,1.7114,1.6992,1.7175,1.7229,1.7209,1.7405,1.7494,1.7595,1.7615,1.7758,1.7915,0.0,0.0,0.0,0.0,0.0,0.0,0.0,0.0,0.0,0.0,0.0,0.0,0.0,0.0,0.0,1.9401,1.9401,1.9397,1.941,1.9946,2.0598,2.1364,2.1548,2.1611,2.1622,2.1311,2.1213,2.1281,2.1438,2.2235,2.3631,2.3695,2.4057,2.462,2.4089,2.3692,2.3366,2.2754,2.2514,2.2502,2.232,2.2199,0.0,0.0,0.0,0.0,0.0,2.1631,2.1861,2.1861,2.1958,2.2079,2.2079,0.0,0.0,0.0,2.202,2.223,2.3697,2.3783,2.3493,2.3503,2.1291,1.9113,1.8989,1.8962,1.8773,1.7793,1.7805,1.8036,1.8057,1.8002,1.7968,1.7989,1.8024,1.8023,1.8199,1.8199,1.8199,1.8199,1.8267,1.8287,1.8199,1.8199,1.8158,1.8091,1.8002,1.7935,1.7915,1.7915,1.7792,1.7595,1.7514,1.7433,1.7419,1.7405,1.7439,1.7467,1.767,1.767,1.7494,1.7473,1.7392,1.7175,1.7188,1.7114,1.6992,1.7134,1.7148,1.71,1.7331,1.7412,1.7412,1.7534,1.7684,1.7758,0.0,0.0,0.0,0.0,0.0,0.0,0.0,0.0,0.0,0.0,0.0,0.0,0.0,0.0,0.0,0.0,1.9575,1.9706,2.0,2.0361,2.0762,2.1203,2.1529,2.1569,2.1306,2.1243,2.117,2.1099,2.145,2.2464,2.4113,2.4379,2.4969,2.5764,2.4885,2.421,2.3668,2.3116,2.2901,2.284,2.2248,2.2042,2.2066,0.0,2.1667,0.0,0.0,2.1534,2.1716,2.1716,2.1849,2.2006,2.2006,2.2139,0.0,0.0,0.0,2.3139,2.3829,2.3959,2.3404,2.1401,2.0507,1.9629,1.7729,1.7338,1.7405,1.7507,1.7568,1.7649,1.7936,1.797,1.8004,1.8077,1.8002,1.7989,1.8179,1.8111,1.8002,1.7935,1.8057,1.8111,1.7982,1.7982,1.7989,1.8036,1.7935,1.7915,1.7915,1.7826,1.7738,1.7541,1.7439,1.7344,1.7311,1.7229,1.727,1.7419,1.748,1.7514,1.7473,1.7453,1.7263,1.6985,1.7093,1.706,1.6931,1.7039,1.7019,1.6951,1.7209,1.7263,1.7222,1.744,1.7561,1.7615,0.0,0.0,0.0,0.0,0.0,0.0,0.0,0.0,0.0,0.0,0.0,0.0,0.0,0.0,1.9773,1.9773,1.9997,2.0321,2.0646,2.0401,2.0641,2.1529,2.1253,0.0,2.1293,2.1243,2.117,2.1099,2.1631,2.2923,2.4945,2.521,2.6283,2.7956,2.6126,2.5029,2.4475,2.3704,2.3366,2.3306,2.2561,2.1994,2.1607,2.2079,2.2103,2.1921,2.2151,2.2248,2.226,2.226,2.2272,2.2284,2.2284,2.2284,2.2296,0.0,0.0,0.0,2.4531,2.3607,2.2176,2.1961,2.0554,1.8776,1.7367,1.7107,1.7249,1.7399,1.7494,1.7683,1.8023,1.8077,1.8077,1.8091,1.8091,1.8036,1.7956,1.7936,1.7772,1.7487,1.7534,1.7629,1.7615,1.7615,1.7717,1.7915,1.7915,1.7915,1.7915,1.7738,1.7534,1.7385,1.7283,1.7141,1.7005,1.7127,1.727,1.7419,1.7433,1.7358,1.7222,1.7358,1.7263,1.6978,1.6985,1.6904,1.6709,1.6716,1.6716,1.673,1.6937,1.708,1.7209,1.7372,1.7467,1.7615,0.0,0.0,0.0,0.0,0.0,0.0,0.0,0.0,0.0,0.0,0.0,0.0,0.0,1.98,1.988,2.0037,2.0144,2.025,2.0388,2.0468,2.0655,2.1007,2.1168,2.12,2.1039,2.1155,2.1096,2.0845,2.1389,2.2393,2.382,2.4552,2.5415,2.6367,2.5861,2.5535,2.527,2.3969,2.3318,2.314,2.255,2.2284,2.2248,2.2103,2.2296,2.2611,2.2199,2.226,2.2502,2.2163,2.2163,2.2296,2.2296,2.2296,2.2296,2.2296,2.249,2.2961,2.415,2.3188,2.2025,2.2856,2.2009,2.0479,1.8757,1.8758,1.8843,1.7633,1.7467,1.7595,1.7901,1.7948,1.8002,1.8213,1.8077,1.7935,1.7915,1.7792,1.765,1.7446,1.7412,1.7446,1.7446,1.7446,1.7528,1.7575,1.7582,1.7582,1.7582,1.7528,1.7433,1.7277,1.7222,1.7121,1.6985,1.7121,1.7175,1.7141,1.7229,1.7243,1.7188,1.7154,1.7127,1.7107,1.6917,1.6856,1.6904,1.6998,1.7032,1.7039,1.7093,1.7148,1.7202,1.7256,1.7311,1.7378,0.0,0.0,0.0,0.0,0.0,0.0,0.0,0.0,0.0,0.0,0.0,0.0,0.0,0.0,2.0214,2.0477,2.049,2.049,2.049,2.0708,2.0869,2.0993,2.1168,2.1251,2.1166,2.1293,2.1182,2.0833,2.1377,2.2187,2.32,2.4082,2.4933,2.5788,2.5511,2.5584,2.5837,2.4692,2.4005,2.3699,2.2947,2.2766,2.2899,2.273,2.2935,2.33,2.2923,2.2911,2.2983,2.2549,2.2441,2.2429,2.2429,2.2369,2.2284,2.2199,2.2357,2.2695,2.3273,2.2832,2.2375,2.3204,2.2794,2.1668,1.9775,1.9656,1.9402,1.7551,1.7317,1.7514,1.7868,1.7915,1.7948,1.8199,1.8077,1.7956,1.7812,1.7704,1.75,1.7304,1.7317,1.7344,1.7344,1.7344,1.7365,1.7419,1.7419,1.7419,1.7419,1.7372,1.7277,1.7127,1.7121,1.7073,1.6985,1.7073,1.7073,1.6985,1.7073,1.7121,1.7121,1.7026,1.7032,1.7114,1.691,1.691,1.7053,1.71,1.7182,1.7263,1.7209,1.7195,1.7195,1.7195,1.7195,1.7216,0.0,0.0,0.0,0.0,0.0,0.0,0.0,0.0,0.0,0.0,0.0,0.0,0.0,0.0,0.0,2.1136,2.1162,2.1149,2.1136,2.1136,2.1269,2.1582,2.1253,2.1251,2.17,2.1642,2.1428,2.1099,2.1619,2.238,2.3366,2.3897,2.4981,2.6451,2.5162,2.515,2.6146,2.5825,2.5439,2.4909,2.3848,2.3439,2.3511,2.4005,2.4053,2.3933,2.4415,2.427,2.3812,2.3535,2.314,2.2731,2.2707,2.2514,2.2248,2.1982,2.2091,2.2236,0.0,0.0,0.0,2.2956,2.2721,2.207,2.0213,1.9464,1.8703,1.7034,1.7041,1.7487,1.7847,1.7915,1.7914,1.8057,1.8077,1.7968,1.7629,1.7575,1.7419,1.7032,1.71,1.7182,1.7182,1.7182,1.7249,1.7399,1.7405,1.7399,1.7399,1.7263,1.7121,1.6985,1.6978,1.6978,1.6978,1.6978,1.6978,1.6978,1.6978,1.6978,1.6978,1.6978,1.6978,1.6978,1.6978,1.706,1.7182,1.7046,1.7161,1.7399,1.7256,1.7195,1.7195,1.7188,1.7182,1.7209,0.0,0.0,0.0,0.0,0.0,0.0,0.0,0.0,0.0,0.0,0.0,0.0,0.0,0.0,0.0,2.2398,2.2412,2.2224,2.1764,2.175,2.1777,2.189,2.174,2.1685,2.1712,2.1455,2.1243,2.1099,2.1244,2.1571,2.2042,2.2561,2.3357,2.4306,2.4499,2.4644,2.4704,2.4094,2.4287,2.4909,2.3848,2.3872,2.4535,2.4294,2.4632,2.521,2.4969,2.4921,2.4885,2.4415,2.4041,2.3695,2.3155,2.2659,0.0,2.1982,2.2091,2.2236,2.1982,0.0,0.0,0.0,0.0,0.0,2.0648,2.0127,1.9552,1.7061,1.6686,1.6965,1.7589,1.7792,1.7936,1.797,1.7846,1.7649,1.7453,1.7392,1.7236,1.7005,1.7019,1.7039,1.7039,1.7039,1.706,1.71,1.6998,1.6885,1.6885,1.6844,1.6904,1.6978,1.6978,1.6978,1.6978,1.6978,1.6978,1.6978,1.6978,1.6978,1.6978,1.6978,1.6978,1.6978,1.6978,1.706,1.7195,1.727,1.7283,1.7263,1.7331,1.729,1.7182,1.708,1.7039,1.7046,0.0,0.0,0.0,0.0,0.0,2.1943,2.1737,0.0,0.0,0.0,0.0,0.0,0.0,0.0,0.0,0.0,2.3201,2.2974,2.2218,2.2318,2.2298,2.2178,2.2108,2.2087,2.2068,2.1984,2.1717,2.1268,2.1556,2.1606,2.1486,2.2054,2.255,2.2983,2.355,2.384,2.3824,2.3215,2.3687,2.48,2.4523,2.4836,2.5499,2.5511,2.5909,2.6484,2.6355,2.6343,2.6283,2.5644,2.4945,2.4238,2.3372,2.2949,2.2669,2.2212,0.0,0.0,0.0,0.0,2.3034,2.3716,0.0,0.0,2.1999,2.0865,1.9633,1.7607,1.6749,1.651,1.702,1.7399,1.7636,1.7636,1.7514,1.7446,1.7426,1.729,1.7141,1.6998,1.6978,1.6978,1.6978,1.6978,1.6978,1.6978,1.6897,1.6842,1.6842,1.6842,1.689,1.6978,1.6978,1.6978,1.6978,1.6978,1.6978,1.6978,1.6978,1.6978,1.6978,1.6978,1.6978,1.6978,1.6978,1.7026,1.7114,1.7263,1.7311,1.729,1.7317,1.727,1.7175,1.7032,1.6978,1.6992,0.0,0.0,2.2044,2.2405,2.3193,2.3817,2.3843,2.4062,0.0,0.0,0.0,0.0,0.0,0.0,0.0,0.0,2.3808,2.3527,2.2632,2.2792,2.2792,2.2491,2.2424,2.2462,2.265,2.2806,2.2443,2.1559,2.2129,2.2068,2.1522,2.1994,2.2224,2.2272,2.2526,2.2874,2.3258,2.2971,2.349,2.4571,2.5379,2.5945,2.6435,2.7148,2.7473,2.7618,2.8041,2.8053,2.7739,2.6909,2.5764,2.454,2.3614,2.3357,2.327,2.2598,2.2744,0.0,0.0,0.0,0.0,2.4263,2.3993,0.0,2.3425,2.1531,1.951,1.8512,1.7206,1.6326,1.6614,1.6878,1.7066,1.7066,1.7093,1.7182,1.7372,1.7263,1.7127,1.7019,1.6992,1.6985,1.7005,1.6992,1.6978,1.6978,1.6965,1.6944,1.6931,1.6931,1.6937,1.6951,1.6958,1.6965,1.6978,1.6978,1.6978,1.6978,1.6978,1.6978,1.6978,1.6978,1.6978,1.6978,1.6978,1.6978,1.6992,1.71,1.7236,1.7358,1.7243,1.7182,1.7154,1.7026,1.6978,1.7005,0.0,2.1395,2.1917,2.2679,2.3362,2.3884,2.4088,2.4369,2.4569,2.4673,2.485,0.0,0.0,0.0,0.0,0.0,2.5101,2.4486,2.3567,2.334,2.3172,2.3118,2.2845,2.2759,2.2906,2.2488,2.2126,2.1837,2.174,2.1643,2.1486,2.1619,2.1776,2.1994,2.226,2.2429,2.2598,2.3514,2.3909,2.4029,2.4836,2.5957,2.7162,2.7365,2.7777,2.8367,2.8246,2.8174,2.8005,2.7174,2.6162,2.5162,2.4752,2.4065,2.3342,2.3034,2.3116,2.321,2.2695,2.308,2.3643,2.3643,2.4005,0.0,2.2017,2.1567,2.1057,1.9438,1.8055,1.7289,1.7764,1.7006,1.63,1.63,1.6497,1.6788,1.7182,1.7114,1.7053,1.7141,1.7053,1.7026,1.7141,1.7046,1.6978,1.6978,1.6863,1.6689,1.6619,1.6612,1.6666,1.6736,1.6743,1.6856,1.6978,1.6978,1.6978,1.6978,1.6978,1.6978,1.6978,1.6978,1.6978,1.6978,1.6978,1.6978,1.6971,1.6876,1.6924,1.7073,1.7161,1.7121,1.7019,1.6992,1.6978,1.7005,0.0,2.193,2.2519,2.3415,2.4142,2.4836,2.5424,2.56,2.5732,2.5732,2.5985,2.6226,2.6373,0.0,0.0,0.0,0.0,0.0,0.0,2.3928,2.3701,2.3554,2.3497,2.3487,2.3492,2.3205,2.2839,2.2399,2.2264,2.202,2.1716,2.1849,2.1837,2.1728,2.2127,2.2296,2.2357,2.3288,2.3876,2.4294,2.5511,2.6548,2.7486,2.8017,2.8548,2.8994,2.885,2.8717,2.8463,2.7534,2.6909,2.6415,2.5487,2.5005,2.4656,2.4033,2.3925,2.3884,2.3393,2.3635,2.4065,2.433,2.4294,0.0,0.0,2.2192,2.1133,2.0941,1.9303,1.8198,1.9003,1.8477,1.7725,1.7039,1.7196,1.7142,1.6483,1.6741,1.7005,1.708,1.7026,1.7012,1.708,1.7026,1.6978,1.6978,1.6784,1.6662,1.6588,1.6564,1.6506,1.6581,1.6655,1.6736,1.6863,1.6944,1.6978,1.6978,1.6978,1.6978,1.6978,1.6978,1.6978,1.6978,1.6978,1.6937,1.6863,1.6863,1.6863,1.687,1.6944,1.6931,1.6876,1.6951,1.6978,1.7012,2.1957,2.2452,2.3094,2.3968,2.489,2.5785,2.6613,2.6881,2.6907,2.6667,2.6894,2.6987,2.676,2.7094,2.7269,2.6921,0.0,0.0,2.5039,2.4529,2.4102,2.3897,2.4075,2.4123,2.3883,2.397,2.36,2.2781,2.2856,2.2559,2.1994,2.2199,2.2103,2.1752,2.2127,2.2381,2.2524,2.3034,2.3816,2.4873,2.6439,2.7126,2.7343,2.8451,2.9019,2.9272,2.9369,2.9272,2.8946,2.798,2.7727,2.7582,2.6198,2.5921,2.5945,2.5126,2.4849,2.4716,2.4234,2.4415,2.4824,2.5222,2.4897,2.4595,0.0,0.0,0.0,2.2494,2.0783,1.9351,2.02,1.9955,1.924,1.8197,1.8308,1.7876,1.6168,1.6735,1.7162,1.6895,1.6829,1.6856,1.6971,1.6904,1.6876,1.6931,1.6741,1.6581,1.6615,1.6493,1.6483,1.6483,1.6574,1.6669,1.6696,1.6904,1.6978,1.6978,1.6978,1.6978,1.6978,1.6978,1.6978,1.6978,1.6978,1.6897,1.6709,1.6883,1.6842,1.6662,1.6716,1.6743,1.6757,1.6937,1.6998,1.706,2.1957,2.2245,2.2752,2.3696,2.4756,2.5718,2.6346,2.7094,2.7589,2.7549,2.7844,2.8018,2.7991,2.7804,2.7949,2.8628,2.7001,2.6131,2.6507,2.509,2.4195,2.4155,2.4182,2.3977,2.3475,2.3822,2.3451,2.2371,2.2744,2.2694,2.226,2.2284,2.2393,2.255,2.2381,2.2657,2.3294,2.3595,2.433,2.5415,2.6789,2.7066,2.6801,2.7896,2.8463,2.8777,2.9236,2.9381,2.9272,2.8681,2.8186,2.7739,2.7329,2.6536,2.5849,2.5957,2.5825,2.5584,2.5294,2.5921,2.6403,2.5318,2.6017,2.6451,2.4439,0.0,2.4544,2.3515,0.0,2.1209,2.1305,0.0,0.0,1.8952,1.9303,1.898,1.744,1.7781,1.7788,1.6536,1.6266,1.6395,1.6931,1.6619,1.6497,1.6702,1.6388,1.6218,1.6354,1.6341,1.6334,1.6334,1.6469,1.656,1.6696,1.6904,1.6978,1.6978,1.6978,1.6978,1.6978,1.6978,1.6978,1.6978,1.6978,1.6897,1.6702,1.6716,1.6635,1.6571,1.6849,1.6951,1.6958,1.6971,1.706,1.7195,2.2151,2.2338,2.2752,2.3834,2.4716,2.5571,2.6493,2.7388,2.8058,2.8203,2.8219,2.8446,2.9098,2.8751,2.8698,2.9245,2.8072,2.7229,2.7081,2.6066,0.0,2.5478,2.5342,2.5126,2.4902,2.4273,2.3693,2.3242,2.3005,2.2819,2.2632,2.2632,2.2767,2.2987,2.2846,2.3164,2.3884,2.415,2.4692,2.5487,2.6512,2.6789,2.6777,2.8487,2.92,2.9308,2.9381,2.9405,2.9296,2.8608,2.8439,2.8379,2.7655,2.722,2.6906,2.6524,2.6222,2.5957,2.5692,2.6054,2.6415,2.6029,2.6198,2.615,2.4993,2.4595,2.4354,2.3945,0.0,0.0,0.0,0.0,0.0,0.0,2.0704,2.0267,1.8625,1.7876,1.7103,1.6028,1.5866,1.5961,1.6343,1.6157,1.6096,1.6218,1.5981,1.5886,1.6035,1.6092,1.6083,1.6178,1.632,1.6429,1.6497,1.6727,1.6849,1.6849,1.6937,1.6978,1.6978,1.6978,1.6978,1.6978,1.6978,1.6842,1.6574,1.6662,1.6608,1.6544,1.6761,1.6849,1.6856,1.6944,1.7073,1.7216,2.2298,0.0,2.2752,2.3781,2.4583,2.5531,2.6854,2.7615,2.8205,2.8551,2.8417,2.8741,2.9793,2.9495,2.9526,3.0154,2.9276,2.8486,2.8016,2.7215,2.664,2.64,2.6225,2.5999,2.5722,2.4801,2.4136,2.3744,2.3403,2.3229,2.3267,2.308,2.3228,2.3672,2.3553,2.3925,2.4656,2.5065,2.5596,2.621,2.6945,2.7379,2.7717,2.9079,2.9719,2.9888,2.9695,2.9574,2.9417,2.8837,2.8753,2.8801,2.8162,2.7944,2.7799,2.7186,2.6873,2.6689,2.6307,2.6508,2.6737,2.662,2.6295,2.5885,2.5403,2.474,2.427,2.4391,2.4106,0.0,0.0,0.0,2.3407,2.2494,0.0,2.1785,2.0113,1.8468,1.7121,1.6058,1.5684,1.5615,1.5772,1.5745,1.5738,1.5779,1.552,1.5472,1.5711,1.5799,1.5845,1.5954,1.6191,1.6307,1.6307,1.6554,1.6696,1.6702,1.6904,1.6978,1.6978,1.6978,1.6978,1.6978,1.6978,1.6809,1.653,1.6635,1.6588,1.6476,1.6574,1.6635,1.6662,1.691,1.7073,1.7216,2.2298,2.2385,2.2619,2.3212,2.4315,2.5665,2.7402,2.7696,2.7923,2.8524,2.8604,2.8925,2.982,2.99,3.0461,3.1891,3.0702,2.9847,2.9833,2.847,2.7281,2.6426,2.6386,2.591,2.4956,2.5275,2.4757,2.3427,2.3785,2.4056,2.4252,2.3516,2.3771,2.4851,2.462,2.4981,2.5788,2.6572,2.7401,2.8162,2.8717,2.9405,3.002,2.9308,2.9526,3.0202,3.0189,3.002,2.9779,2.9755,2.9248,2.8717,2.9188,2.8813,2.8186,2.8162,2.8149,2.8029,2.751,2.7751,2.7896,2.6849,2.6584,2.6295,2.5258,2.5186,2.527,2.5029,2.5367,2.562,2.5403,2.4909,2.4559,0.0,2.4285,0.0,0.0,2.0163,1.8403,1.702,1.5981,1.5418,1.5425,1.5289,1.5262,1.5411,1.4971,1.485,1.5187,1.5486,1.56,1.5607,1.6083,1.6307,1.6307,1.6554,1.6696,1.6702,1.6904,1.6978,1.6978,1.6978,1.6978,1.6978,1.6978,1.6809,1.653,1.6635,1.6527,1.6334,1.6476,1.653,1.6564,1.687,1.7073,1.7216,2.2865,2.318,2.3313,2.3292,2.3981,2.509,2.6854,2.7615,2.846,2.965,2.9766,3.0474,3.2345,3.2358,3.2519,3.3227,3.2291,3.141,3.0822,2.9766,2.9032,2.8738,2.8163,2.7627,2.7105,2.6585,2.5767,2.4739,2.4854,2.4958,2.5024,2.4265,2.4657,2.5993,2.5042,2.5434,2.6785,2.7118,2.7546,2.8005,2.8729,2.9598,3.0431,2.9984,2.9864,2.9912,2.9743,2.9501,2.9272,2.9272,2.8982,2.8608,2.8825,2.8705,2.8439,2.8258,2.8331,2.8439,2.8223,2.8475,2.8487,2.7425,2.6981,2.6524,2.5282,2.5343,2.5475,2.4849,2.5427,2.5909,2.5475,2.5246,0.0,0.0,0.0,2.4209,0.0,2.1565,1.9682,1.8268,1.7084,1.6461,1.6659,1.535,1.455,1.4794,1.4356,1.4275,1.4719,1.493,1.5134,1.5479,1.5688,1.5961,1.6157,1.6361,1.6503,1.6547,1.6754,1.6883,1.6978,1.6978,1.6978,1.6978,1.6978,1.6809,1.6524,1.6527,1.6483,1.6313,1.6361,1.6503,1.6635,1.6736,1.6985,1.7243,2.3665,2.3861,2.3901,2.3772,2.4369,2.5317,2.676,2.7951,2.9115,3.04,3.0922,3.1925,3.3828,3.3855,3.3855,3.4175,3.3718,3.2875,3.161,3.1102,3.0621,3.01,2.9539,2.8991,2.8513,2.783,2.6992,2.5911,2.6017,2.599,2.5818,2.5059,2.5378,2.6494,2.5576,2.5939,2.7348,2.7779,2.8137,2.8439,2.9151,2.9851,3.0455,3.0286,3.0165,3.0033,2.967,2.9381,2.9151,2.9151,2.8922,2.8669,2.8958,2.897,2.8862,2.8681,2.8825,2.9006,2.8813,2.8886,2.8825,2.7994,2.7536,2.7018,2.6066,2.6114,2.6198,2.568,2.617,2.63,2.5329,2.5441,0.0,0.0,0.0,0.0,0.0,2.2305,2.1315,1.9822,1.791,1.6784,1.7048,1.5264,1.4082,1.4116,1.3856,1.3822,1.4102,1.4462,1.4841,1.5242,1.5506,1.5778,1.6076,1.6232,1.6381,1.6524,1.6621,1.6829,1.6978,1.6978,1.6978,1.6978,1.6978,1.6809,1.6524,1.6524,1.6402,1.6232,1.6232,1.6381,1.6554,1.6662,1.6885,1.7249,2.4572,2.4439,2.4409,2.4679,2.5464,2.6346,2.7175,2.8593,2.9847,3.0755,3.1965,3.3169,3.4336,3.4442,3.4549,3.4843,3.4882,3.4068,3.2345,3.2514,3.2032,3.0614,3.052,3.0047,2.9161,2.9095,2.8348,2.6907,2.7188,2.7103,2.6639,2.5865,2.5855,2.6456,2.6302,2.6628,2.7397,2.8521,2.9175,2.9489,3.0008,3.0226,3.0238,3.0226,3.0383,3.0539,2.9984,2.9622,2.9405,2.9405,2.9067,2.8789,2.9538,2.961,2.9429,2.9429,2.961,2.9707,2.9212,2.9067,2.9006,2.8729,2.8258,2.7775,2.7498,2.7473,2.7451,2.7277,2.7301,2.6782,2.5025,2.5423,0.0,0.0,0.0,0.0,2.1083,2.2467,2.318,2.1666,1.844,1.6525,1.6959,1.5284,1.398,1.3555,1.3554,1.3526,1.3397,1.4075,1.4618,1.495,1.5384,1.5764,1.6076,1.6225,1.6374,1.6524,1.6615,1.6822,1.6978,1.6978,1.6978,1.6978,1.6978,1.6809,1.6524,1.6524,1.6347,1.6083,1.6083,1.6185,1.6368,1.6615,1.6905,1.7256,2.4997,2.5438,2.5985,2.6507,2.6814,2.7041,2.7269,2.8941,3.0654,3.1979,3.332,3.4803,3.6433,3.6206,3.6059,3.6353,3.5778,3.503,3.4135,3.3798,3.3267,3.2652,3.1998,3.1543,3.1316,3.0461,2.9619,2.8804,2.8245,2.7761,2.7382,2.6352,2.6416,2.732,2.6549,2.6817,2.7844,2.8663,2.9393,3.002,3.0165,3.0334,3.0491,3.0286,3.0383,3.0539,2.9984,2.9622,2.9405,2.9405,2.932,2.9236,2.9441,2.9598,2.9695,2.9695,2.9888,3.0081,2.9948,2.9912,2.9791,2.932,2.8801,2.8294,2.7824,2.8174,2.8009,2.5831,2.6042,2.6122,2.4646,2.4267,2.4319,2.4635,0.0,0.0,2.2324,2.2632,2.2949,2.2898,1.9572,1.8192,2.0615,1.7546,1.5365,1.5316,1.3848,1.2997,1.322,1.3627,1.4099,1.478,1.5126,1.5554,1.6076,1.6123,1.6266,1.6524,1.6513,1.672,1.6978,1.6978,1.6978,1.6978,1.6978,1.6809,1.6524,1.6524,1.6347,1.6083,1.6083,1.6307,1.6621,1.6971,1.727,1.75,2.5879,2.6667,2.7375,2.7442,2.8245,2.8724,2.847,2.9419,3.0742,3.2393,3.3841,3.5191,3.6299,3.6834,3.7088,3.7128,3.6525,3.5899,3.5191,3.483,3.4456,3.4015,3.34,3.2946,3.2679,3.1831,3.0828,2.9673,2.9165,2.8478,2.7603,2.6815,2.6698,2.7177,2.6478,2.681,2.7989,2.8884,2.9675,3.0214,3.0214,3.0298,0.0,3.0274,3.031,3.0395,3.0093,2.9803,2.9562,2.9441,2.9405,2.9429,2.9538,2.9682,2.9815,2.9948,3.0093,3.0214,3.0214,3.0214,3.0141,2.9839,2.9538,2.8954,2.7555,2.8336,2.829,2.4631,2.4998,2.5408,2.3686,2.3442,2.382,2.4716,2.427,2.3523,2.2804,2.2889,2.3116,2.3378,2.1665,2.1184,2.2962,1.78,1.4693,1.5457,1.3844,1.282,1.2826,1.3444,1.4014,1.4434,1.4991,1.5506,1.603,1.6117,1.6293,1.6524,1.6524,1.668,1.6978,1.6978,1.6978,1.6978,1.6978,1.6809,1.6524,1.6524,1.6347,1.6096,1.6225,1.651,1.6883,1.7182,1.7399,1.7527,2.6894,2.7843,2.843,2.7856,2.9446,3.0688,3.0368,3.0448,3.1142,3.2848,3.432,3.5284,3.5618,3.6941,3.7742,3.7529,3.7195,3.6647,3.5805,3.5765,3.5498,3.5016,3.4616,3.4162,3.3601,3.2955,3.1764,3.0034,2.9873,2.896,2.7388,2.7057,2.6809,2.6587,2.6331,2.6818,2.8011,2.9043,2.9726,3.0165,3.0202,3.0214,3.0214,3.0214,3.0214,3.0214,3.0214,3.0057,2.9815,2.9586,2.9513,2.955,2.9779,2.9851,2.99,3.0141,3.0214,3.0214,3.0214,3.0214,3.0214,3.0214,2.996,2.928,2.7408,2.8042,2.7946,2.4144,2.4355,2.4705,2.2945,2.3251,2.3875,2.4151,2.3969,2.3559,2.2949,2.3137,2.3439,2.3511,2.3688,0.0,2.4138,1.7792,1.4206,1.5514,1.4381,1.3336,1.2682,1.37,1.4274,1.4139,1.4936,1.554,1.5928,1.6144,1.6374,1.6551,1.653,1.668,1.6978,1.6978,1.6971,1.6951,1.6971,1.6795,1.6497,1.6517,1.6361,1.6144,1.6435,1.6741,1.7039,1.7317,1.7446,1.7514,2.7413,2.8123,2.8497,2.8165,2.9624,3.1169,3.2278,3.328,3.4282,3.5377,3.6513,3.7489,3.8036,3.7929,3.7889,3.8133,3.7595,3.7128,3.6727,3.6473,3.6206,3.5912,3.5324,3.4883,3.4588,3.3276,3.1965,3.0635,2.9673,2.8372,2.6892,2.6528,2.6475,2.6773,2.6636,2.736,2.8697,2.8517,2.9031,2.9888,3.0117,3.0214,3.0214,3.0214,3.0214,3.0214,3.0214,3.0189,3.0129,3.0093,3.0069,3.0081,3.0129,3.0141,3.0153,3.0202,3.0214,3.0214,3.0214,3.0214,3.0214,3.0214,2.8818,2.7816,2.9229,2.7187,2.5282,2.614,2.4992,2.4016,2.4758,2.5165,2.5149,2.4338,2.3969,2.3752,2.3619,2.3487,2.3571,2.4005,2.2688,2.2282,2.3728,2.1424,1.9739,1.9454,1.7893,1.6233,1.4528,1.5135,1.5128,1.4289,1.4889,1.5486,1.6035,1.6096,1.632,1.6655,1.6527,1.668,1.6978,1.6978,1.691,1.6743,1.6924,1.6741,1.6354,1.6476,1.6422,1.63,1.654,1.689,1.7175,1.7358,1.7575,1.7847,2.8079,2.8413,2.8718,2.9299,3.0584,3.2089,3.3648,3.5139,3.6059,3.5872,3.6473,3.7088,3.7529,3.7996,3.8397,3.8691,3.8183,3.7782,3.7635,3.7195,3.6777,3.6355,3.5884,3.5338,3.457,3.3689,3.2438,3.0795,2.9913,2.8657,2.7041,2.6546,2.6401,2.6587,2.6609,2.739,2.8674,2.8622,2.9104,3.0045,3.0455,3.0539,3.0419,3.0419,3.0334,3.0214,3.0214,3.0214,3.0214,3.0214,3.0214,3.0214,3.0214,3.0214,3.0214,3.0214,3.0214,2.996,2.8818,2.9338,2.9909,2.8767,2.8552,2.8603,2.8501,2.7965,2.7001,2.5582,2.5185,2.512,2.5093,2.5834,2.615,2.5355,2.4885,2.4583,2.4451,2.4318,2.4234,2.4198,2.3469,2.3178,2.3732,2.3224,2.1787,1.9142,1.8309,1.6626,1.3694,1.5071,1.5318,1.3982,1.4753,1.5398,1.5845,1.6157,1.6415,1.6581,1.6588,1.6662,1.6863,1.6944,1.6897,1.6702,1.6777,1.6693,1.6422,1.649,1.6479,1.6506,1.6781,1.7053,1.7331,1.7426,1.7629,1.7758,2.8635,2.8815,2.9236,3.06,3.1858,3.3148,3.4617,3.6252,3.6976,3.6254,3.6417,3.6754,3.6992,3.7936,3.8637,3.8993,3.8522,3.8202,3.8321,3.7782,3.7168,3.654,3.6143,3.5416,3.4306,3.3924,3.2767,3.0795,3.0207,2.8978,2.7202,2.664,2.6386,2.6426,2.6805,2.7615,2.8653,2.8914,2.953,3.0402,3.0772,3.0793,3.0612,3.0672,3.0491,3.0226,3.0274,3.0262,3.0214,3.0214,3.0214,3.0214,3.0214,3.0214,3.0214,3.0214,2.9858,2.9123,2.7367,2.7827,2.8501,2.7203,2.7878,2.8603,2.7776,2.8393,2.8318,2.5584,2.6245,2.6992,2.5674,2.648,2.709,2.6379,2.5969,2.562,2.5294,2.5306,2.5138,2.4595,2.4668,2.4487,2.3788,2.3909,2.2378,1.8347,1.8628,1.737,1.3686,1.5393,1.5594,1.3669,1.4638,1.5343,1.5683,1.6212,1.6524,1.6619,1.6655,1.6716,1.675,1.6924,1.6897,1.6696,1.6696,1.6615,1.6524,1.6524,1.6581,1.6763,1.6965,1.7209,1.7487,1.7548,1.7615,1.7704,2.9001,2.9585,3.0351,3.1721,3.2892,3.4053,3.5264,3.6222,3.7128,3.7853,3.8263,3.8584,3.8806,3.8274,3.8137,3.87,3.8169,3.7966,3.829,3.7956,3.7393,3.654,3.5717,3.4986,3.4306,3.3511,3.2324,3.0795,3.0207,2.8871,2.6854,2.6533,2.6386,2.6466,2.7659,2.8525,2.9054,2.9281,2.9946,3.0884,3.0732,3.0624,3.0636,3.0865,3.0648,3.025,3.0491,3.0419,3.0214,3.0214,3.0214,3.0214,3.0214,3.0214,3.0214,3.0214,2.8767,2.7152,2.6947,2.5604,2.4669,2.6435,2.5553,2.5194,2.9022,2.6969,2.5265,2.8869,2.9531,2.9156,2.8081,2.8188,2.8018,2.6765,2.6716,2.6656,2.6138,2.6283,2.6246,2.5704,2.5451,2.4824,2.3571,2.3475,2.2358,1.9638,2.1189,2.0791,1.7479,1.7551,1.6441,1.3705,1.4638,1.5438,1.5874,1.6164,1.6537,1.6937,1.6757,1.6822,1.6958,1.6971,1.6897,1.6696,1.6696,1.6615,1.6524,1.6524,1.6693,1.6971,1.7114,1.7358,1.7575,1.7595,1.7738,1.7846,2.7989,2.9207,3.0738,3.2612,3.3051,3.3688,3.5251,3.613,3.6708,3.7022,3.7665,3.8255,3.8532,3.8425,3.8441,3.866,3.8326,3.8167,3.8321,3.7823,3.7287,3.6788,3.6126,3.5309,3.4306,3.3978,3.2964,3.1316,3.0728,2.9566,2.7869,2.7041,2.6934,2.7495,2.8307,2.9015,2.9717,2.9825,3.0206,3.081,3.1199,3.1228,3.1083,3.1191,3.101,3.049,2.9227,2.9462,3.0238,2.8832,2.9149,3.0238,3.0407,3.0455,3.0479,3.0636,2.9947,2.8512,2.5851,2.5398,2.545,2.5029,2.5245,2.6374,2.9491,2.8818,2.8042,2.9858,3.0129,2.9864,2.9272,2.8994,2.8729,2.8355,2.798,2.7715,2.7667,2.7162,2.6632,2.6078,2.5222,2.4403,2.3716,2.3393,2.2919,2.2179,2.2484,2.0829,1.645,1.7187,1.6506,1.3821,1.4421,1.5086,1.5716,1.6198,1.6571,1.6842,1.6876,1.687,1.6842,1.6937,1.6897,1.6696,1.6696,1.6615,1.6544,1.6815,1.6944,1.7012,1.7338,1.7487,1.7609,1.7738,1.7812,1.7915,2.8295,2.9725,3.1401,3.3597,3.3505,3.3746,3.5498,3.5892,3.6029,3.6006,3.6891,3.7659,3.8166,3.8191,3.8298,3.866,3.8344,3.8171,3.8321,3.7782,3.7287,3.6814,3.6165,3.5362,3.4306,3.4149,3.3383,3.1979,3.1423,3.0474,2.9098,2.8177,2.811,2.8888,2.9494,3.018,3.0818,3.097,3.0873,3.067,3.155,3.1395,3.0699,3.127,3.13,3.079,2.9228,2.9521,3.0359,2.7994,2.8659,3.0467,3.0576,3.0612,3.0672,3.101,3.0446,2.9083,2.5931,2.556,2.5789,2.4844,2.5758,2.7469,2.9694,3.0214,3.0189,3.0105,3.0153,3.0129,2.9851,2.9562,2.9357,2.9296,2.8946,2.8632,2.8512,2.7848,2.7123,2.6379,2.5258,2.4318,2.374,2.2898,2.2529,2.2742,2.1894,1.9828,1.639,1.7135,1.6498,1.386,1.4407,1.5052,1.5764,1.6266,1.6619,1.677,1.6931,1.6924,1.677,1.6931,1.6897,1.6696,1.6696,1.6635,1.656,1.6931,1.708,1.7141,1.7406,1.7575,1.7717,1.7826,1.7915,1.7915,3.0637,3.1602,3.2452,3.4678,3.4562,3.467,3.6037,3.5551,3.5125,3.5356,3.6199,3.7178,3.8107,3.7372,3.7354,3.8588,3.8137,3.7934,3.829,3.7969,3.7393,3.654,3.5662,3.4932,3.4306,3.3785,3.3228,3.2581,3.2238,3.149,3.0373,3.002,3.0047,3.0426,3.1557,3.2251,3.2599,3.2915,3.2067,3.0611,3.1741,3.0845,2.9058,3.1047,3.1469,3.1034,3.1288,3.1215,3.0622,2.8289,2.9033,3.0938,3.0684,3.0612,3.0708,3.1228,2.9646,2.769,2.769,2.5887,2.4468,2.6386,2.6896,2.7469,2.9694,3.0214,3.0141,2.9851,3.002,3.0129,2.9851,3.002,2.9948,2.9151,2.9441,2.9405,2.8355,2.8198,2.7799,2.6716,2.5873,2.4861,2.3547,2.184,2.0691,2.0387,1.8986,1.8265,1.8554,1.8154,1.6647,1.3867,1.4706,1.5466,1.6069,1.6374,1.6673,1.6978,1.6978,1.6978,1.6978,1.6978,1.6897,1.6696,1.6696,1.6696,1.6696,1.6702,1.6966,1.7412,1.7419,1.7602,1.7915,1.7915,1.7915,1.7915,2.983,3.1632,3.3198,3.407,3.4236,3.4372,3.48,3.4964,3.4932,3.4607,3.5341,3.6119,3.6654,3.7547,3.8161,3.8437,3.765,3.7219,3.733,3.6926,3.6512,3.6253,3.5954,3.5523,3.494,3.4556,3.4088,3.3504,3.316,3.2412,3.1263,3.1191,3.1424,3.1938,3.2485,3.2915,3.3103,3.1859,3.0784,2.9883,3.0067,2.9709,2.9292,3.1118,3.1698,3.1129,2.8006,2.7771,2.8267,2.4366,2.4484,2.6229,2.6321,2.8701,3.1164,2.9921,3.0002,3.0238,2.8876,2.7536,2.6714,2.7491,2.7433,2.7763,2.9955,3.0346,3.0238,3.0334,3.0274,3.0238,3.0334,3.0274,3.0129,2.9876,2.9972,2.9707,2.8644,2.8174,2.7473,2.6186,2.5331,2.4607,2.4005,2.2149,2.1559,2.2866,2.1208,1.9664,1.8522,1.8401,1.764,1.5981,1.6567,1.6638,1.6126,1.6476,1.6781,1.6978,1.6978,1.6978,1.6978,1.6978,1.6951,1.691,1.691,1.691,1.6917,1.7012,1.708,1.7154,1.7406,1.7568,1.7582,1.7847,1.7935,1.8002,3.0577,3.2223,3.3473,3.3726,3.4016,3.4221,3.4318,3.4704,3.4929,3.4724,3.5342,3.5976,3.627,3.754,3.829,3.8116,3.7469,3.7071,3.7071,3.6637,3.6387,3.6387,3.6216,3.5845,3.5364,3.4963,3.4523,3.4055,3.3748,3.3293,3.2666,3.2574,3.2862,3.345,3.3605,3.3847,3.4019,3.1855,3.0699,3.0286,2.9004,2.8414,2.8307,2.9189,2.935,2.8802,2.5866,2.5615,2.6142,2.2375,2.2557,2.4149,2.2552,2.5439,2.9436,2.8999,2.9741,3.0627,3.0251,2.9692,2.9252,2.9229,2.8861,2.8843,3.0172,3.0334,3.0262,3.0431,3.0334,3.0262,3.0431,3.0322,3.0214,3.0214,3.0129,2.9719,2.8765,2.8065,2.7208,2.5933,2.5343,2.4633,2.352,2.1881,2.1348,2.2446,2.1028,1.976,1.8931,1.9673,1.9189,1.7178,1.784,1.7553,1.6239,1.6527,1.6777,1.6978,1.6978,1.6978,1.6978,1.6978,1.6978,1.6978,1.6978,1.6978,1.6985,1.7073,1.7093,1.7093,1.7433,1.7487,1.7541,1.7846,1.8024,1.8002,3.261,3.3275,3.3561,3.3827,3.4139,3.4406,3.4602,3.4927,3.5151,3.5461,3.6014,3.6545,3.6831,3.7373,3.7742,3.7742,3.7459,3.7326,3.7326,3.7019,3.679,3.6777,3.634,3.5899,3.5605,3.507,3.4656,3.4376,3.4095,3.4095,3.4376,3.3877,3.3985,3.4581,3.4529,3.4675,3.4821,3.261,3.1681,3.1415,2.8522,2.7056,2.6505,2.5866,2.5269,2.478,2.4617,2.4563,2.4182,2.1853,2.2655,2.3851,1.9502,2.1406,2.5695,2.8203,2.8894,2.9437,3.1674,3.206,3.171,3.1203,3.0865,3.0588,3.031,3.0238,3.0238,3.0214,3.0214,3.0214,3.0214,3.0061,3.0011,3.0163,2.9809,2.9291,2.8632,2.7767,2.6788,2.5691,2.552,2.4532,2.2204,2.0989,2.0161,1.9821,1.8945,1.8886,1.9899,2.1611,2.1023,1.7664,1.8478,1.8202,1.653,1.6635,1.6784,1.6978,1.6978,1.6978,1.6978,1.6978,1.6978,1.6978,1.6978,1.6978,1.6978,1.6978,1.7066,1.7209,1.7358,1.746,1.7629,1.7968,1.7989,1.7956,3.3733,3.4042,3.424,3.4793,3.5069,3.527,3.5365,3.5572,3.5704,3.5585,3.6114,3.645,3.6301,3.6765,3.7099,3.7099,3.6897,3.6696,3.6696,3.6223,3.583,3.5633,3.5656,3.5605,3.5311,3.5164,3.5057,3.499,3.4696,3.471,3.4924,3.2466,3.1716,3.2405,3.2034,3.2071,3.2492,3.196,3.1681,3.1415,2.8124,2.6721,2.6505,2.5432,2.4943,2.4563,2.2765,2.2118,2.1768,1.9593,1.9308,1.9727,1.8723,1.9433,2.1445,2.5646,2.7958,2.9765,3.2372,3.2616,3.2073,3.1952,3.1553,3.1083,3.0624,3.0515,3.0455,3.0262,3.0214,3.0214,3.0214,2.8818,2.8246,2.9909,2.8376,2.7191,2.7901,2.6387,2.475,2.3556,2.2578,2.1712,2.1025,1.9502,1.9147,2.0437,1.8874,1.9302,2.259,2.2248,2.072,1.7944,1.8672,1.8308,1.6693,1.6849,1.6944,1.6978,1.6978,1.6978,1.6978,1.6978,1.6978,1.6978,1.6978,1.6978,1.6978,1.6978,1.7066,1.7209,1.7358,1.746,1.7615,1.7846,1.7968,1.8023,3.4166,3.4538,3.4855,3.5329,3.5609,3.5774,3.5774,3.6016,3.6124,3.6016,3.6315,3.6492,3.6482,3.6733,3.6817,3.654,3.6656,3.6666,3.6666,3.6376,3.6126,3.5981,3.5897,3.5752,3.5605,3.5338,3.5191,3.5191,3.5044,3.5044,3.5138,3.2356,3.1826,3.3248,3.1853,3.2013,3.3142,3.1041,3.1361,3.2823,2.7531,2.5856,2.6333,2.4336,2.2765,2.1453,2.02,1.9765,1.9674,1.8427,1.8179,1.8366,1.8423,1.864,1.9636,2.3519,2.6187,2.8476,3.097,3.2123,3.2471,3.2109,3.1795,3.1445,3.0902,3.0781,3.0708,3.0443,3.0395,3.0358,3.0238,2.9225,2.8433,2.8456,2.7081,2.5723,2.4955,2.3731,2.2637,2.178,2.1329,2.072,1.9781,1.9038,1.892,1.9746,2.0115,2.0616,2.1348,2.2156,2.1747,1.982,1.9552,1.8559,1.6696,1.6904,1.6978,1.6978,1.6978,1.6978,1.6978,1.6978,1.6978,1.6978,1.6978,1.6978,1.6985,1.7053,1.7121,1.7216,1.7439,1.7521,1.7615,1.7894,1.8024,1.7989,3.4501,3.5035,3.5515,3.5814,3.6057,3.6206,3.6301,3.6372,3.6523,3.6636,3.6587,3.6637,3.6857,3.6885,3.6664,3.6178,3.6595,3.6885,3.6761,3.6845,3.6805,3.6794,3.6286,3.5979,3.5993,3.5458,3.5191,3.5191,3.5191,3.5191,3.5138,3.2823,3.277,3.4544,3.2226,3.2279,3.3896,2.9972,3.0507,3.3407,2.6623,2.4662,2.5556,2.2647,2.005,1.7915,1.7936,1.7989,1.8077,1.8044,1.8233,1.8552,1.8443,1.8599,1.931,2.1584,2.4194,2.6788,2.8935,3.1158,3.2743,3.2036,3.1867,3.1735,3.124,3.1083,3.0986,3.0721,3.066,3.0485,2.9852,2.9499,2.8551,2.6325,2.5296,2.3933,2.1673,2.0992,2.0557,2.0226,2.0481,2.003,1.8496,1.8705,1.8775,1.8457,2.0889,2.1335,1.8929,2.1205,2.2231,2.1533,2.0183,1.858,1.6781,1.6917,1.6978,1.6978,1.6978,1.6978,1.6978,1.6978,1.6978,1.6978,1.6978,1.6992,1.7019,1.7141,1.7222,1.729,1.7494,1.7609,1.7663,1.7968,1.7989,1.7914,3.5707,3.6069,3.6462,3.7032,3.7141,3.7247,3.7499,3.7112,3.6916,3.7187,3.7014,3.6828,3.6885,3.6885,3.6664,3.6178,3.6595,3.6733,3.6263,3.6452,3.6473,3.6219,3.5885,3.5578,3.5338,3.5244,3.5191,3.5191,3.5191,3.5191,3.5138,3.2823,3.1906,3.2119,2.9864,2.906,2.9317,2.8619,2.8393,2.8317,2.4707,2.3084,2.2538,1.9673,1.8302,1.7936,1.8002,1.8077,1.8124,1.8355,1.8565,1.8742,1.885,1.9006,1.9194,1.9622,2.2847,2.674,2.8803,3.0794,3.229,3.2169,3.2133,3.206,3.1759,3.1493,3.1252,3.0986,3.0938,3.0271,2.812,2.6192,2.4694,2.4007,2.1646,2.0294,2.1479,2.0029,1.8806,1.874,1.7844,1.7247,1.7241,1.7141,1.7231,1.7572,1.7559,1.8254,1.9759,1.8536,1.852,2.0163,1.8418,1.7304,1.6944,1.6971,1.6978,1.6978,1.6978,1.6978,1.6978,1.6978,1.6978,1.6978,1.6978,1.7046,1.7161,1.7182,1.7344,1.7527,1.7575,1.7717,1.7881,1.7936,1.7968,1.8036,3.6206,3.6686,3.7208,3.7753,3.7772,3.7676,3.7782,3.7448,3.7155,3.7155,3.7008,3.6885,3.6885,3.6885,3.6664,3.6178,3.6595,3.6664,3.6109,3.6489,3.662,3.6313,3.6032,3.5658,3.5204,3.5191,3.5191,3.5191,3.5191,3.4544,3.3248,3.0934,2.9864,2.9757,2.7444,2.712,2.8199,2.6623,2.6488,2.7021,2.3865,2.2432,2.1912,2.0333,1.8949,1.7936,1.8036,1.8145,1.8233,1.8375,1.8565,1.8762,1.8742,1.885,1.8972,1.8972,2.2434,2.7047,3.0565,3.2158,3.2785,3.2652,3.2628,3.2519,3.2109,3.1916,3.171,3.1288,3.0195,2.8947,2.7645,2.5493,2.3403,2.1867,2.0165,1.8923,1.864,1.77,1.7113,1.7353,1.7076,1.6971,1.7195,1.7154,1.7195,1.7405,1.8268,1.8693,1.855,1.8693,1.8611,1.8373,1.7461,1.6978,1.6978,1.6978,1.6978,1.6978,1.6978,1.6978,1.6978,1.6978,1.6978,1.6978,1.6978,1.706,1.7202,1.7283,1.7446,1.7595,1.7738,1.7812,1.7915,1.7915,1.7914,1.7948,3.6551,3.7101,3.7595,3.7996,3.7929,3.7782,3.7702,3.7448,3.7195,3.6912,3.6885,3.6885,3.6885,3.6885,3.6664,3.6178,3.6595,3.6664,3.6109,3.6608,3.6739,3.6433,3.6059,3.5658,3.5204,3.5191,3.4927,3.4385,3.4385,3.3195,3.0881,2.9113,2.8307,2.8188,2.5713,2.5604,2.711,2.4237,2.3846,2.4961,2.2424,2.1191,2.0937,2.0678,1.9441,1.799,1.8124,1.8267,1.8375,1.8409,1.8565,1.88,1.8674,1.8728,1.8875,1.8875,2.2372,2.7304,3.2108,3.3376,3.334,3.3111,3.3074,3.2954,3.2483,3.2338,3.2193,3.1831,2.9816,2.7845,2.7133,2.487,2.2275,1.9787,1.8923,1.7909,1.6257,1.6037,1.6151,1.653,1.6971,1.7304,1.7406,1.7473,1.7487,1.7521,1.9046,1.9164,1.7356,1.8879,1.8963,1.7085,1.6998,1.6978,1.6978,1.6978,1.6978,1.6978,1.7012,1.7032,1.7032,1.7066,1.708,1.708,1.7046,1.7114,1.7256,1.7372,1.7453,1.7609,1.7812,1.7915,1.7915,1.7915,1.7936,1.7901,3.6857,3.7352,3.7702,3.7489,3.7635,3.7702,3.7448,3.7155,3.6912,3.6885,3.6885,3.6885,3.6885,3.6885,3.6664,3.6178,3.6595,3.6664,3.6109,3.6608,3.6687,3.6126,3.5565,3.5244,3.5191,3.5191,3.4121,3.196,3.196,3.0774,2.8576,2.836,2.8307,2.8188,2.5323,2.4128,2.4128,2.1156,1.959,1.9122,1.9023,1.8548,1.795,1.8239,1.8245,1.8111,1.8389,1.8454,1.8531,1.8674,1.88,1.8841,1.8918,1.8972,1.8972,1.8972,2.2388,2.7184,3.2073,3.3376,3.3376,3.3396,3.3396,3.328,3.3033,3.2779,3.2628,3.2821,3.0633,2.7998,2.5967,2.3134,2.0261,1.7636,1.6827,1.6474,1.6273,1.6388,1.6486,1.6662,1.7074,1.7467,1.7561,1.7575,1.7684,1.7826,1.782,1.7724,1.7412,1.7567,1.7492,1.7182,1.7046,1.6978,1.6978,1.6978,1.6978,1.6985,1.7114,1.7175,1.7182,1.7324,1.7392,1.7378,1.7236,1.7263,1.7405,1.7412,1.7453,1.7609,1.7812,1.7915,1.7915,1.7915,1.8004,1.8036,3.7168,3.7382,3.7569,3.7635,3.7595,3.7529,3.7438,3.7128,3.6885,3.6885,3.6885,3.6885,3.6885,3.6885,3.6817,3.6608,3.6761,3.6817,3.6608,3.6817,3.6687,3.6099,3.5511,3.4544,3.3035,3.3035,3.1906,2.9596,2.9596,2.8403,2.6146,2.6146,2.5387,2.3983,2.2463,2.1794,2.1586,1.98,1.8722,1.8252,1.8072,1.78,1.7473,1.7683,1.7935,1.8111,1.8213,1.8375,1.8474,1.8498,1.8552,1.864,1.8796,1.8909,1.9228,2.0937,2.3808,2.7251,3.0745,3.2547,3.3376,3.3376,3.3376,3.3304,3.305,3.2917,3.2368,3.0785,2.8454,2.5961,2.3502,2.0866,1.8668,1.7457,1.6876,1.6594,1.6829,1.6829,1.6965,1.7392,1.767,1.786,1.7914,1.7935,1.7914,1.7915,1.7812,1.7717,1.7514,1.7473,1.7351,1.7195,1.7229,1.7209,1.7114,1.7209,1.7256,1.7256,1.7311,1.7331,1.7338,1.7392,1.7419,1.7419,1.7358,1.7419,1.75,1.7406,1.7561,1.7772,1.7636,1.7704,1.7902,1.7758,1.7826,1.7914,3.7195,3.7315,3.7422,3.7529,3.7448,3.7342,3.7275,3.7032,3.6885,3.6885,3.6885,3.6885,3.6885,3.6885,3.6595,3.5861,3.5793,3.5459,3.4723,3.4592,3.4668,3.5051,3.4549,3.3161,3.0784,3.0649,2.9531,2.7228,2.7236,2.6043,2.3719,2.3791,2.286,2.1118,2.0505,2.0067,1.9741,1.8818,1.8236,1.7885,1.7759,1.7595,1.7446,1.7649,1.7948,1.8165,1.8213,1.8389,1.8586,1.8498,1.8531,1.864,1.8841,1.8871,1.9583,2.312,2.5337,2.7426,3.0876,3.27,3.363,3.363,3.3569,3.3437,3.3171,3.3111,3.2407,2.9819,2.7317,2.4863,2.2376,1.9715,1.7847,1.7595,1.7222,1.698,1.7236,1.7222,1.7358,1.7868,1.8002,1.8111,1.8158,1.8158,1.8124,1.8023,1.7968,1.786,1.7717,1.7575,1.7446,1.7338,1.748,1.7487,1.7338,1.7392,1.7399,1.7351,1.7446,1.7467,1.7426,1.7521,1.7561,1.7555,1.7514,1.7467,1.7514,1.7467,1.7514,1.7691,1.7534,1.765,1.786,1.7806,1.788,1.7989,3.6885,3.7155,3.7275,3.6981,3.7195,3.7275,3.6981,3.6885,3.6885,3.6885,3.6885,3.6885,3.6885,3.6885,3.5917,3.3496,3.3272,3.2263,2.9887,2.9446,3.0366,3.2764,3.241,3.1041,2.864,2.836,2.712,2.4745,2.4942,2.379,2.1384,2.1579,2.1286,2.045,1.9845,1.9254,1.864,1.8143,1.7684,1.7446,1.7738,1.7684,1.7467,1.7914,1.8179,1.8335,1.8477,1.864,1.882,1.882,1.882,1.8841,1.8938,1.914,2.0226,2.5398,2.6789,2.7805,3.2793,3.4185,3.4185,3.4185,3.3992,3.3726,3.3437,3.3376,3.275,3.0543,2.777,2.5139,2.2998,2.0001,1.7915,1.7915,1.7616,1.7426,1.7426,1.75,1.7704,1.7902,1.8002,1.8158,1.8301,1.8321,1.8321,1.8321,1.8179,1.8023,1.7936,1.7683,1.7595,1.7595,1.7792,1.7792,1.7595,1.7446,1.7344,1.7202,1.7446,1.7514,1.7433,1.7779,1.7915,1.786,1.7663,1.7507,1.7426,1.7419,1.7331,1.7229,1.7473,1.7738,1.7936,1.8036,1.8179,1.8267,3.6366,3.658,3.6727,3.6647,3.6874,3.6992,3.6941,3.6885,3.6885,3.6885,3.6885,3.6885,3.6885,3.5374,3.4079,3.334,3.1735,3.0451,2.9763,2.9652,2.9159,2.8178,2.9139,2.8511,2.5974,2.5851,2.4745,2.2408,2.2476,2.2147,2.1384,2.1449,2.1158,2.045,1.9845,1.9229,1.8532,1.793,1.7534,1.7277,1.7473,1.75,1.746,1.7812,1.8091,1.8321,1.8375,1.8552,1.8786,1.8518,1.8511,1.862,1.8782,2.0363,2.2382,2.3917,2.5701,2.7833,3.1099,3.188,3.2086,3.3547,3.3859,3.3726,3.3437,3.3376,3.2254,2.8156,2.6633,2.4708,2.0487,1.8957,1.8267,1.8057,1.786,1.7772,1.788,1.7846,1.7935,1.8287,1.8375,1.8423,1.8464,1.8464,1.8423,1.8321,1.8287,1.8179,1.8036,1.8091,1.7879,1.7446,1.7846,1.7846,1.744,1.7494,1.75,1.746,1.7548,1.7568,1.7534,1.7772,1.7915,1.7915,1.7868,1.7772,1.7724,1.7507,1.7514,1.7684,1.7304,1.746,1.786,1.7806,1.7893,1.8145,3.6112,3.5524,3.5103,3.5103,3.4492,3.4377,3.5305,3.5459,3.5806,3.6761,3.6885,3.654,3.5583,3.4166,3.2532,3.0598,2.8234,2.7279,2.8234,2.7402,2.6604,2.6016,2.6058,2.5307,2.3687,2.3598,2.2904,2.1545,2.1571,2.146,2.1167,2.1231,2.074,1.975,1.9405,1.8851,1.8231,1.7889,1.7595,1.7385,1.7534,1.7595,1.7623,1.786,1.8145,1.8409,1.8409,1.8552,1.8786,1.8552,1.9183,2.0252,2.1526,2.3155,2.468,2.4809,2.6015,2.7659,2.9169,2.9483,2.9641,3.0797,3.2481,3.3726,3.3437,3.3376,3.2017,2.7098,2.6158,2.4676,1.9647,1.8654,1.8565,1.8389,1.8179,1.8077,1.8165,1.8111,1.8165,1.844,1.8474,1.8552,1.862,1.862,1.8565,1.8409,1.8409,1.8335,1.8199,1.8267,1.8124,1.7704,1.7948,1.7935,1.7602,1.7575,1.7595,1.7595,1.7704,1.7704,1.7595,1.7792,1.7915,1.7915,1.8143,1.8171,1.8095,1.7908,1.7901,1.8025,1.7404,1.7446,1.7902,1.7772,1.7935,1.8179,3.5722,3.4015,3.255,3.255,3.0947,3.044,3.2656,3.2992,3.3763,3.5985,3.6263,3.5404,3.3216,3.2812,3.0902,2.6481,2.3912,2.3469,2.5672,2.3748,2.3441,2.5431,2.3399,2.2131,2.1953,2.179,2.174,2.174,2.1775,2.1438,2.077,2.0854,2.0076,1.8702,1.8702,1.8412,1.7915,1.7902,1.7772,1.7609,1.7792,1.7846,1.786,1.8036,1.8287,1.8511,1.8494,1.8755,1.9161,1.94,2.0883,2.3172,2.5866,2.6862,2.7123,2.7525,2.7659,2.7659,2.7659,2.749,2.7254,2.6987,3.0044,3.3195,3.3159,3.312,3.1736,2.7061,2.6013,2.4516,1.9866,1.8884,1.8841,1.8841,1.8552,1.8375,1.8375,1.8375,1.8423,1.8565,1.8528,1.862,1.882,1.882,1.8708,1.8565,1.8552,1.8498,1.8355,1.8355,1.8287,1.8091,1.8111,1.8036,1.7915,1.7758,1.7615,1.7595,1.7772,1.7772,1.7595,1.7792,1.7922,1.7977,1.8474,1.8665,1.8591,1.8577,1.8491,1.8262,1.7681,1.7643,1.7915,1.7881,1.8023,1.8247,3.2714,3.1138,2.9833,2.9833,2.9751,2.9887,3.0384,3.0508,3.0666,3.1184,3.1274,3.106,3.0564,2.8812,2.7222,2.6196,2.4162,2.3056,2.3423,2.309,2.2965,2.322,2.2686,2.2318,2.2147,2.1961,2.1871,2.1871,2.1319,2.0984,2.077,2.017,1.9478,1.8702,1.8702,1.8412,1.786,1.7738,1.7629,1.7595,1.7629,1.7649,1.7683,1.8124,1.8301,1.8389,1.862,1.9987,2.1905,2.3843,2.4882,2.5425,2.626,2.7966,2.9727,3.0,3.0162,3.0298,3.0298,2.8851,2.7254,2.6987,2.7629,2.8857,3.0562,3.0738,2.9736,2.6989,2.4739,2.2405,1.9538,1.8959,1.8938,1.8938,1.8884,1.885,1.885,1.885,1.8905,1.904,1.8952,1.8905,1.8938,1.883,1.88,1.8766,1.8708,1.864,1.8498,1.8599,1.8498,1.8111,1.8213,1.8145,1.7915,1.7948,1.788,1.7595,1.7629,1.7629,1.7595,1.7792,1.8143,1.853,1.864,1.8949,1.9346,1.9268,1.8947,1.8553,1.8137,1.7933,1.7881,1.7602,1.7704,1.797,3.025,2.8639,2.7312,2.7358,2.6769,2.6633,2.7696,2.7936,2.824,2.9039,2.9226,2.8724,2.7249,2.5959,2.4746,2.3692,2.2947,2.2488,2.2377,2.2775,2.287,2.2594,2.2594,2.2389,2.186,2.178,2.1693,2.1613,2.1149,2.0599,2.0039,1.9541,1.8889,1.8156,1.8281,1.8109,1.7758,1.7758,1.7758,1.7758,1.7758,1.7792,1.7991,1.9478,2.0098,2.0372,2.1761,2.3105,2.4539,2.7004,2.7908,2.8049,2.8261,2.9353,3.0399,2.9447,2.9256,2.904,2.7788,2.6538,2.5277,2.3909,2.4366,2.5769,2.798,2.8298,2.7399,2.5086,2.3521,2.1766,1.9442,1.904,1.9094,1.9094,1.9094,1.9094,1.9094,1.9094,1.9115,1.9183,1.9128,1.9061,1.8993,1.8909,1.882,1.882,1.882,1.8728,1.864,1.8728,1.862,1.8301,1.8375,1.8287,1.8024,1.8057,1.8023,1.786,1.786,1.7826,1.7758,1.7758,1.8074,1.8702,1.8947,1.9386,2.001,1.9966,1.9613,1.9045,1.8424,1.8035,1.7717,1.7426,1.746,1.7616,2.7902,2.6257,2.4918,2.5028,2.3593,2.3105,2.4788,2.5182,2.5788,2.6992,2.73,2.6396,2.3857,2.3579,2.2826,2.1002,2.1462,2.1909,2.1909,2.2382,2.2649,2.2382,2.2334,2.203,2.1368,2.1368,2.1306,2.1201,2.0845,2.0391,1.9771,1.9133,1.8586,1.823,1.7978,1.7792,1.7684,1.8246,1.8474,1.853,1.8909,1.9139,1.95,2.171,2.262,2.3039,2.5259,2.6329,2.7061,2.9491,3.0187,3.0083,3.0215,3.0129,2.9596,2.7782,2.7542,2.7254,2.4305,2.3929,2.3634,2.0694,2.139,2.3194,2.4984,2.5504,2.5104,2.3066,2.2276,2.1328,1.9338,1.9081,1.9169,1.9203,1.9203,1.9203,1.9203,1.9217,1.9237,1.9237,1.9217,1.9149,1.9006,1.8909,1.882,1.882,1.882,1.882,1.882,1.882,1.8708,1.8565,1.8494,1.8409,1.8165,1.8165,1.8158,1.8124,1.8124,1.8057,1.7956,1.7717,1.8005,1.8736,1.9173,1.9796,2.0505,2.0623,2.0238,1.9533,1.8773,1.8103,1.7554,1.7304,1.7256,1.7324,2.5356,2.3863,2.2659,2.2684,2.258,2.2407,2.2144,2.2102,2.1987,2.1701,2.1667,2.1521,2.0988,2.0907,2.0925,2.1034,2.1347,2.1489,2.1429,2.1549,2.1472,2.1096,2.0946,2.0805,2.0724,2.0724,2.0702,2.0687,1.9825,2.0391,2.2168,1.9345,1.9026,2.0733,1.8777,1.7902,1.7998,1.9995,2.0866,2.1039,2.3029,2.3865,2.3974,2.4458,2.4827,2.5143,2.561,2.7214,2.9615,3.2073,3.1522,2.9846,3.0162,2.8807,2.7058,2.7119,2.8709,2.9378,2.476,2.5234,2.585,2.1254,2.0306,2.0594,2.0732,2.1973,2.3066,2.2953,2.1,1.9238,1.9017,1.9006,1.9061,1.9183,1.9203,1.9203,1.9203,1.9305,1.9393,1.9393,1.9291,1.9149,1.9006,1.8909,1.882,1.882,1.882,1.882,1.882,1.882,1.88,1.8786,1.8599,1.8454,1.8477,1.8477,1.8409,1.8287,1.8287,1.8213,1.8057,1.7717,1.8005,1.8736,1.9173,1.9796,2.0568,2.1063,2.0623,1.9595,1.9206,1.8481,1.7554,1.7304,1.7127,1.7039,2.3066,2.2525,2.2107,2.2318,2.2128,2.1806,2.1458,2.1183,2.0722,1.9898,1.9892,2.0487,2.1773,2.3291,2.4234,2.425,2.47,2.5012,2.5012,2.5369,2.5525,2.5364,2.549,2.4586,2.2557,2.422,2.4177,2.2214,2.1498,2.1663,2.2648,2.2011,2.2432,2.3575,2.2332,2.1781,2.1945,2.2996,2.3479,2.3571,2.4622,2.4929,2.4962,2.6494,2.7275,2.7731,2.9416,3.0756,3.1736,3.1432,3.0686,2.9441,2.6856,2.5306,2.4587,2.4866,2.5829,2.6322,2.4181,2.464,2.4751,2.1137,2.0227,2.0187,2.0031,2.0444,2.0805,2.0849,1.9857,1.8884,1.8871,1.8871,1.8905,1.9061,1.9081,1.9115,1.9183,1.9257,1.9305,1.9305,1.9169,1.9061,1.8993,1.8909,1.8943,1.9284,1.9284,1.9284,1.9284,1.9284,1.9161,1.882,1.8694,1.862,1.8474,1.8474,1.8498,1.8386,1.8355,1.8233,1.8077,1.7737,1.795,1.8608,1.8817,1.926,1.9928,2.0194,1.9764,1.8969,1.8703,1.8031,1.7256,1.7121,1.7032,1.6978]},{"header":{"parameterUnit":"m.s-1","parameterCategory":1,"la1":30.6,"la2":28.766,"lo1":-90.7593,"lo2":-88.6598,"dy":0.0162,"dx":0.0183,"nx":116,"ny":114,"refTime":"2023-04-10T06:00:00:Z","depth":0,"parameterNumber":3,"parameterNumberName":"V-component_of_WINDS"},"data":[0.0,0.0,0.0,0.0,0.0,0.0,0.0,0.0,0.0,0.0,0.0,0.0,0.0,0.0,0.0,0.0,0.0,0.0,0.0,0.0,0.0,0.0,0.0,0.0,0.0,0.0,0.0,0.0,0.0,0.0,0.0,0.0,0.0,0.0,0.0,0.0,0.0,0.0,0.0,0.0,0.0,0.0,0.0,0.0,0.0,0.0,0.0,0.0,0.0,0.0,0.0,0.0,0.0,0.0,0.0,0.0,0.0,0.0,0.0,0.0,0.0,0.0,0.0,0.0,0.0,0.0,0.0,0.0,0.0,0.0,0.0,0.0,0.0,0.0,0.0,0.0,0.0,0.0,0.0,0.0,0.0,0.0,0.0,0.0,0.0,0.0,0.0,0.0,0.0,0.0,0.0,0.0,0.0,0.0,0.0,0.0,0.0,0.0,0.0,0.0,0.0,0.0,0.0,0.0,0.0,0.0,0.0,0.0,0.0,0.0,0.0,0.0,0.0,0.0,0.0,0.0,0.0,0.0,0.0,0.0,0.0,0.0,0.0,0.0,0.0,0.0,0.0,0.0,0.0,0.0,0.0,0.0,0.0,0.0,0.0,0.0,0.0,0.0,0.0,0.0,0.0,0.0,0.0,0.0,0.0,0.0,0.0,0.0,0.0,0.0,0.0,0.0,0.0,0.0,0.0,0.0,0.0,0.0,0.0,0.0,0.0,0.0,0.0,0.0,0.0,0.0,0.0,0.0,0.0,0.0,0.0,0.0,0.0,0.0,0.0,0.0,0.0,0.0,0.0,0.0,0.0,0.0,0.0,0.0,0.0,0.0,0.0,0.0,0.0,0.0,0.0,0.0,0.0,0.0,0.0,0.0,0.0,0.0,0.0,0.0,0.0,0.0,0.0,0.0,0.0,0.0,0.0,0.0,0.0,0.0,0.0,0.0,0.0,0.0,0.0,0.0,0.0,0.0,0.0,0.0,0.0,0.0,0.0,0.0,0.0,0.0,0.0,0.0,0.0,0.0,0.0,0.0,0.0,0.0,0.0,0.0,0.0,0.0,0.0,0.0,0.0,0.0,0.0,0.0,0.0,0.0,0.0,0.0,0.0,0.0,0.0,0.0,0.0,0.0,0.0,0.0,0.0,0.0,0.0,0.0,0.0,0.0,0.0,0.0,0.0,0.0,0.0,0.0,0.0,0.0,0.0,0.0,0.0,0.0,0.0,0.0,0.0,0.0,0.0,0.0,0.0,0.0,0.0,0.0,0.0,0.0,0.0,0.0,0.0,0.0,0.0,0.0,0.0,0.0,0.0,0.0,0.0,0.0,0.0,0.0,0.0,0.0,0.0,0.0,0.0,0.0,0.0,0.0,0.0,0.0,0.0,0.0,0.0,0.0,0.0,0.0,0.0,0.0,0.0,0.0,0.0,0.0,0.0,0.0,0.0,0.0,0.0,0.0,0.0,0.0,0.0,0.0,0.0,0.0,0.0,0.0,0.0,0.0,0.0,0.0,0.0,0.0,0.0,0.0,0.0,0.0,0.0,0.0,0.0,0.0,0.0,0.0,0.0,0.0,0.0,0.0,0.0,0.0,0.0,0.0,0.0,0.0,0.0,0.0,0.0,0.0,0.0,0.0,0.0,0.0,0.0,0.0,0.0,0.0,0.0,0.0,0.0,0.0,0.0,0.0,0.0,0.0,0.0,0.0,0.0,0.0,0.0,0.0,0.0,0.0,0.0,0.0,0.0,0.0,0.0,0.0,0.0,0.0,0.0,0.0,0.0,0.0,0.0,0.0,0.0,0.0,0.0,0.0,0.0,0.0,0.0,0.0,0.0,0.0,0.0,0.0,0.0,0.0,0.0,0.0,0.0,0.0,0.0,0.0,0.0,0.0,0.0,0.0,0.0,0.0,0.0,0.0,0.0,0.0,0.0,0.0,0.0,0.0,0.0,0.0,0.0,0.0,0.0,0.0,0.0,0.0,0.0,0.0,0.0,0.0,0.0,0.0,0.0,0.0,0.0,0.0,0.0,0.0,0.0,0.0,0.0,0.0,0.0,0.0,0.0,0.0,0.0,0.0,0.0,0.0,0.0,0.0,0.0,0.0,0.0,0.0,0.0,0.0,0.0,0.0,0.0,0.0,0.0,0.0,0.0,0.0,0.0,0.0,0.0,0.0,0.0,0.0,0.0,0.0,0.0,0.0,0.0,0.0,0.0,0.0,0.0,0.0,0.0,0.0,0.0,0.0,0.0,0.0,0.0,0.0,0.0,0.0,0.0,0.0,0.0,0.0,0.0,0.0,0.0,0.0,0.0,0.0,0.0,0.0,0.0,0.0,0.0,0.0,0.0,0.0,0.0,0.0,0.0,0.0,0.0,0.0,0.0,0.0,0.0,0.0,0.0,0.0,0.0,0.0,0.0,0.0,0.0,0.0,0.0,0.0,0.0,0.0,0.0,0.0,0.0,0.0,0.0,0.0,0.0,0.0,0.0,0.0,0.0,0.0,0.0,0.0,0.0,0.0,0.0,0.0,0.0,0.0,0.0,0.0,0.0,0.0,0.0,0.0,0.0,0.0,0.0,0.0,0.0,0.0,0.0,0.0,0.0,0.0,0.0,0.0,0.0,0.0,0.0,0.0,0.0,0.0,0.0,0.0,0.0,0.0,0.0,0.0,0.0,0.0,0.0,0.0,0.0,0.0,0.0,0.0,0.0,0.0,0.0,0.0,0.0,0.0,0.0,0.0,0.0,0.0,0.0,0.0,0.0,0.0,0.0,0.0,0.0,0.0,0.0,0.0,0.0,0.0,0.0,0.0,0.0,0.0,0.0,0.0,0.0,0.0,0.0,0.0,0.0,0.0,0.0,0.0,0.0,0.0,0.0,0.0,0.0,0.0,0.0,0.0,0.0,0.0,0.0,0.0,0.0,0.0,0.0,0.0,0.0,0.0,0.0,0.0,0.0,0.0,0.0,0.0,0.0,0.0,0.0,0.0,0.0,0.0,0.0,0.0,0.0,0.0,0.0,0.0,0.0,0.0,0.0,0.0,0.0,0.0,0.0,0.0,0.0,0.0,0.0,0.0,0.0,0.0,0.0,0.0,0.0,0.0,0.0,0.0,0.0,0.0,0.0,0.0,0.0,0.0,0.0,0.0,0.0,0.0,0.0,0.0,0.0,0.0,0.0,0.0,0.0,0.0,0.0,0.0,0.0,0.0,0.0,0.0,0.0,0.0,0.0,0.0,0.0,0.0,0.0,0.0,0.0,0.0,0.0,0.0,0.0,0.0,0.0,0.0,0.0,0.0,0.0,0.0,0.0,0.0,0.0,0.0,0.0,0.0,0.0,0.0,0.0,0.0,0.0,0.0,0.0,0.0,0.0,0.0,0.0,0.0,0.0,0.0,0.0,0.0,0.0,0.0,0.0,0.0,0.0,0.0,0.0,0.0,0.0,0.0,0.0,0.0,0.0,0.0,0.0,0.0,0.0,0.0,0.0,0.0,0.0,0.0,0.0,0.0,0.0,0.0,0.0,0.0,0.0,0.0,0.0,0.0,0.0,0.0,0.0,0.0,0.0,0.0,0.0,0.0,0.0,0.0,0.0,0.0,0.0,0.0,0.0,0.0,0.0,0.0,0.0,0.0,0.0,0.0,0.0,0.0,0.0,0.0,0.0,0.0,0.0,0.0,0.0,0.0,0.0,0.0,0.0,0.0,0.0,0.0,0.0,0.0,0.0,0.0,0.0,0.0,0.0,0.0,0.0,0.0,0.0,0.0,0.0,0.0,0.0,0.0,0.0,0.0,0.0,0.0,0.0,0.0,0.0,0.0,0.0,0.0,0.0,0.0,0.0,0.0,0.0,0.0,0.0,0.0,0.0,0.0,0.0,0.0,0.0,0.0,0.0,0.0,0.0,0.0,0.0,0.0,0.0,0.0,0.0,0.0,0.0,0.0,0.0,0.0,0.0,0.0,0.0,0.0,0.0,0.0,0.0,0.0,0.0,0.0,0.0,0.0,0.0,0.0,0.0,0.0,0.0,0.0,0.0,0.0,0.0,0.0,0.0,0.0,0.0,0.0,0.0,0.0,0.0,0.0,0.0,0.0,0.0,0.0,0.0,0.0,0.0,0.0,0.0,0.0,0.0,0.0,0.0,0.0,0.0,0.0,0.0,0.0,0.0,0.0,0.0,0.0,0.0,0.0,0.0,0.0,0.0,0.0,0.0,0.0,0.0,0.0,0.0,0.0,0.0,0.0,0.0,0.0,0.0,0.0,0.0,0.0,0.0,0.0,0.0,0.0,0.0,0.0,0.0,0.0,0.0,0.0,0.0,0.0,0.0,0.0,0.0,0.0,0.0,0.0,0.0,0.0,0.0,0.0,0.0,0.0,0.0,0.0,0.0,0.0,0.0,0.0,0.0,0.0,0.0,0.0,0.0,0.0,0.0,0.0,0.0,0.0,0.0,0.0,0.0,0.0,0.0,0.0,0.0,0.0,0.0,0.0,0.0,0.0,0.0,0.0,0.0,0.0,0.0,0.0,0.0,0.0,0.0,0.0,0.0,0.0,0.0,0.0,0.0,0.0,0.0,0.0,0.0,0.0,0.0,0.0,0.0,0.0,0.0,0.0,0.0,0.0,0.0,0.0,0.0,0.0,0.0,0.0,0.0,0.0,0.0,0.0,0.0,0.0,0.0,0.0,0.0,0.0,0.0,0.0,0.0,0.0,0.0,0.0,0.0,0.0,0.0,0.0,0.0,0.0,0.0,0.0,0.0,0.0,0.0,0.0,0.0,0.0,0.0,0.0,0.0,0.0,0.0,0.0,0.0,0.0,0.0,0.0,0.0,0.0,0.0,0.0,0.0,0.0,0.0,0.0,0.0,0.0,0.0,0.0,0.0,0.0,0.0,0.0,0.0,0.0,0.0,0.0,0.0,0.0,0.0,0.0,0.0,0.0,0.0,0.0,0.0,0.0,0.0,0.0,0.0,0.0,0.0,0.0,0.0,0.0,0.0,0.0,0.0,0.0,0.0,0.0,0.0,0.0,0.0,0.0,0.0,0.0,0.0,0.0,0.0,0.0,0.0,0.0,0.0,0.0,0.0,0.0,0.0,0.0,0.0,0.0,0.0,0.0,0.0,0.0,0.0,0.0,0.0,0.0,0.0,0.0,0.0,0.0,0.0,0.0,0.0,0.0,0.0,0.0,0.0,0.0,0.0,0.0,0.0,0.0,0.0,0.0,0.0,0.0,0.0,0.0,0.0,0.0,0.0,0.0,0.0,0.0,0.0,0.0,0.0,0.0,0.0,0.0,0.0,0.0,0.0,0.0,0.0,0.0,0.0,0.0,0.0,0.0,0.0,0.0,0.0,0.0,0.0,0.0,0.0,0.0,0.0,0.0,0.0,0.0,0.0,0.0,0.0,0.0,0.0,0.0,0.0,0.0,0.0,0.0,0.0,0.0,0.0,0.0,0.0,0.0,0.0,0.0,0.0,0.0,0.0,0.0,0.0,0.0,0.0,0.0,0.0,0.0,0.0,0.0,0.0,0.0,0.0,0.0,0.0,0.0,0.0,0.0,0.0,0.0,0.0,0.0,0.0,0.0,0.0,0.0,0.0,0.0,0.0,0.0,0.0,0.0,0.0,0.0,0.0,0.0,0.0,0.0,0.0,0.0,0.0,0.0,0.0,0.0,0.0,0.0,0.0,0.0,0.0,0.0,0.0,0.0,0.0,0.0,0.0,0.0,0.0,0.0,0.0,0.0,0.0,0.0,0.0,0.0,0.0,0.0,0.0,0.0,0.0,0.0,0.0,0.0,0.0,0.0,0.0,0.0,0.0,0.0,0.0,0.0,0.0,0.0,0.0,0.0,0.0,0.0,0.0,0.0,0.0,0.0,0.0,0.0,0.0,0.0,0.0,0.0,0.0,0.0,0.0,0.0,0.0,0.0,0.0,0.0,0.0,0.0,0.0,0.0,0.0,0.0,0.0,0.0,0.0,0.0,0.0,0.0,0.0,0.0,0.0,0.0,0.0,0.0,0.0,0.0,0.0,0.0,0.0,0.0,0.0,0.0,0.0,0.0,0.0,0.0,0.0,0.0,0.0,0.0,0.0,0.0,0.0,0.0,4.9243,4.875,0.0,0.0,0.0,0.0,0.0,0.0,0.0,0.0,0.0,0.0,0.0,0.0,0.0,0.0,0.0,0.0,0.0,0.0,0.0,0.0,0.0,0.0,0.0,0.0,0.0,0.0,0.0,0.0,0.0,0.0,0.0,0.0,0.0,0.0,0.0,0.0,0.0,4.673,4.7172,4.7377,4.7304,4.8006,4.8333,4.8376,0.0,0.0,0.0,0.0,0.0,0.0,0.0,0.0,0.0,0.0,0.0,0.0,0.0,0.0,0.0,0.0,0.0,0.0,0.0,0.0,0.0,0.0,0.0,0.0,0.0,0.0,0.0,0.0,0.0,0.0,0.0,0.0,0.0,0.0,0.0,0.0,0.0,0.0,0.0,0.0,0.0,0.0,0.0,0.0,0.0,0.0,0.0,0.0,0.0,0.0,0.0,0.0,0.0,0.0,0.0,0.0,0.0,0.0,0.0,0.0,0.0,0.0,0.0,0.0,0.0,0.0,0.0,0.0,0.0,0.0,5.3557,5.1896,0.0,0.0,0.0,0.0,0.0,0.0,0.0,0.0,0.0,0.0,0.0,0.0,0.0,0.0,0.0,0.0,0.0,0.0,0.0,0.0,0.0,0.0,0.0,4.619,4.6312,4.6321,4.6507,4.6635,0.0,0.0,0.0,0.0,0.0,0.0,4.6344,4.7215,4.7605,4.7546,4.7663,4.8269,4.9331,5.1522,5.1758,5.043,5.1241,0.0,0.0,0.0,0.0,0.0,0.0,0.0,0.0,0.0,0.0,0.0,0.0,0.0,0.0,0.0,0.0,0.0,0.0,0.0,0.0,0.0,0.0,0.0,0.0,0.0,0.0,0.0,0.0,0.0,0.0,0.0,0.0,0.0,0.0,0.0,0.0,0.0,0.0,0.0,0.0,0.0,0.0,0.0,0.0,0.0,0.0,0.0,0.0,0.0,0.0,0.0,0.0,0.0,0.0,0.0,0.0,0.0,0.0,0.0,0.0,0.0,0.0,0.0,5.9646,6.0117,6.0156,6.1068,6.1511,6.1392,5.9235,5.6514,5.3619,5.3159,0.0,0.0,0.0,0.0,0.0,0.0,0.0,0.0,0.0,0.0,0.0,0.0,0.0,0.0,0.0,0.0,0.0,0.0,0.0,4.6002,4.6009,4.6628,4.7085,4.7124,4.785,4.8271,4.8271,0.0,0.0,0.0,0.0,0.0,4.8159,4.9013,4.9132,4.8436,4.9196,5.0389,5.2007,5.3052,5.3342,5.3078,5.3231,5.2938,5.2345,0.0,0.0,0.0,0.0,0.0,0.0,0.0,0.0,0.0,0.0,0.0,0.0,0.0,0.0,0.0,0.0,0.0,0.0,0.0,0.0,0.0,0.0,0.0,0.0,0.0,0.0,0.0,0.0,0.0,0.0,0.0,0.0,0.0,0.0,0.0,0.0,0.0,0.0,0.0,0.0,0.0,5.5363,5.53,0.0,0.0,0.0,0.0,0.0,0.0,0.0,0.0,0.0,0.0,0.0,0.0,0.0,5.8638,5.9512,6.1153,6.2013,6.2169,6.3784,6.457,6.4571,6.5466,6.5859,6.5858,6.5562,0.0,5.8059,5.5849,0.0,0.0,0.0,0.0,0.0,0.0,0.0,0.0,0.0,0.0,0.0,0.0,0.0,0.0,0.0,0.0,0.0,0.0,0.0,0.0,0.0,4.7926,4.8729,4.8774,4.9549,4.9858,4.9352,4.9313,0.0,0.0,4.8743,4.8929,4.9825,4.9766,4.9797,4.9876,5.1751,5.2777,5.3107,5.4404,5.5249,5.5735,5.5729,5.5262,5.4429,5.3823,0.0,0.0,0.0,0.0,0.0,0.0,0.0,0.0,0.0,0.0,0.0,0.0,0.0,0.0,0.0,0.0,0.0,0.0,0.0,0.0,0.0,0.0,0.0,0.0,0.0,0.0,0.0,0.0,0.0,0.0,0.0,0.0,0.0,0.0,0.0,0.0,0.0,0.0,0.0,5.4874,5.6292,5.4886,5.5666,5.5412,0.0,0.0,0.0,0.0,0.0,0.0,0.0,0.0,0.0,6.1127,6.1995,6.3073,6.4441,6.5726,6.6582,6.701,6.7821,6.8472,6.8945,6.94,6.9609,6.9609,6.9199,6.7417,6.4601,6.1093,5.8753,5.7309,0.0,0.0,0.0,0.0,5.5129,5.5403,0.0,0.0,0.0,0.0,0.0,0.0,0.0,0.0,0.0,0.0,0.0,0.0,4.7857,4.944,5.0563,5.0794,5.1611,5.1844,5.1183,5.0949,5.0798,5.0752,5.0128,5.046,5.1867,5.1509,5.183,5.2875,5.4615,5.5238,5.4817,5.6089,5.7047,5.7705,5.7694,5.7193,5.6318,5.5035,5.4648,5.4831,0.0,0.0,0.0,0.0,0.0,0.0,0.0,0.0,0.0,0.0,0.0,0.0,0.0,0.0,0.0,0.0,0.0,0.0,0.0,0.0,0.0,0.0,0.0,0.0,0.0,0.0,0.0,0.0,0.0,0.0,0.0,0.0,0.0,0.0,0.0,0.0,0.0,5.6824,5.8328,5.5741,5.829,5.897,0.0,0.0,0.0,0.0,0.0,0.0,6.2232,6.3085,6.4398,6.6178,6.7033,6.8198,6.9717,7.0618,7.136,7.1947,7.2024,7.2396,7.2986,7.291,7.2851,7.2812,7.2009,7.1285,7.0348,6.5624,6.2384,6.0315,5.9222,5.8441,5.7893,5.7659,5.7698,5.7932,0.0,0.0,0.0,0.0,0.0,0.0,0.0,0.0,0.0,0.0,0.0,4.7821,4.9396,5.1084,5.2403,5.3251,5.4102,5.4601,5.4563,5.3793,5.3324,5.3316,5.3278,5.366,5.4576,5.5311,5.6515,5.8221,5.7516,5.7593,5.8337,5.8415,5.8497,5.8544,5.849,5.8099,5.7518,5.7285,5.6296,5.5049,5.6531,0.0,0.0,0.0,0.0,0.0,0.0,0.0,0.0,0.0,0.0,0.0,0.0,0.0,0.0,0.0,0.0,0.0,0.0,0.0,0.0,0.0,0.0,0.0,0.0,0.0,0.0,0.0,0.0,0.0,0.0,0.0,0.0,0.0,0.0,0.0,0.0,0.0,0.0,6.1041,6.5175,0.0,0.0,0.0,0.0,6.3486,6.5006,6.6646,6.8358,6.9289,7.0548,7.2296,7.3194,7.4091,7.5027,7.5883,7.6333,7.6376,7.6437,7.6504,7.651,7.5844,7.5508,7.5468,7.4664,7.429,7.3783,6.7888,6.4882,6.3868,6.2187,6.1485,6.1328,6.051,6.0744,6.1211,0.0,0.0,0.0,0.0,0.0,0.0,0.0,0.0,4.7328,4.8651,4.928,5.0227,5.1958,5.4155,5.5621,5.593,5.6747,5.6786,5.5659,5.4813,5.4349,5.4349,5.4349,5.4735,5.5543,5.694,5.7701,5.7703,5.8519,5.9041,5.9316,5.9316,5.9625,6.0127,5.9523,5.9447,5.9697,5.7973,5.7307,5.7289,5.6814,5.6991,0.0,0.0,0.0,0.0,0.0,0.0,0.0,0.0,0.0,0.0,0.0,0.0,0.0,0.0,0.0,0.0,0.0,0.0,0.0,0.0,0.0,0.0,0.0,0.0,0.0,0.0,0.0,0.0,0.0,0.0,0.0,0.0,0.0,0.0,0.0,0.0,0.0,6.5579,6.9033,0.0,6.6704,6.7364,6.8256,6.8865,7.0488,7.1949,7.3169,7.4041,7.5051,7.6247,7.6598,7.7152,7.803,7.835,7.8483,7.8501,7.8538,7.8554,7.8519,7.8313,7.789,7.7343,7.6539,7.5852,7.5073,7.187,6.9722,6.8239,6.6481,6.5154,6.4178,6.3867,6.3594,6.3282,0.0,0.0,0.0,0.0,0.0,0.0,0.0,0.0,4.8186,4.9578,5.0448,5.1807,5.4078,5.6137,5.7805,5.8909,5.9029,5.8569,5.7404,5.6536,5.5917,5.5659,5.6188,5.6712,5.7235,5.894,5.9655,5.9345,6.047,6.0879,6.0529,6.0529,6.0838,6.1378,6.0778,6.1015,6.1725,6.0005,5.9025,5.8548,5.7753,5.7972,5.8642,0.0,0.0,0.0,0.0,0.0,0.0,0.0,0.0,0.0,0.0,0.0,0.0,0.0,0.0,0.0,0.0,0.0,0.0,0.0,0.0,0.0,0.0,0.0,0.0,0.0,0.0,0.0,0.0,0.0,0.0,0.0,0.0,0.0,0.0,6.6935,7.0211,6.9686,7.3924,7.5535,7.2147,7.356,7.4843,7.5196,7.6524,7.7602,7.8178,7.9018,7.9481,7.9493,8.0042,8.0365,8.0347,8.0667,8.068,8.0385,8.0404,8.0411,8.0412,8.0195,7.9759,7.9173,7.8328,7.7648,7.6986,7.5266,7.3899,7.261,6.9995,6.8122,6.6873,6.6873,6.6522,6.6016,0.0,0.0,0.0,0.0,0.0,0.0,4.7512,4.8117,4.8888,4.9776,5.062,5.2399,5.5719,5.6953,5.8854,6.2133,6.0895,5.9928,5.988,5.9017,5.8157,5.7391,5.8978,5.9818,5.9796,6.1416,6.2651,6.3494,6.3494,6.307,6.2221,6.2221,6.2221,6.2216,6.2166,6.2673,6.3527,6.3476,6.1626,5.8785,5.9573,5.9474,5.8863,0.0,0.0,0.0,0.0,0.0,0.0,0.0,0.0,0.0,0.0,0.0,0.0,0.0,0.0,0.0,0.0,0.0,0.0,0.0,0.0,0.0,0.0,0.0,0.0,0.0,0.0,0.0,0.0,0.0,0.0,0.0,0.0,0.0,6.6775,7.1936,7.5057,7.3551,8.0009,8.2692,7.7819,8.0957,8.304,8.2331,8.2992,8.3423,8.3415,8.4236,8.3922,8.224,8.3766,8.3857,8.2162,8.3003,8.3023,8.2142,8.2222,8.2226,8.2187,8.1383,8.1046,8.0968,8.0107,7.9717,7.9561,7.7843,7.714,7.6711,7.2454,7.027,6.949,6.949,6.9451,6.9412,0.0,0.0,0.0,0.0,0.0,0.0,4.8293,4.9049,5.0103,5.1559,5.3018,5.4951,5.7781,5.9424,6.0906,6.2428,6.1559,6.0595,5.9882,5.8998,5.8665,5.9026,6.0097,6.0931,6.1494,6.2574,6.3246,6.3438,6.3438,6.3261,6.3022,6.3022,6.3022,6.3016,6.2965,6.3466,6.4292,6.4274,6.4117,6.3725,6.2155,6.2174,6.2926,0.0,0.0,0.0,0.0,0.0,0.0,0.0,0.0,0.0,0.0,0.0,0.0,0.0,0.0,0.0,0.0,0.0,0.0,0.0,0.0,0.0,0.0,0.0,0.0,0.0,0.0,0.0,0.0,0.0,0.0,0.0,7.0468,7.3083,7.3205,7.6267,7.9325,8.1397,8.4637,8.6123,8.4763,8.5657,8.6203,8.5976,8.6206,8.632,8.6284,8.6554,8.6473,8.6005,8.5848,8.5539,8.5036,8.4685,8.4062,8.3199,8.3192,8.2872,8.2277,8.2028,8.1591,8.1007,8.0732,8.0263,7.96,7.8507,7.804,7.7727,7.4642,7.2573,7.1285,7.1285,7.0505,6.9412,0.0,0.0,0.0,0.0,0.0,0.0,4.8705,4.9785,5.1012,5.2383,5.3999,5.6047,5.8609,6.0099,6.1517,6.3034,6.1988,6.1,6.0403,5.9867,5.9884,6.0658,6.1907,6.2948,6.3735,6.4582,6.4989,6.4959,6.4959,6.4742,6.4397,6.4397,6.4589,6.4897,6.4897,6.5397,6.6199,6.6199,6.6686,6.7372,6.5907,6.5531,6.566,6.378,6.3852,6.4773,6.3429,6.4063,6.523,6.2956,0.0,0.0,0.0,0.0,0.0,0.0,0.0,0.0,0.0,0.0,0.0,0.0,0.0,0.0,0.0,0.0,0.0,0.0,0.0,0.0,0.0,0.0,0.0,0.0,7.6133,7.9296,8.1399,8.2733,8.4375,8.6758,8.8906,9.0039,8.9687,8.9961,9.0,8.9608,8.9609,8.9453,8.9061,8.9414,8.914,8.8047,8.8203,8.7812,8.6716,8.6206,8.5495,8.4658,8.4261,8.3824,8.3346,8.2957,8.2528,8.2022,8.1708,8.1278,8.0732,7.9834,7.9484,7.9172,0.0,0.0,0.0,0.0,7.2417,7.1558,0.0,0.0,0.0,0.0,0.0,0.0,4.9061,5.0346,5.1616,5.2514,5.4167,5.6165,5.8523,5.963,6.1187,6.3519,6.2121,6.1204,6.1492,6.1378,6.1708,6.254,6.416,6.535,6.6073,6.6882,6.7306,6.7306,6.7306,6.6959,6.6227,6.6227,6.6613,6.7306,6.7422,6.7923,6.8764,6.8841,6.9387,7.0163,7.0196,6.918,6.7598,6.669,6.7365,6.8629,6.7622,6.718,6.6905,6.5669,0.0,0.0,0.0,0.0,0.0,0.0,0.0,0.0,0.0,0.0,0.0,0.0,0.0,0.0,0.0,0.0,0.0,0.0,0.0,0.0,0.0,0.0,0.0,0.0,8.1914,8.4961,8.9765,8.9922,8.9804,9.0351,9.2578,9.375,9.2969,9.3594,9.3711,9.2969,9.289,9.2578,9.1797,9.2461,0.0,0.0,0.0,9.0429,8.8005,8.7883,8.7367,8.638,8.5505,8.5026,8.4907,8.405,8.366,8.3582,8.2801,8.245,8.2371,8.1513,8.1085,8.0655,7.7376,7.6088,7.5971,7.511,7.472,7.4642,0.0,0.0,0.0,0.0,0.0,0.0,4.9959,5.0742,5.1678,5.2577,5.4802,5.6754,5.7963,5.9448,6.0806,6.1961,6.1079,6.1295,6.3262,6.3312,6.393,6.5518,6.6566,6.7187,6.7333,6.8136,6.8558,6.8558,6.8558,6.848,6.8325,6.8325,6.8403,6.8597,6.9304,7.008,7.0968,7.1632,7.2431,7.3161,7.3155,7.1971,7.0124,6.9264,6.9572,7.0226,6.8758,7.0356,7.2604,6.9195,6.9865,7.163,6.8656,6.7446,0.0,0.0,0.0,0.0,0.0,0.0,0.0,0.0,0.0,0.0,0.0,0.0,0.0,0.0,0.0,0.0,0.0,0.0,0.0,8.2265,8.6601,9.039,9.2812,9.4219,9.4531,9.3281,9.4219,9.4883,9.4726,9.4844,9.4883,9.4726,9.4687,9.4609,9.4453,9.4609,9.4453,9.3945,9.3594,9.2812,9.1601,9.0896,8.9758,8.8188,8.7316,0.0,8.5807,8.4948,8.4556,8.4517,8.3621,8.3269,8.3191,8.2371,8.163,8.0772,7.8703,7.7884,7.7805,7.6906,7.6164,7.5541,0.0,0.0,0.0,0.0,0.0,0.0,5.0029,5.1151,5.2297,5.3195,5.5624,5.7578,5.8476,5.9648,6.0739,6.1588,6.1205,6.1753,6.3732,6.4634,6.6065,6.8213,6.957,7.0421,7.0845,7.1268,7.1264,7.0841,7.0841,7.0841,7.0841,7.0841,7.1074,7.1458,7.189,7.2333,7.278,7.3208,7.362,7.4077,7.4954,7.4688,7.3649,7.2809,7.3008,7.3687,7.3344,7.4284,7.5322,7.2892,7.2998,7.3673,7.0756,6.9921,6.9639,0.0,0.0,0.0,0.0,0.0,0.0,0.0,0.0,0.0,0.0,0.0,0.0,0.0,0.0,7.4219,7.7265,0.0,8.4062,8.7539,9.1367,9.4336,9.5625,9.7304,9.7617,9.5469,9.5937,9.6445,9.6445,9.6836,9.7109,9.7109,9.75,9.7734,9.7734,9.7344,9.6914,9.6445,9.5625,9.4765,9.3906,9.3043,9.1944,9.065,8.9774,8.8899,8.8032,8.7134,8.6744,8.6705,8.5846,8.5182,8.4753,8.3894,8.3035,8.2176,8.128,8.0185,7.9014,7.8546,7.8116,7.7687,0.0,0.0,0.0,0.0,0.0,0.0,0.0,5.1567,5.2899,5.3798,5.6089,5.7969,5.8867,5.9687,6.0507,6.1367,6.1499,6.2438,6.4504,6.5965,6.8024,7.0911,7.238,7.3423,7.4077,7.4116,7.377,7.3112,7.3112,7.3112,7.3112,7.3122,7.3512,7.4131,7.4453,7.459,7.4616,7.497,7.5105,7.5249,7.6646,7.7194,7.7125,7.6595,7.6794,7.741,7.7929,7.7583,7.6745,7.6062,7.5267,7.4244,7.2553,7.2477,7.2458,6.9491,6.9139,0.0,0.0,0.0,0.0,0.0,0.0,0.0,0.0,7.0312,7.164,7.5117,7.707,7.9531,8.4023,8.6406,8.8945,9.2734,9.539,9.7265,9.8086,9.9414,9.9531,9.7461,9.7812,9.8203,9.8203,9.8828,9.9258,9.9258,9.9883,10.0312,10.0312,9.9648,9.8945,9.8242,9.7422,9.6562,9.5703,9.4835,9.3967,9.3069,9.2185,9.1428,9.0688,8.9672,8.9203,8.9125,8.7913,8.682,8.5807,8.5103,8.4401,8.3738,8.3738,8.2371,8.042,8.0263,7.999,7.96,0.0,0.0,0.0,0.0,0.0,0.0,0.0,0.0,5.2899,5.3798,5.5542,5.707,5.7969,5.8828,5.9648,6.0467,6.1242,6.3382,6.736,6.7817,6.9763,7.3943,7.4239,7.4348,7.4425,7.4425,7.4386,7.4309,7.4309,7.4309,7.4309,7.4364,7.4449,7.4606,7.6102,7.6732,7.6851,7.8414,7.9044,7.9089,7.9278,7.9362,7.9449,8.0108,8.0189,7.9901,7.919,7.84,7.7657,7.7694,7.6688,7.5677,7.7011,7.7049,7.6404,7.5234,7.2812,7.0156,6.8281,6.7422,6.7734,7.0586,7.1953,7.3984,0.0,8.0039,8.0547,8.4023,8.5547,8.6836,8.8906,9.1328,9.3711,9.5742,9.7578,9.9023,9.9883,10.0195,10.0195,9.9922,9.9961,10.0,10.0,10.0117,10.0195,10.0195,10.0195,10.0312,10.0312,10.0195,10.0117,10.0,9.9178,9.8317,9.7418,9.6545,9.5673,9.4812,9.3935,9.3458,9.3302,9.1741,9.0999,9.0882,8.846,8.6469,8.4946,8.4829,8.4751,8.4634,8.4634,8.4011,8.2996,8.2254,8.1044,7.9678,0.0,0.0,0.0,0.0,0.0,0.0,0.0,0.0,5.3485,5.4379,5.6082,5.7371,5.7722,5.906,6.0038,6.0386,6.1206,6.351,6.7802,6.9049,7.1313,7.5179,7.6737,7.7045,7.6022,7.6529,7.676,7.6751,7.676,7.7037,7.7544,7.7558,7.7562,7.7602,7.8816,7.9093,7.8705,7.9916,8.0153,7.9726,8.0233,8.0468,8.0508,8.0859,8.0301,7.9242,7.8842,7.7827,0.0,7.615,7.5897,7.5918,7.6669,7.7027,7.6835,7.4922,7.3359,7.207,7.1367,7.1289,7.1836,7.3789,7.6406,7.9219,8.1719,8.3203,8.4844,8.7812,8.9492,9.1133,9.3359,9.5078,9.6679,9.8437,9.9641,10.0612,10.1015,10.1399,10.1511,10.1093,10.1094,10.0898,10.0312,10.0781,10.1094,10.1094,10.1484,10.1795,10.1795,10.1285,10.1088,10.1088,10.0186,9.9599,9.9209,9.8335,9.7466,9.6606,9.5731,9.5059,9.4512,9.3849,9.3224,9.26,9.0023,8.8501,8.7759,8.6742,8.5936,8.5375,8.5375,8.4785,8.3796,8.2686,8.1513,8.0302,0.0,0.0,0.0,0.0,0.0,0.0,0.0,0.0,0.0,0.0,5.6158,5.7483,5.799,5.9428,6.0422,6.0662,6.1246,6.3355,6.7421,6.9296,7.1796,7.5273,7.7929,7.8707,7.7414,7.8304,7.8764,7.8755,7.8764,7.9081,7.9704,7.9715,7.9836,8.0109,8.097,8.1129,8.0819,8.1444,8.1366,8.082,8.1211,8.1211,8.0937,8.0508,7.9258,7.7773,7.7733,7.6327,7.4414,7.4022,7.3984,7.4297,7.5234,7.582,7.5859,7.4414,7.3515,7.3008,7.3242,7.4453,7.6055,7.7617,8.125,8.4531,8.5039,8.6797,8.8984,9.1328,9.2733,9.4333,9.6758,9.7572,9.8504,10.039,10.0982,10.1414,10.1788,10.2102,10.1918,10.1189,10.0882,10.0608,10.0217,10.1004,10.171,10.2098,10.2702,10.2997,10.2997,10.2396,10.1998,10.1688,10.0901,10.0389,10.0389,9.9583,9.8727,9.7932,9.7494,9.6763,9.5801,9.5272,9.4383,9.3142,9.1075,8.9908,8.9362,8.8072,8.6968,8.6093,8.6093,8.543,8.4437,8.3243,8.2258,8.1322,0.0,0.0,0.0,0.0,0.0,0.0,0.0,0.0,0.0,0.0,0.0,0.0,0.0,5.967,6.053,6.1307,6.1383,6.2907,6.6422,6.8234,7.0665,7.4104,7.6802,7.8233,7.8155,7.9139,7.9676,7.9676,7.9676,7.9677,7.9716,7.9682,8.0153,8.1012,8.1875,8.2734,8.3476,8.3515,8.3515,8.3398,8.2578,8.1758,8.082,7.918,7.75,7.5976,7.5976,7.3789,7.0976,7.1797,7.1015,7.0273,7.3594,7.4062,7.3711,7.5351,7.4023,7.2226,7.3086,7.5781,7.918,8.2539,8.6601,9.0195,9.1914,9.3008,9.4179,9.5937,9.6194,9.6683,9.8554,9.868,9.9155,10.1208,10.1289,10.1486,10.2388,10.169,10.0784,9.9977,9.9162,9.901,9.9743,10.0685,10.1885,10.3493,10.3508,10.3404,10.3404,10.3399,10.3015,10.209,10.1219,10.0799,10.0799,9.9919,9.9186,9.8587,9.9137,9.8783,9.7556,9.5663,9.3756,9.1921,9.0993,8.9639,8.8046,8.8007,8.7502,8.6758,8.6758,8.6243,8.534,8.4456,8.3597,8.2699,0.0,0.0,0.0,0.0,0.0,0.0,0.0,0.0,0.0,0.0,0.0,0.0,0.0,0.0,0.0,0.0,6.1412,6.2625,6.5558,6.786,7.0125,7.2435,7.6139,7.7877,7.7262,7.8691,7.972,8.0315,8.0304,8.0633,8.1283,8.1276,8.1517,8.1914,8.2773,8.3008,8.2773,8.3359,8.3281,8.2656,8.1797,8.125,8.0742,7.8515,7.5859,7.3242,0.0,7.1367,6.9844,6.957,6.9453,6.9726,7.1484,7.1797,7.1562,7.1511,7.2087,7.3285,7.5737,7.9349,8.3364,8.738,9.121,9.4259,9.539,9.6329,9.7114,9.7702,9.643,9.5563,9.6776,9.6911,9.7464,9.9307,10.0403,10.1312,10.2305,10.2612,10.1915,10.0017,10.0111,10.0095,9.9838,9.999,10.0905,10.2601,10.3102,10.3405,10.3405,10.3406,10.3195,10.2884,10.2095,10.1695,10.1695,10.0812,10.0296,9.9983,9.9091,9.8168,9.7178,9.5364,9.4164,9.3464,9.1444,8.9929,8.8802,8.8259,8.7436,8.655,8.655,8.6281,8.5878,8.5562,8.5285,8.4716,0.0,0.0,0.0,0.0,0.0,0.0,0.0,0.0,0.0,0.0,0.0,0.0,0.0,0.0,0.0,0.0,0.0,6.1836,6.4105,6.6396,6.8264,6.9674,7.3308,7.5015,7.4443,7.5853,7.7012,7.7885,7.8213,7.8984,8.0211,8.0507,8.1191,8.2164,8.2749,8.3023,8.3061,8.3023,8.2718,8.2064,8.0307,7.9217,7.8398,7.5508,7.2851,0.0,6.9255,6.8667,6.8433,6.7929,6.8043,6.8615,6.9835,7.0574,7.1065,7.106,7.2871,7.5696,7.9679,8.3668,8.7642,9.1654,9.4781,9.7126,9.7941,9.8338,9.8424,9.8116,9.5973,9.4364,9.4977,9.45,9.4613,9.6455,9.7766,9.9178,10.1117,10.1495,10.12,10.0195,10.0283,10.0384,10.0118,9.9963,10.059,10.24,10.3413,10.3903,10.36,10.3782,10.3714,10.3102,10.2482,10.2102,10.1792,10.1282,10.1003,10.101,9.9079,9.7992,9.757,9.5319,9.4227,9.4046,9.1792,9.0321,8.9469,8.8926,8.8086,8.7215,8.7215,8.7133,8.7017,8.7017,8.7017,8.6613,0.0,0.0,0.0,0.0,0.0,0.0,0.0,0.0,0.0,0.0,0.0,0.0,0.0,0.0,0.0,0.0,0.0,0.0,6.2148,6.3942,6.5262,6.6031,6.8649,7.0067,7.0145,7.112,7.2038,7.2929,7.3743,7.4948,7.6549,7.7362,7.9076,8.1382,8.1382,8.2314,8.3756,8.2119,8.1519,8.1278,7.8038,7.5803,7.4023,7.0664,6.8867,6.789,6.6148,6.601,6.6717,6.6831,6.6838,6.7117,6.8954,7.0641,7.224,7.4011,7.6336,7.9448,8.4625,8.848,9.1868,9.5381,9.7418,9.8786,9.9639,9.9097,9.8167,9.7275,9.4888,9.2948,9.2993,9.1506,9.0945,9.306,9.398,9.5729,9.9328,9.9098,9.9143,10.0698,10.0187,9.9994,10.0806,10.0692,10.1388,10.3212,10.4413,10.48,10.3982,10.4713,10.4405,10.2789,10.2712,10.2289,10.1394,10.1394,10.1279,10.1212,9.9183,9.8394,9.8615,9.5501,9.3933,9.3595,9.1941,9.071,8.9893,8.9893,8.944,8.8718,8.8718,8.8718,8.8718,8.8718,8.8718,8.8372,0.0,0.0,0.0,0.0,0.0,0.0,0.0,0.0,0.0,0.0,0.0,0.0,0.0,0.0,0.0,0.0,0.0,0.0,6.0298,6.265,6.4101,6.4334,6.6792,6.8486,6.914,6.9982,7.0863,7.1712,7.1944,7.2336,7.2861,7.3094,7.3588,7.4309,7.4309,7.4543,7.4972,7.5164,7.4981,7.4417,7.3555,7.2603,7.1523,7.0,6.8434,6.7086,6.727,6.6958,6.6513,6.6635,6.7918,6.9857,7.2214,7.3681,7.5113,7.7994,8.0629,8.3738,8.8804,9.2179,9.5132,9.8582,9.9248,9.9325,10.0185,9.875,9.6618,9.4531,9.1495,8.868,8.6826,8.7603,8.9333,9.1772,9.5458,9.9204,10.2692,10.411,10.4597,10.4403,10.479,10.4906,10.4403,10.4885,10.5319,10.5705,10.538,10.4982,10.4789,10.5597,10.5597,10.4482,10.3905,10.3482,10.3212,10.2597,10.1597,10.0414,9.9221,9.8365,9.775,9.5049,9.3769,9.3595,9.1941,9.071,8.9893,8.9893,8.944,8.8718,8.8718,8.8718,8.8718,8.8718,8.8718,8.8603,0.0,0.0,0.0,0.0,0.0,0.0,0.0,0.0,0.0,0.0,0.0,0.0,0.0,0.0,0.0,0.0,0.0,0.0,0.0,6.1208,6.2325,6.2411,6.3868,6.4909,6.5407,6.6224,6.6882,6.7384,6.8158,6.8738,6.9174,6.9558,7.0166,7.0933,7.0933,7.1166,7.1513,7.1629,7.1479,0.0,0.0,6.9252,6.876,6.751,6.6631,6.6122,6.6553,6.7032,6.7824,7.0101,7.1886,7.3553,7.6044,7.7688,7.9369,8.2716,8.5506,8.8344,9.2292,9.5506,9.8299,10.062,10.0496,9.9723,9.9065,9.6976,9.4191,9.0858,8.777,8.5101,8.3283,8.4443,8.6494,8.9047,9.3449,9.8129,10.2701,10.4481,10.568,10.6686,10.7305,10.7382,10.6918,10.7109,10.7484,10.7909,10.722,10.6697,10.63,10.7021,10.6905,10.5713,10.5213,10.4597,10.3905,10.3405,10.2481,10.1212,9.9952,9.8904,9.798,9.5451,9.4057,9.3633,9.2326,9.1287,9.047,9.047,9.021,8.9787,8.9787,8.9787,8.9787,8.9787,8.9787,8.9787,0.0,0.0,0.0,0.0,0.0,0.0,0.0,0.0,0.0,0.0,0.0,0.0,0.0,0.0,0.0,0.0,0.0,0.0,0.0,0.0,6.0476,6.0812,6.0997,6.107,6.1118,6.1848,6.2235,6.2235,6.3748,6.4836,6.5528,6.6301,6.7423,6.8821,6.8821,6.9247,6.9899,6.9401,6.9183,6.901,6.7014,6.6251,6.6096,0.0,6.4632,6.53,6.5393,6.6862,6.9623,7.4966,7.6908,7.7554,8.0359,8.2509,8.4643,8.7925,9.0555,9.2953,9.5623,9.8524,10.1007,10.1696,10.1201,9.9684,9.6938,9.4307,9.1244,8.6835,8.4057,8.2122,8.1033,8.1813,8.3592,8.6455,9.0633,9.5623,10.1696,10.3398,10.5216,10.8388,10.8813,10.8813,10.8813,10.8589,10.8913,10.968,10.9591,10.9011,10.7898,10.8608,10.8406,10.679,10.6703,10.5905,10.4212,10.4212,10.3712,10.2597,10.0981,9.976,9.8711,9.6297,9.472,9.3826,9.2903,9.2056,9.1364,9.1248,9.121,9.121,9.121,9.121,9.121,9.121,9.121,9.121,0.0,0.0,0.0,0.0,0.0,0.0,0.0,0.0,0.0,0.0,5.4592,5.5322,0.0,0.0,0.0,0.0,0.0,0.0,0.0,0.0,0.0,6.0928,6.1002,6.1036,6.1113,6.1234,6.135,6.135,6.1621,6.1853,6.2008,6.2124,6.2356,6.2627,6.2627,6.2743,6.2936,6.4256,6.4446,6.3983,6.4943,6.4951,6.452,6.4909,6.5082,0.0,6.6611,6.7836,6.9816,7.6359,7.9013,8.0392,8.5107,8.8234,9.0671,9.3379,9.5004,9.6628,9.9916,10.1193,10.1696,10.1897,10.069,9.8485,9.4578,9.1677,8.8428,8.3431,8.1459,7.9956,7.7713,7.9724,8.3283,8.7963,9.2915,9.8485,10.5185,10.7382,10.92,11.1203,11.1396,11.1396,11.1396,11.1409,11.1404,11.1505,11.1394,11.0584,10.8895,10.9612,10.9483,10.8482,10.8482,10.7713,10.602,10.602,10.4779,10.2597,10.1597,10.0289,9.875,9.6903,9.5595,9.4681,9.3172,9.2402,9.221,9.1518,9.121,9.121,9.121,9.121,9.121,9.121,9.121,9.121,0.0,0.0,0.0,0.0,0.0,0.0,0.0,5.2531,5.2717,5.4834,5.4987,5.5067,5.5454,5.5876,5.605,0.0,0.0,0.0,0.0,0.0,0.0,6.0866,6.0997,6.1056,6.1118,6.1539,6.1539,6.1118,0.0,6.1539,6.1118,6.1118,6.1118,6.1118,6.1118,6.1118,6.1157,6.2008,6.2412,6.2568,6.3378,6.4049,6.4582,6.4978,6.5354,0.0,6.7067,6.8313,7.0208,7.5276,7.9028,8.2625,8.8653,9.1986,9.4114,9.6241,9.775,9.922,10.1309,10.2895,10.3784,10.332,10.1618,9.8524,9.2915,8.9317,8.5604,7.9995,7.8525,7.7867,7.6635,7.8834,8.2077,8.5913,9.0091,9.5552,10.329,10.5409,10.7691,11.159,11.2093,11.2093,11.2093,11.2019,11.2014,11.1891,11.178,11.1277,11.0379,11.0315,10.9983,10.9598,10.9098,10.829,10.7098,10.7098,10.602,10.3905,10.2597,10.1289,10.0019,9.7904,9.648,9.5595,9.4364,9.3287,9.2479,9.2056,9.1595,9.121,9.121,9.121,9.121,9.121,9.121,9.121,0.0,0.0,0.0,0.0,0.0,0.0,0.0,5.2457,5.2754,5.5874,5.5767,5.5378,5.5378,5.5816,5.6024,0.0,0.0,0.0,0.0,0.0,0.0,0.0,0.0,0.0,6.1118,0.0,0.0,6.1118,6.1771,0.0,0.0,0.0,0.0,0.0,6.1118,6.1118,6.1118,6.1311,6.1892,0.0,0.0,6.3864,6.5262,0.0,0.0,0.0,0.0,6.8081,6.9788,7.3568,7.779,8.2554,8.9047,9.2992,9.5468,9.6667,9.8717,10.0806,10.1889,10.3901,10.5401,10.421,10.2082,9.8446,9.1213,8.7228,8.3399,7.7603,7.6403,7.6403,7.6403,7.8177,8.0653,8.3631,8.6803,9.187,10.038,10.2701,10.5487,11.1203,11.2015,11.2093,11.2093,11.1993,11.1909,11.1891,11.15,11.1409,11.1609,11.092,11.0483,11.0483,10.9598,10.879,10.7982,10.779,10.679,10.5107,10.3597,10.2289,10.1202,9.9058,9.7519,9.6519,9.5634,9.4335,9.2749,9.2556,9.1979,9.121,9.121,9.121,9.121,9.121,9.121,9.121,0.0,0.0,0.0,0.0,0.0,0.0,0.0,5.2568,5.3423,5.5986,5.651,5.6626,5.6626,5.6008,5.5688,0.0,0.0,0.0,0.0,0.0,0.0,0.0,0.0,0.0,0.0,0.0,0.0,6.1118,6.1195,0.0,0.0,0.0,0.0,0.0,0.0,6.1118,6.1157,6.1926,0.0,0.0,0.0,0.0,0.0,0.0,0.0,0.0,0.0,6.6417,6.7307,7.2336,7.5353,7.7912,8.3244,8.924,9.4199,9.365,9.686,10.1007,10.2585,10.4403,10.5092,10.2701,10.0806,9.724,8.8846,8.5526,8.2703,7.7486,7.6403,7.6403,7.6403,7.7254,7.926,8.3438,8.63,9.0981,9.9529,10.2817,10.5912,11.0399,11.159,11.2093,11.2093,11.2084,11.201,11.1891,11.0999,11.0713,11.1494,11.1406,11.1406,11.1406,11.0483,10.9713,10.879,10.8098,10.679,10.5107,10.4212,10.2904,10.1289,10.0289,9.8952,9.7326,9.6519,9.5172,9.3518,9.2787,9.1979,9.121,9.121,9.121,9.121,9.121,9.121,9.121,0.0,0.0,0.0,0.0,0.0,0.0,5.2234,5.2605,5.3683,5.6617,5.7323,5.7586,5.7792,5.7231,5.6693,5.638,0.0,0.0,0.0,0.0,0.0,0.0,0.0,0.0,0.0,0.0,6.1059,6.1059,6.1056,0.0,0.0,0.0,0.0,0.0,0.0,6.1118,6.1157,6.2042,0.0,0.0,0.0,0.0,0.0,0.0,0.0,0.0,0.0,0.0,6.8081,7.0126,7.2955,7.5817,7.6862,8.1504,8.7383,9.1709,9.5506,9.9027,10.2315,10.479,10.5989,10.3901,10.0999,9.6744,8.9743,8.5643,8.2013,7.737,7.6403,7.6558,7.71,7.7061,7.7983,8.1233,8.22,8.5178,9.269,9.5042,9.8717,10.6105,10.7683,10.9308,11.1783,11.201,11.1912,11.1713,11.0793,11.042,11.0714,11.0214,10.9906,10.9906,10.9598,10.8983,10.8213,10.7905,10.7098,10.5905,10.4982,10.3982,10.2789,10.0904,9.9452,9.8211,9.6865,9.5326,9.3672,9.3364,9.2402,9.121,9.121,9.121,9.121,9.121,9.121,9.121,0.0,0.0,0.0,0.0,0.0,4.967,5.1899,5.2457,5.3646,5.6515,5.7415,5.8018,5.8577,5.82,5.766,5.7161,5.7672,0.0,0.0,0.0,0.0,0.0,0.0,0.0,0.0,0.0,6.0992,6.0992,6.0995,6.1016,0.0,0.0,6.108,6.1056,0.0,0.0,0.0,0.0,0.0,0.0,0.0,0.0,0.0,0.0,0.0,0.0,0.0,0.0,0.0,0.0,0.0,7.3748,7.2843,7.5788,8.086,8.7338,9.2451,9.6783,10.0303,10.3707,10.5912,10.4403,10.0883,9.6164,9.0168,8.5688,8.1587,7.7293,7.6403,7.6597,7.7216,7.7022,7.737,7.9183,7.9608,8.1852,8.7963,8.9936,9.3727,10.1618,10.3312,10.5509,10.9815,11.1216,11.1501,11.089,11.02,10.9713,10.9483,10.8598,10.8406,10.8906,10.8713,10.829,10.7713,10.7405,10.6905,10.602,10.5213,10.4289,10.3405,10.1404,9.9827,9.8711,9.7557,9.5903,9.4057,9.3787,9.2864,9.1556,9.1287,9.121,9.1248,9.1479,9.1595,9.1633,0.0,0.0,0.0,0.0,0.0,0.0,5.1156,5.2085,5.3302,5.5278,5.6555,5.7727,5.887,5.8577,5.8275,5.8275,5.6736,0.0,0.0,0.0,0.0,0.0,0.0,0.0,0.0,0.0,6.0992,6.0992,6.0992,6.0992,6.0992,6.0992,6.0985,6.1007,0.0,0.0,0.0,0.0,0.0,0.0,0.0,0.0,6.6091,0.0,0.0,0.0,0.0,0.0,0.0,0.0,0.0,0.0,0.0,7.368,7.5772,7.9313,8.6919,9.4624,9.6396,10.0613,10.421,10.3398,9.9994,9.5236,8.9272,8.5256,8.1587,7.7293,7.6403,7.6403,7.6403,7.71,7.7713,7.7719,7.984,8.2967,8.7299,9.0084,9.3302,9.7634,9.8864,10.0999,10.5284,10.9302,11.088,10.931,10.9017,10.8598,10.779,10.6895,10.7213,10.879,10.8098,10.7713,10.7713,10.678,10.602,10.5107,10.4289,10.3482,10.2597,10.1712,10.0404,9.8788,9.8788,9.7336,9.4912,9.4066,9.321,9.2402,9.1556,9.121,9.1287,9.2172,9.2479,9.2595,0.0,0.0,0.0,0.0,0.0,0.0,0.0,5.1066,5.2128,5.4613,5.5531,5.648,5.7929,5.7701,5.7401,5.7401,5.6901,0.0,0.0,0.0,0.0,0.0,0.0,0.0,0.0,0.0,5.9953,5.9953,6.0608,6.0938,6.0938,6.0976,6.1003,6.098,6.098,6.099,0.0,0.0,0.0,0.0,0.0,6.5899,6.5699,0.0,0.0,0.0,0.0,0.0,0.0,0.0,0.0,0.0,0.0,0.0,0.0,7.5253,8.1627,8.8621,9.0981,9.4462,9.7092,9.57,9.3846,9.1096,8.631,8.3448,8.0742,7.7035,7.5806,7.5922,7.7653,7.7267,7.7615,8.0588,8.1246,8.2316,8.4828,8.8432,9.2605,9.7518,10.3883,10.8379,10.9601,11.0293,11.0503,10.9892,10.8811,10.7982,10.7713,10.6905,10.6587,10.7213,10.6405,10.5905,10.5905,10.5097,10.4597,10.4299,10.3982,10.3405,10.2597,10.1712,10.0404,9.875,9.8173,9.6788,9.4989,9.472,9.4104,9.3287,9.3018,9.2556,9.2172,9.3018,9.2979,9.2633,0.0,0.0,0.0,0.0,0.0,0.0,0.0,5.0774,5.1621,5.3126,5.4202,5.5365,5.6792,5.6691,5.6632,5.6983,5.6709,0.0,0.0,0.0,0.0,0.0,0.0,0.0,0.0,5.9088,5.9819,6.0473,6.1355,6.1795,6.1795,6.2182,6.2018,6.1423,6.1423,6.1241,0.0,0.0,0.0,0.0,6.5681,6.5883,6.5685,0.0,0.0,0.0,0.0,0.0,0.0,0.0,0.0,0.0,0.0,0.0,0.0,0.0,7.7576,8.2631,8.6194,8.9634,9.2108,9.1714,8.9977,8.7546,8.4611,8.2066,7.9478,7.6353,7.5543,7.5774,7.7047,7.6931,7.7587,8.0249,8.0813,8.171,8.4059,8.7849,9.24,9.7852,10.5005,10.93,10.8781,10.9704,10.9979,10.9301,10.829,10.7598,10.7213,10.6703,10.6395,10.6395,10.5597,10.4992,10.4723,10.4222,10.3712,10.3405,10.3405,10.2981,10.2097,10.151,10.0404,9.875,9.8211,9.7019,0.0,9.5143,9.4681,9.4181,9.3826,9.321,9.2595,9.3403,9.3172,9.2633,0.0,0.0,0.0,0.0,0.0,0.0,0.0,5.0949,5.1508,5.1154,5.271,5.4293,5.5467,5.5643,5.6,5.6824,0.0,0.0,0.0,0.0,0.0,0.0,0.0,0.0,0.0,5.9011,6.0237,6.195,6.2808,6.3257,6.3329,6.4141,6.3646,6.2148,6.2126,6.1704,0.0,0.0,0.0,0.0,6.5558,6.5907,0.0,0.0,0.0,0.0,0.0,0.0,0.0,0.0,0.0,0.0,0.0,0.0,0.0,0.0,0.0,0.0,0.0,8.5666,8.8575,9.0119,8.7603,8.4469,8.3575,8.0944,0.0,7.542,7.5491,7.5831,7.5189,7.6346,7.7465,7.7721,7.9178,8.1432,8.4716,8.8557,9.3153,9.8954,10.3309,10.5416,10.4481,10.7787,10.9483,10.7905,10.7713,10.729,10.6395,10.6395,10.6405,10.628,10.5482,10.4713,10.3905,10.3789,10.3289,10.252,10.252,10.2097,10.1279,10.1279,10.0404,9.8904,9.8827,9.7865,9.6326,9.5451,9.5104,9.5027,9.422,9.3364,9.2672,9.348,9.3249,9.2633,0.0,0.0,0.0,0.0,0.0,0.0,0.0,0.0,0.0,0.0,5.2041,5.3147,5.4272,5.498,5.555,0.0,0.0,0.0,0.0,0.0,0.0,0.0,0.0,0.0,0.0,5.8127,5.9252,6.0637,6.1799,6.2705,6.3392,6.3524,6.3239,6.2533,6.2246,6.1624,0.0,0.0,0.0,0.0,6.4582,6.514,0.0,0.0,0.0,0.0,6.4637,6.5564,0.0,0.0,0.0,0.0,0.0,0.0,0.0,0.0,7.4256,7.5456,7.7312,0.0,8.1112,8.0842,8.0947,8.0743,0.0,7.8241,7.7112,7.5148,7.441,7.4679,7.6419,7.6534,7.7227,7.9838,8.1137,8.2622,8.4743,9.2502,9.945,10.3502,10.7615,10.93,10.7102,10.8321,10.8983,10.8598,10.7405,10.6587,10.6395,10.6395,10.6097,10.5405,10.5223,10.4713,10.3905,10.2597,10.1779,10.1587,10.1587,10.151,10.1279,10.1279,10.0712,9.976,9.9106,9.8211,9.7134,9.6326,9.598,9.598,9.5788,9.4749,9.3518,9.4373,9.3758,9.2633,0.0,0.0,0.0,0.0,0.0,0.0,0.0,0.0,0.0,0.0,0.0,5.278,5.339,5.4543,0.0,0.0,0.0,0.0,0.0,0.0,0.0,0.0,0.0,5.6285,5.7555,5.789,5.9128,6.1373,6.2302,6.3169,6.399,6.4351,6.3893,6.2717,6.1889,6.1248,0.0,0.0,6.2551,6.3391,6.4237,0.0,0.0,0.0,0.0,0.0,6.5224,6.6087,0.0,6.8112,6.9473,7.086,0.0,0.0,0.0,0.0,7.4084,7.4892,7.5745,7.6734,7.7498,7.7414,7.7771,7.7966,7.7466,7.7013,7.6207,7.4507,7.4392,7.4938,7.5938,7.6669,7.8015,8.0669,8.2163,8.4566,8.8997,9.5478,10.1422,10.6005,10.8492,10.9588,10.8988,10.8898,10.8713,10.8406,10.7087,10.6395,10.6395,10.6395,10.6213,10.5713,10.529,10.4713,10.3905,10.2597,10.1904,10.1904,10.151,10.1279,10.1279,10.1279,10.0904,10.0106,9.9606,9.8673,9.748,9.7019,9.6634,9.6249,9.5865,9.4864,9.3749,9.422,9.3326,9.2018,0.0,0.0,0.0,0.0,0.0,0.0,0.0,0.0,0.0,0.0,0.0,0.0,0.0,0.0,0.0,0.0,0.0,0.0,0.0,0.0,0.0,0.0,0.0,5.636,5.8127,5.7812,5.9264,6.262,6.3348,6.4162,6.5133,6.6034,6.5237,6.3002,6.1754,6.105,0.0,0.0,6.2435,6.3352,6.4089,0.0,0.0,0.0,0.0,0.0,0.0,0.0,0.0,6.8725,7.0438,7.2059,7.1168,0.0,0.0,0.0,0.0,0.0,7.5976,7.6399,7.6669,7.7015,7.6553,7.6207,7.6945,7.6438,7.5438,7.4161,7.5014,7.5938,7.5707,7.7438,7.9561,8.1554,8.3657,8.7671,9.5191,9.8421,10.1908,10.6998,10.8096,10.8818,10.9809,10.9304,10.8598,10.7905,10.7021,10.6395,10.6395,10.6395,10.6395,10.6395,10.5713,10.4905,10.4097,10.3097,10.2597,10.2597,10.1712,10.1279,10.1279,10.1279,10.0904,10.0298,10.0183,9.9183,9.7673,9.7557,9.7019,9.6249,9.5489,9.4681,9.3912,9.3912,9.2903,9.1672,0.0,0.0,0.0,0.0,0.0,0.0,0.0,0.0,0.0,0.0,0.0,0.0,0.0,0.0,0.0,0.0,0.0,0.0,0.0,0.0,0.0,5.4945,5.4945,5.5743,5.7415,5.74,5.8849,6.1855,6.3639,6.5339,6.6918,6.8034,6.7049,6.4296,6.3334,6.2127,6.0825,0.0,6.1897,6.3314,6.3468,0.0,0.0,0.0,0.0,0.0,0.0,0.0,0.0,6.8446,7.0133,7.2059,7.1168,0.0,0.0,0.0,0.0,0.0,7.6868,7.813,7.8746,7.6707,7.6092,7.6053,7.6169,7.5515,7.5053,7.5515,7.5822,7.6823,7.9592,8.0439,8.1708,8.4824,8.8603,9.3572,10.0584,10.3117,10.4792,10.6488,10.9219,11.0196,10.8311,10.8608,10.879,10.8713,10.729,10.6395,10.6395,10.6395,10.6395,10.6395,10.629,10.579,10.4905,10.3405,10.2597,10.2597,10.1712,10.1279,10.1279,10.1279,10.1202,10.1096,10.0414,9.9529,9.8519,9.7788,9.7019,9.6288,9.6134,9.5557,9.4797,9.4797,9.4181,9.3249,0.0,0.0,0.0,0.0,0.0,0.0,0.0,0.0,0.0,0.0,0.0,0.0,0.0,0.0,0.0,0.0,0.0,0.0,0.0,0.0,5.5831,5.5831,5.6723,5.7464,5.7936,5.8639,6.0735,6.4346,6.5955,6.7529,6.8964,6.7612,6.6047,6.4207,6.2637,6.1781,6.1518,6.1518,6.2474,6.4006,0.0,0.0,0.0,0.0,0.0,0.0,0.0,0.0,0.0,0.0,7.0821,7.2059,7.1168,0.0,0.0,0.0,0.0,0.0,7.6361,7.7169,7.7784,7.8015,7.9092,7.9869,7.8977,7.8784,7.8669,7.8169,7.8438,7.9361,8.1362,8.3632,8.6901,9.2133,9.4634,9.7499,10.2011,10.328,10.481,10.7515,10.8783,10.9511,10.9713,10.9213,10.8713,10.829,10.7098,10.6395,10.6395,10.6395,10.6395,10.6395,10.5905,10.529,10.4492,10.3212,10.2597,10.2597,10.1712,10.1279,10.1279,10.1279,10.1279,10.1289,10.0904,9.9981,9.875,9.8365,9.7442,9.6249,9.5788,9.5335,9.4951,9.4489,9.4335,9.4296,0.0,0.0,0.0,0.0,0.0,0.0,0.0,0.0,0.0,0.0,0.0,0.0,0.0,0.0,0.0,0.0,0.0,0.0,0.0,0.0,5.6312,5.6312,5.8156,5.9234,5.9401,6.0661,6.3198,6.7052,6.8587,7.0069,7.1326,6.8002,6.5864,6.4645,6.2612,6.1826,6.2095,6.2287,6.3243,6.4628,0.0,0.0,0.0,0.0,0.0,0.0,0.0,0.0,0.0,0.0,0.0,0.0,0.0,0.0,0.0,7.3499,7.4106,7.5011,7.5902,7.644,7.7224,7.93,8.0823,8.19,8.2208,8.2285,8.2285,8.2162,8.2554,8.317,8.4209,8.7709,9.2441,9.8404,9.9904,10.1212,10.3982,10.4405,10.5713,10.9406,10.9098,10.9406,11.1588,11.0214,10.8906,10.8021,10.7213,10.6587,10.6395,10.6395,10.628,10.6097,10.5597,10.4789,10.3597,10.3097,10.2712,10.2289,10.1587,10.1279,10.1279,10.1279,10.1279,10.1279,10.1279,10.0289,9.8788,9.8788,9.7904,9.6519,9.5634,9.5297,9.522,9.4557,9.4711,9.5181,0.0,0.0,0.0,0.0,0.0,0.0,0.0,0.0,0.0,0.0,0.0,0.0,0.0,0.0,0.0,0.0,0.0,0.0,0.0,0.0,5.5133,5.5133,5.7438,5.9791,6.2092,6.3304,6.5379,6.8356,7.076,7.2739,7.4217,7.1304,6.8839,6.6795,6.5083,6.3512,6.2133,6.2897,6.3737,6.4666,6.5474,0.0,0.0,0.0,0.0,0.0,0.0,0.0,0.0,0.0,0.0,0.0,0.0,0.0,7.3967,7.3526,7.4295,7.5468,7.6317,7.7694,7.9045,7.9668,7.8169,7.8169,8.4324,8.3978,8.3593,8.8201,8.8632,8.8641,9.0248,9.3403,9.6942,10.051,10.3097,10.579,10.9185,10.9686,11.0291,11.2214,11.1703,11.1588,11.2511,11.1098,10.9713,10.8906,10.8098,10.729,10.6395,10.6395,10.602,10.5213,10.5905,10.5097,10.2712,10.3405,10.2981,10.1394,10.1279,10.1279,10.1279,10.1279,10.1279,10.1279,10.1279,10.0289,9.8788,9.8788,9.825,9.7326,9.6519,9.6211,9.6211,9.6134,9.6134,9.6095,0.0,0.0,0.0,0.0,0.0,0.0,0.0,0.0,0.0,0.0,0.0,0.0,0.0,0.0,0.0,0.0,0.0,0.0,0.0,5.553,5.6533,5.6533,5.9607,6.2108,6.3862,6.5855,6.8909,7.3038,7.508,7.5268,7.3735,7.1123,6.836,6.5468,6.4101,6.3138,6.2588,6.3153,6.3909,6.4756,6.5595,6.6129,0.0,0.0,0.0,0.0,0.0,0.0,0.0,0.0,7.043,7.1319,7.0986,7.1806,7.2871,7.2698,7.2993,7.3659,7.5028,7.6493,7.8018,7.9757,7.9673,8.0516,8.5747,8.7401,8.8556,9.1018,9.2556,9.3787,9.4903,9.7057,9.975,10.3097,10.5405,10.7482,10.9916,11.0714,11.1214,11.1906,11.1703,11.178,11.2588,11.1214,10.979,10.8983,10.8213,10.729,10.6395,10.6395,10.6203,10.5905,10.5213,10.4097,10.2597,10.2404,10.1712,10.0606,10.1096,10.1279,10.1279,10.1279,10.1279,10.1279,10.1279,10.0712,9.9606,9.9606,9.8788,9.748,9.7173,9.7057,9.7096,9.7634,9.7173,9.6403,0.0,0.0,0.0,0.0,0.0,0.0,0.0,0.0,0.0,0.0,0.0,0.0,0.0,0.0,0.0,0.0,0.0,0.0,5.3784,5.5652,5.683,5.71,6.0224,6.2848,6.4753,6.7491,7.0908,7.5057,7.716,7.6501,7.326,7.1099,6.86,6.5925,6.4428,6.3923,6.4173,6.4255,6.4614,6.5192,6.6054,6.6395,0.0,0.0,0.0,0.0,0.0,0.0,0.0,0.0,7.0071,7.0535,7.0634,7.1302,7.2054,7.2165,7.2455,7.3017,7.403,7.5073,7.6475,7.9133,8.0425,8.2382,8.7436,9.0171,9.2402,9.5134,9.6211,9.6942,9.775,9.8904,10.0798,10.4222,10.6405,10.829,10.9993,11.0483,11.0906,11.1395,11.1011,11.1098,11.2203,11.0791,10.9406,10.8598,10.7982,10.729,10.6395,10.6395,10.6213,10.5587,10.4713,10.3597,10.2212,10.1904,10.1289,10.0481,10.1019,10.1279,10.1279,10.1279,10.1279,10.1279,10.1019,10.0481,9.9683,9.9683,9.8981,9.7942,9.8211,9.8134,9.798,9.8596,9.8057,9.725,0.0,0.0,0.0,0.0,0.0,0.0,0.0,0.0,0.0,0.0,0.0,0.0,0.0,0.0,0.0,0.0,0.0,0.0,5.3784,5.4564,5.5382,5.6246,5.8613,6.1436,6.4668,6.8011,7.0908,7.3423,7.6294,7.6198,7.3336,7.167,7.0184,6.8864,6.6815,6.6369,6.7032,6.6283,6.6007,6.6045,6.687,6.722,0.0,0.0,0.0,0.0,0.0,0.0,0.0,0.0,6.9683,7.007,7.2126,7.2245,7.1681,7.2087,7.3018,7.3887,7.358,7.3749,7.4719,7.7771,7.9817,8.2832,8.9674,9.1902,9.4441,10.1212,9.9904,9.7827,9.8673,9.8827,9.9942,10.3289,10.5982,10.829,10.9993,10.9483,10.9483,11.1291,10.9983,10.9598,11.128,10.9906,10.8598,10.7713,10.7713,10.729,10.6395,10.6395,10.5587,10.3982,10.4723,10.3905,10.1279,10.2212,10.2212,10.1279,10.1279,10.1279,10.1279,10.1279,10.1279,10.1289,10.0404,9.9606,9.8827,9.8827,9.8827,9.8904,9.976,9.9567,9.8788,9.8827,9.8788,9.8788,0.0,0.0,0.0,0.0,0.0,0.0,0.0,0.0,0.0,0.0,0.0,0.0,0.0,0.0,0.0,0.0,0.0,0.0,5.3784,5.4564,5.5382,5.6246,5.8056,5.9765,6.1325,6.5745,7.0066,7.424,7.5446,7.4356,7.1197,7.0435,6.8896,6.6844,6.7124,6.6407,6.4995,6.5095,6.5165,6.5277,6.6698,6.7247,0.0,0.0,0.0,0.0,0.0,0.0,0.0,0.0,0.0,0.0,7.0421,7.1267,7.1951,7.1441,7.1541,7.1938,7.2443,7.3556,7.547,7.9311,8.2591,8.6444,9.2486,9.4066,9.6028,10.2212,10.2212,10.1019,10.0596,10.1597,10.2712,10.3712,10.5482,10.7405,10.8983,10.9598,10.9598,10.8906,10.9406,10.979,10.9713,10.9213,10.829,10.6895,10.7405,10.7098,10.5597,10.6097,10.5905,10.4789,10.4405,10.3597,10.2212,10.1904,10.1597,10.1279,10.1279,10.1279,10.1279,10.1279,10.1279,10.1289,10.0404,10.0289,10.0519,9.9942,9.9981,10.0519,10.0212,9.9952,9.9798,10.0289,9.9827,9.8981,0.0,0.0,0.0,0.0,0.0,0.0,0.0,0.0,0.0,0.0,0.0,0.0,0.0,0.0,0.0,0.0,0.0,0.0,0.0,5.4248,5.5038,5.6149,5.7526,5.9356,6.1808,6.5411,6.8753,7.1701,7.3305,7.245,6.9336,7.0245,6.9771,6.8178,6.9784,6.9131,6.6818,6.7114,6.6488,6.5448,6.7119,6.7602,6.7489,0.0,0.0,0.0,0.0,0.0,0.0,0.0,0.0,0.0,6.9608,7.04,7.118,7.0945,7.1244,7.1912,7.3118,7.4671,7.7089,8.1733,8.5186,8.8984,9.4822,9.7635,10.0212,10.4482,10.3905,10.252,10.2404,10.2404,10.2712,10.3712,10.529,10.7021,10.8713,10.879,10.8598,10.8213,10.8213,10.8213,10.8406,10.8098,10.7521,10.651,10.6597,10.6405,10.5713,10.579,10.5597,10.5107,10.4289,10.3482,10.2597,10.1702,10.1279,10.1279,10.1279,10.1279,10.1279,10.1279,10.1087,10.0789,9.9942,9.9673,9.9827,9.9981,10.0414,10.0789,10.0596,10.0596,10.0596,10.1087,10.0712,9.9942,0.0,0.0,0.0,0.0,0.0,0.0,0.0,0.0,0.0,0.0,0.0,0.0,0.0,0.0,0.0,0.0,0.0,0.0,0.0,0.0,5.458,5.6162,5.7309,6.0099,6.4705,6.6302,6.7082,6.7082,7.0227,7.0373,6.7819,7.0647,7.1789,7.1522,7.3503,7.3038,7.0796,7.0648,6.8865,6.6339,6.7973,6.8122,6.7565,6.9125,0.0,0.0,0.0,0.0,0.0,0.0,0.0,0.0,6.9459,6.9719,6.9831,7.0574,7.1711,7.3082,7.4852,7.6539,7.9112,8.4852,8.8117,9.1391,9.691,10.1685,10.5403,10.701,10.5097,10.3289,10.3905,10.2106,10.1299,10.3482,10.5213,10.679,10.8406,10.7405,10.7098,10.8482,10.6713,10.5905,10.7405,10.6905,10.628,10.6203,10.5482,10.5405,10.601,10.5405,10.4992,10.4915,10.4212,10.3405,10.252,10.1712,10.1279,10.1279,10.1279,10.1279,10.1279,10.1279,10.0789,9.9952,9.9144,9.8365,9.775,9.9413,10.0106,10.0298,10.1019,10.1279,10.1279,10.1279,10.1279,10.1279,0.0,0.0,0.0,0.0,0.0,0.0,0.0,0.0,0.0,0.0,0.0,0.0,0.0,0.0,0.0,0.0,0.0,0.0,0.0,0.0,5.5303,5.7134,5.9865,6.2439,6.4742,6.5151,6.5336,6.5336,6.7342,6.8034,6.7459,6.936,7.0524,7.1095,7.2197,7.1701,6.9868,6.8605,6.7676,6.7193,6.8791,6.8976,6.8345,6.9348,0.0,0.0,0.0,0.0,0.0,0.0,0.0,0.0,6.9459,6.9719,6.9719,6.9905,7.0852,7.2413,7.4971,7.694,8.0121,8.7919,9.38,9.8151,9.986,10.1901,10.3721,10.4487,10.5713,10.6213,10.5107,10.4415,10.3982,10.3905,10.4713,10.5713,10.679,10.7213,10.729,10.7021,10.7098,10.7021,10.6703,10.651,10.5905,10.4482,10.4789,10.4597,10.352,10.3905,10.3789,10.3212,10.2981,10.252,10.1597,10.1394,10.1279,10.1279,10.1279,10.1279,10.1279,10.1279,10.0519,9.9067,9.8865,9.8673,9.8596,9.9644,10.0491,10.1096,10.1202,10.1279,10.1279,10.1279,10.1279,10.1279,0.0,0.0,0.0,0.0,0.0,0.0,0.0,0.0,0.0,0.0,0.0,0.0,0.0,0.0,0.0,0.0,0.0,0.0,0.0,0.0,5.5849,5.8381,6.0863,6.2812,6.4105,6.4142,6.435,6.4816,6.5671,6.6525,6.7342,6.9348,7.0945,7.2146,7.3385,7.2555,7.0239,6.9806,6.8951,6.7973,6.9199,6.9236,6.8568,6.8976,0.0,0.0,6.6859,0.0,0.0,0.0,0.0,0.0,0.0,0.0,6.9125,6.9125,7.0553,7.2791,7.5649,7.8879,8.3335,9.1356,9.6329,9.9549,10.0506,10.2106,10.3519,10.3788,10.4701,10.5317,10.4605,10.3789,10.3289,10.3289,10.3982,10.4982,10.6203,10.6405,10.6405,10.6395,10.6405,10.629,10.579,10.579,10.5405,10.4482,10.4097,10.3712,10.3212,10.3289,10.3289,10.3212,10.2404,10.202,10.1894,10.1096,10.0904,10.1279,10.1279,10.1279,10.1289,10.0519,9.9404,9.8173,9.8173,9.7942,9.7711,9.9413,9.9865,9.9596,10.0779,10.1096,10.0789,10.1212,10.1279,10.1279,0.0,0.0,0.0,0.0,0.0,0.0,0.0,0.0,0.0,0.0,0.0,0.0,0.0,0.0,0.0,0.0,0.0,0.0,0.0,0.0,0.0,5.9848,6.1422,6.2748,6.3789,6.3702,6.4093,6.5039,6.5039,6.6116,6.8208,7.0054,7.1874,7.3645,7.4723,7.367,7.1131,7.1453,7.0363,6.8568,6.9385,6.9125,6.8308,0.0,0.0,0.0,6.6302,6.6413,6.6599,6.7268,0.0,0.0,0.0,0.0,6.8493,6.8493,7.0441,7.3204,7.6096,8.1257,8.7402,9.4083,9.7134,9.8756,9.9808,10.1609,10.3093,10.3202,10.3317,10.3507,10.3806,10.2597,10.1712,10.2289,10.3097,10.4212,10.551,10.529,10.5213,10.5905,10.529,10.4905,10.4905,10.4905,10.4789,10.4723,10.3405,10.2789,10.3405,10.2789,10.2597,10.3212,10.1789,10.1404,10.1904,10.0712,10.0404,10.1096,10.1202,10.1087,10.0779,9.9596,9.8557,9.7711,9.7557,9.7057,9.648,9.8711,9.8788,9.7711,9.9981,10.0596,10.0183,10.0789,10.1212,10.1279,0.0,0.0,0.0,0.0,0.0,0.0,0.0,0.0,0.0,0.0,0.0,0.0,0.0,0.0,0.0,0.0,0.0,0.0,0.0,0.0,0.0,6.1356,6.2588,6.3963,6.5542,6.4932,6.5028,6.5931,6.5931,6.7837,7.1527,7.1094,7.2184,7.4389,7.32,7.2456,7.1899,6.988,6.8791,6.8568,6.9385,6.8791,0.0,0.0,0.0,0.0,0.0,6.7602,6.8196,6.8308,6.8345,0.0,0.0,0.0,6.8493,6.8493,7.0042,7.239,7.5202,8.2936,9.0966,9.4283,9.6943,9.8657,9.8303,9.9083,9.9978,10.0489,10.2903,10.4613,10.401,10.3097,10.2212,10.1597,10.2212,10.2904,10.3097,10.3712,10.4097,10.4212,10.4097,10.4097,10.4097,10.4097,10.3712,10.2981,10.2712,10.2289,10.1712,10.151,10.1212,10.0606,10.0414,9.9952,9.9288,9.9837,10.0183,10.0298,10.1019,10.051,9.9135,9.9683,9.9452,9.8596,9.7827,9.7057,9.6365,9.7403,9.7711,9.7596,9.8711,9.9529,10.0106,10.0221,10.0712,10.1279,0.0,0.0,0.0,0.0,0.0,0.0,0.0,0.0,0.0,0.0,0.0,0.0,0.0,0.0,0.0,5.3214,5.3214,5.3382,5.3876,5.5841,5.7765,5.9607,6.149,6.2874,6.3696,6.3924,6.445,6.5373,6.5856,6.8431,7.2865,7.2927,7.4041,7.5912,7.4277,7.3051,7.2048,7.0029,6.9162,6.9125,6.8568,6.8196,0.0,0.0,0.0,0.0,0.0,6.6451,6.7156,6.7156,6.7453,6.7825,6.7825,0.0,0.0,0.0,6.9444,7.257,7.8738,8.4327,8.9628,9.4705,9.6787,9.7758,9.826,9.8703,9.9176,9.9952,10.1299,10.2289,10.2404,10.2097,10.1904,10.202,10.1894,10.2212,10.3212,10.3212,10.3212,10.3212,10.3597,10.3712,10.3212,10.3212,10.2981,10.2597,10.2097,10.1712,10.1279,10.1279,10.0904,10.0106,9.9644,9.9183,9.8788,9.8711,9.8904,9.9375,10.0212,10.0212,9.9529,9.9413,9.8634,9.7403,9.748,9.7057,9.6365,9.7173,9.725,9.698,9.8288,9.875,9.875,9.976,10.0289,10.0712,0.0,0.0,0.0,0.0,0.0,0.0,0.0,0.0,0.0,0.0,0.0,0.0,0.0,0.0,0.0,0.0,5.3691,5.4142,5.495,5.5941,5.7042,5.8253,6.017,6.1441,6.1987,6.2917,6.3847,6.4816,6.5893,6.9137,7.4351,7.5169,7.699,7.9442,7.6729,7.4649,7.2977,7.1143,7.0351,7.0165,6.8345,6.7713,6.7788,0.0,6.6562,0.0,0.0,6.6153,6.6711,6.6711,6.7119,6.7602,6.7602,6.8011,0.0,0.0,0.0,7.2285,8.0125,8.3384,8.6216,9.3159,9.5199,9.5942,9.7741,9.8327,9.8711,9.9606,9.9952,10.0414,10.1394,10.1587,10.1779,10.252,10.2097,10.202,10.3097,10.2712,10.2097,10.1712,10.2404,10.2712,10.1981,10.1981,10.202,10.2289,10.1712,10.1279,10.1279,10.1096,10.0596,9.9798,9.8904,9.8365,9.8173,9.7711,9.7942,9.8788,9.9452,9.9644,9.9413,9.8981,9.7904,9.6326,9.6942,9.6749,9.6019,9.6634,9.6519,9.6134,9.7596,9.7904,9.7673,9.9221,9.9913,10.0221,0.0,0.0,0.0,0.0,0.0,0.0,0.0,0.0,0.0,0.0,0.0,0.0,0.0,0.0,5.4326,5.4326,5.5034,5.5831,5.6627,5.6051,5.6712,5.9049,5.9398,0.0,6.195,6.2917,6.3847,6.4816,6.6451,7.0549,7.6915,7.7733,8.104,8.6041,8.0557,7.7175,7.5466,7.3088,7.2048,7.1862,6.9434,6.7565,6.6376,6.7825,6.7899,6.7342,6.8048,6.8345,6.8382,6.8382,6.8419,6.8456,6.8456,6.8456,6.8493,0.0,0.0,0.0,7.6064,7.8438,8.1166,8.8286,9.1068,9.2807,9.5742,9.7019,9.7827,9.8673,9.9529,10.0606,10.2212,10.252,10.252,10.2597,10.2597,10.2289,10.151,10.1394,10.0789,9.9173,9.976,10.0298,10.0221,10.0221,10.0481,10.1279,10.1279,10.1279,10.1279,10.0596,9.976,9.8913,9.8019,9.7211,9.6442,9.7134,9.7942,9.8788,9.8865,9.8442,9.7673,9.8442,9.7904,9.6288,9.6326,9.5865,9.5066,9.5104,9.5104,9.5181,9.6057,9.6865,9.7596,9.8519,9.9375,10.0221,0.0,0.0,0.0,0.0,0.0,0.0,0.0,0.0,0.0,0.0,0.0,0.0,0.0,5.4399,5.462,5.5144,5.5438,5.5732,5.6014,5.6235,5.6748,5.7618,5.9262,6.0494,6.1212,6.2658,6.3625,6.4036,6.5708,6.8791,7.3174,7.5564,7.8364,8.13,7.9739,7.8736,7.7919,7.3906,7.1899,7.1218,6.9274,6.8456,6.8345,6.7899,6.8493,6.9459,6.8196,6.8382,6.9125,6.8085,6.8085,6.8493,6.8493,6.8493,6.8493,6.8493,6.9088,7.0536,7.4463,7.6892,7.9587,8.4745,8.8274,9.0965,9.297,9.4842,9.6657,9.8433,9.9058,9.9788,10.152,10.1789,10.2097,10.3289,10.252,10.1712,10.1279,10.0904,10.0096,9.8942,9.9067,9.9259,9.9259,9.9259,9.9404,9.9673,9.9712,9.9712,9.9712,9.9404,9.8865,9.798,9.7673,9.7096,9.6326,9.7096,9.7403,9.7211,9.7711,9.7788,9.748,9.7288,9.7134,9.7019,9.5942,9.5595,9.5865,9.6403,9.6596,9.6634,9.6942,9.725,9.7557,9.7865,9.8173,9.8557,0.0,0.0,0.0,0.0,0.0,0.0,0.0,0.0,0.0,0.0,0.0,0.0,0.0,0.0,5.5537,5.6356,5.6393,5.6393,5.6393,5.6895,5.7336,5.7581,5.9262,6.0642,6.1581,6.3065,6.3884,6.3999,6.5671,6.8159,7.1403,7.4115,7.6878,7.9516,7.8662,7.8885,7.9665,7.6135,7.4017,7.2802,7.0623,7.0066,7.0475,6.9955,7.0586,7.1576,7.0549,7.0512,7.0735,6.9397,6.8939,6.8902,6.8902,6.8716,6.8456,6.8196,6.8679,6.9719,7.1626,7.3815,7.6766,8.1934,8.4883,8.7514,9.1321,9.3224,9.4832,9.7058,9.8211,9.9327,10.101,10.1279,10.1789,10.3212,10.252,10.151,10.1019,10.0404,9.9567,9.8134,9.8211,9.8365,9.8365,9.8365,9.8481,9.8788,9.8788,9.8788,9.8788,9.8519,9.798,9.7134,9.7096,9.6826,9.6326,9.6826,9.6826,9.6326,9.6826,9.7096,9.7096,9.6557,9.6596,9.7057,9.5903,9.5903,9.6711,9.698,9.7442,9.7904,9.7596,9.7519,9.7519,9.7519,9.7519,9.7634,0.0,0.0,0.0,0.0,0.0,0.0,0.0,0.0,0.0,0.0,0.0,0.0,0.0,0.0,0.0,5.807,5.8143,5.8107,5.807,5.807,5.8437,5.9196,5.9398,6.0642,6.3132,6.4101,6.4626,6.4816,6.6413,6.8877,7.2048,7.3683,7.7027,8.156,7.7584,7.7547,8.0468,7.9628,7.8439,7.6804,7.3534,7.2271,7.2494,7.4017,7.4166,7.3794,7.528,7.4834,7.3423,7.2568,7.1218,6.9831,6.9756,6.9162,6.8345,6.7528,6.7862,6.8308,0.0,0.0,0.0,7.9567,8.0731,8.2368,9.0705,9.2066,9.2184,9.4492,9.6951,9.9173,10.0894,10.1279,10.1597,10.2404,10.252,10.1904,10.0298,9.999,9.9106,9.6596,9.698,9.7442,9.7442,9.7442,9.7827,9.8673,9.8711,9.8673,9.8673,9.7904,9.7096,9.6326,9.6288,9.6288,9.6288,9.6288,9.6288,9.6288,9.6288,9.6288,9.6288,9.6288,9.6288,9.6288,9.6288,9.6749,9.7442,9.6673,9.7326,9.8673,9.7865,9.7519,9.7519,9.748,9.7442,9.7596,0.0,0.0,0.0,0.0,0.0,0.0,0.0,0.0,0.0,0.0,0.0,0.0,0.0,0.0,0.0,6.1435,6.1471,6.0958,5.9795,5.9758,5.9832,6.004,6.0759,6.1773,6.3169,6.3546,6.407,6.4816,6.5262,6.6265,6.7837,6.9434,7.1886,7.4946,7.554,7.5986,7.6172,7.4153,7.4747,7.6804,7.3534,7.3608,7.5652,7.4909,7.5949,7.7733,7.699,7.6841,7.6729,7.528,7.4128,7.2927,7.1131,6.9608,0.0,6.7528,6.7862,6.8308,6.7528,0.0,0.0,0.0,0.0,0.0,8.3983,8.5475,8.729,9.2899,9.4634,9.6211,9.975,10.0904,10.1394,10.1587,10.1212,10.0414,9.9298,9.8634,9.775,9.6442,9.6519,9.6634,9.6634,9.6634,9.6749,9.698,9.6403,9.6066,9.6066,9.5835,9.5865,9.6288,9.6288,9.6288,9.6288,9.6288,9.6288,9.6288,9.6288,9.6288,9.6288,9.6288,9.6288,9.6288,9.6288,9.6749,9.7519,9.7942,9.8019,9.7904,9.8288,9.8057,9.7442,9.6865,9.6634,9.6673,0.0,0.0,0.0,0.0,0.0,6.0187,5.9722,0.0,0.0,0.0,0.0,0.0,0.0,0.0,0.0,0.0,6.3637,6.3013,6.1043,6.1215,6.1263,6.0933,6.1789,6.2915,6.4204,6.4645,6.5024,6.5336,6.5612,6.5884,6.6128,6.7751,6.9274,7.0735,7.2481,7.3372,7.346,7.1316,7.2765,7.6469,7.5615,7.6581,7.8625,7.8662,7.9888,8.1508,8.1263,8.1226,8.104,7.907,7.6915,7.4598,7.1799,7.0499,6.9769,6.8233,0.0,0.0,0.0,0.0,7.0759,7.3125,0.0,0.0,8.1214,8.2157,8.3584,8.9535,9.1765,9.3633,9.6836,9.8673,9.9702,9.9702,9.9327,9.8942,9.8827,9.8057,9.7211,9.6403,9.6288,9.6288,9.6288,9.6288,9.6288,9.6288,9.5826,9.5518,9.5518,9.5518,9.5788,9.6288,9.6288,9.6288,9.6288,9.6288,9.6288,9.6288,9.6288,9.6288,9.6288,9.6288,9.6288,9.6288,9.6288,9.6557,9.7057,9.7904,9.8173,9.8057,9.8211,9.7942,9.7403,9.6596,9.6288,9.6365,0.0,0.0,6.0566,6.1557,6.3723,6.5325,6.5398,6.6109,0.0,0.0,0.0,0.0,0.0,0.0,0.0,0.0,6.5411,6.464,6.2181,6.2622,6.2622,6.19,6.2671,6.3984,6.578,6.647,6.6593,6.6228,6.6739,6.6677,6.6116,6.7565,6.8271,6.8419,6.9199,7.04,7.1713,7.0698,7.2295,7.5763,7.8253,7.9999,8.136,8.3552,8.4555,8.5,8.6301,8.6338,8.5372,8.2972,7.9442,7.5527,7.2542,7.1886,7.175,6.9422,6.9868,0.0,0.0,0.0,0.0,7.4673,7.398,0.0,8.0366,8.0531,8.0682,8.5039,8.826,9.0849,9.2742,9.5115,9.6788,9.6788,9.6942,9.7442,9.8519,9.7904,9.7134,9.6519,9.6365,9.6326,9.6442,9.6365,9.6288,9.6288,9.6211,9.6095,9.6019,9.6019,9.6057,9.6134,9.6172,9.6211,9.6288,9.6288,9.6288,9.6288,9.6288,9.6288,9.6288,9.6288,9.6288,9.6288,9.6288,9.6288,9.6365,9.698,9.775,9.8442,9.7788,9.7442,9.7288,9.6557,9.6288,9.6442,0.0,5.8682,6.0114,6.2205,6.4077,6.5508,6.6182,6.6953,6.7504,6.7674,6.8274,0.0,0.0,0.0,0.0,0.0,6.8848,6.716,6.4751,6.4127,6.3772,6.3625,6.3848,6.4832,6.6642,6.6248,6.637,6.7082,6.6538,6.6241,6.6128,6.6413,6.6896,6.7565,6.8382,6.8902,6.9422,7.2369,7.372,7.4091,7.6581,8.0036,8.3752,8.422,8.5647,8.7304,8.6932,8.6709,8.6189,8.3789,8.0668,7.7584,7.6321,7.4203,7.1973,7.0759,7.1143,7.1565,6.9719,7.1032,7.2902,7.2902,7.4017,0.0,7.5691,7.647,7.7907,8.0579,8.294,8.5456,8.8548,9.0923,9.2441,9.2441,9.3557,9.5211,9.7442,9.7057,9.6711,9.7211,9.6711,9.6557,9.7211,9.6673,9.6288,9.6288,9.5634,9.4951,9.4249,9.421,9.4518,9.522,9.5258,9.5595,9.6288,9.6288,9.6288,9.6288,9.6288,9.6288,9.6288,9.6288,9.6288,9.6288,9.6288,9.6288,9.6249,9.5711,9.598,9.6826,9.7326,9.7096,9.6519,9.6365,9.6288,9.6442,0.0,6.015,6.1765,6.4224,6.6329,6.8238,6.9853,7.0454,7.0697,7.0697,7.1394,7.2055,7.2459,0.0,0.0,0.0,0.0,0.0,0.0,6.5742,6.5118,6.4714,6.5109,6.5983,6.739,6.7035,6.716,6.7802,6.7394,6.7022,6.6711,6.7119,6.7082,6.6748,6.7973,6.8493,6.8679,7.1539,7.3484,7.4909,7.8662,8.1857,8.4592,8.6226,8.7861,8.9236,8.879,8.8381,8.7601,8.474,8.2972,8.1448,7.8587,7.7101,7.6024,7.3967,7.3632,7.3645,7.1998,7.2741,7.4203,7.502,7.4909,0.0,0.0,7.507,7.509,7.8667,7.9446,8.0628,8.4411,8.6006,8.7121,8.8173,8.9774,9.1375,9.2885,9.4941,9.6442,9.6865,9.6557,9.648,9.6865,9.6557,9.6288,9.6288,9.5489,9.4797,9.4373,9.3941,9.3912,9.4335,9.4758,9.522,9.5634,9.6095,9.6288,9.6288,9.6288,9.6288,9.6288,9.6288,9.6288,9.6288,9.6288,9.6057,9.5634,9.5634,9.5634,9.5672,9.6095,9.6019,9.5711,9.6134,9.6288,9.648,6.0224,6.1582,6.3343,6.5852,6.8385,7.0844,7.312,7.3854,7.3927,7.3266,7.3891,7.4147,7.3523,7.4441,7.4793,7.3964,0.0,0.0,6.8912,6.7393,6.6219,6.5545,6.6145,6.6959,6.7915,6.7926,6.8055,6.8334,6.8309,6.8037,6.7565,6.8196,6.7899,6.6822,6.7973,6.8753,6.9323,7.0759,7.3298,7.6692,8.1523,8.3641,8.431,8.7564,8.931,9.009,9.0387,9.009,8.9087,8.6115,8.5335,8.4889,8.078,7.9925,7.9999,7.7473,7.6618,7.6209,7.4723,7.528,7.6544,7.777,7.6767,7.5838,0.0,0.0,0.0,7.7017,7.6727,7.6899,8.0271,8.0976,8.171,8.3589,8.5443,8.6891,8.7503,9.1688,9.4906,9.5509,9.5441,9.5595,9.6249,9.5865,9.5711,9.6019,9.4941,9.4335,9.4527,9.3835,9.348,9.348,9.4296,9.4835,9.4989,9.5865,9.6288,9.6288,9.6288,9.6288,9.6288,9.6288,9.6288,9.6288,9.6288,9.5826,9.5066,9.5749,9.5518,9.4797,9.5104,9.5258,9.5335,9.6057,9.6403,9.6749,6.0224,6.1117,6.2511,6.4995,6.8017,7.066,7.2386,7.4441,7.5799,7.5689,7.6371,7.6848,7.6775,7.6261,7.679,7.8788,7.4184,7.1674,7.2951,6.8935,6.6476,6.6366,6.6439,6.7011,6.8057,6.7978,6.8107,6.8469,6.8346,6.8321,6.8382,6.8456,6.8791,6.9274,6.8753,6.9732,7.1825,7.2754,7.502,7.8364,8.26,8.3455,8.2637,8.5855,8.7601,8.8567,8.9979,9.0424,9.009,8.827,8.6747,8.5372,8.4109,8.182,7.9702,8.0036,7.9628,7.8885,7.7993,7.9925,8.1411,7.8067,8.0222,8.156,7.5355,0.0,7.6675,7.36,0.0,7.5516,7.6016,0.0,0.0,7.8004,8.021,8.2212,8.3391,8.6671,8.9937,9.2597,9.2249,9.2979,9.6019,9.4249,9.3557,9.5027,9.2941,9.1979,9.2749,9.2672,9.2633,9.2633,9.3403,9.422,9.4989,9.5865,9.6288,9.6288,9.6288,9.6288,9.6288,9.6288,9.6288,9.6288,9.6288,9.5826,9.5027,9.5104,9.4643,9.398,9.5557,9.6134,9.6172,9.6249,9.6749,9.7519,6.086,6.1374,6.2511,6.5485,6.7907,7.0257,7.2789,7.5249,7.6959,7.7488,7.7399,7.8023,7.9947,7.8993,7.8846,8.0351,7.6995,7.4683,7.4404,7.1615,0.0,7.0,6.9509,6.9504,6.9958,6.9144,6.8808,6.8962,6.8506,6.8321,6.8383,6.8383,6.8791,6.9582,6.9793,7.1292,7.3645,7.4463,7.6135,7.8587,8.1746,8.26,8.2563,8.7675,8.9867,9.0202,9.0424,9.0499,9.0164,8.8047,8.7527,8.7341,8.5112,8.3775,8.2809,8.1783,8.0854,8.0036,7.9219,8.0334,8.1448,8.0259,8.078,8.0631,7.7064,7.5838,7.5095,7.3831,0.0,0.0,0.0,0.0,0.0,0.0,7.7436,7.8722,7.9487,8.19,8.5254,8.9752,8.9979,9.0517,9.2394,9.1633,9.1287,9.1979,9.0633,9.0094,9.0941,9.097,9.121,9.1748,9.2556,9.3172,9.3557,9.4864,9.5557,9.5557,9.6057,9.6288,9.6288,9.6288,9.6288,9.6288,9.6288,9.5518,9.4296,9.4797,9.4489,9.3826,9.5057,9.5557,9.5595,9.6095,9.6826,9.7634,6.1263,0.0,6.2511,6.5338,6.754,7.0146,7.378,7.5873,7.7362,7.8442,7.8075,7.883,8.1856,8.1175,8.1122,8.2847,8.0298,7.8133,7.6974,7.4771,7.3193,7.2532,7.1931,7.1431,7.1033,7.0035,6.9358,6.8956,6.8453,6.843,6.8912,6.8728,6.942,7.0878,7.1822,7.3632,7.6024,7.7287,7.8922,8.0817,8.3083,8.4421,8.5461,8.9496,9.1465,9.1985,9.139,9.1019,9.0536,8.8753,8.8493,8.8641,8.6672,8.6004,8.5558,8.3827,8.286,8.214,8.1114,8.1583,8.2288,8.208,8.1077,7.9814,7.8327,7.6284,7.4834,7.5206,7.419,0.0,0.0,0.0,7.3676,7.5184,0.0,7.6286,7.6905,7.824,8.0983,8.5855,8.7551,8.8556,8.9162,8.9009,8.897,8.9201,8.8017,8.7748,8.8816,8.9316,8.9863,9.0479,9.1825,9.2479,9.2479,9.4181,9.4989,9.5027,9.5865,9.6288,9.6288,9.6288,9.6288,9.6288,9.6288,9.5326,9.3749,9.4643,9.4373,9.3441,9.4296,9.4643,9.4797,9.5903,9.6826,9.7634,6.1263,6.1606,6.2144,6.3882,6.6806,7.0513,7.5285,7.6093,7.6717,7.8369,7.8589,7.947,8.1929,8.215,8.3691,8.7619,8.4352,8.2003,8.1966,7.8222,7.4955,7.2606,7.2496,7.1796,7.0353,7.0156,6.9429,6.8156,6.7991,6.8765,7.0434,6.9776,7.1174,7.4273,7.5213,7.7027,7.9516,8.1931,8.4332,8.6672,8.8381,9.0499,9.2393,9.0202,9.087,9.2951,9.2914,9.2393,9.165,9.1576,9.0016,8.8381,8.983,8.8678,8.6747,8.6672,8.6635,8.6264,8.4666,8.5409,8.5855,8.2786,8.1969,8.1077,7.7881,7.7658,7.7919,7.7175,7.8216,7.8996,7.8327,7.6804,7.5726,0.0,7.5158,0.0,0.0,7.6246,7.7212,8.0286,8.4677,8.744,8.7478,8.6709,8.6555,8.7401,8.5178,8.4486,8.6132,8.7825,8.8756,8.8795,9.121,9.2479,9.2479,9.4181,9.4989,9.5027,9.5865,9.6288,9.6288,9.6288,9.6288,9.6288,9.6288,9.5326,9.3749,9.4643,9.4027,9.2633,9.3441,9.3749,9.3941,9.5672,9.6826,9.7634,6.2928,6.3686,6.4053,6.4103,6.5888,6.8935,7.378,7.5873,7.806,8.1326,8.1782,8.3728,8.8867,8.8904,8.9344,9.1289,8.872,8.6297,8.4682,8.1782,7.9764,7.8956,7.7378,7.6035,7.4978,7.3919,7.2387,7.0347,7.0306,7.0601,7.1158,7.0471,7.1864,7.4957,7.5527,7.7701,8.1081,8.3151,8.4778,8.6189,8.8418,9.1093,9.3657,9.2282,9.191,9.2059,9.1539,9.0796,9.009,9.009,8.9198,8.8211,8.8716,8.8344,8.7527,8.6969,8.7192,8.7527,8.7022,8.7638,8.7675,8.4406,8.3195,8.1783,7.7956,7.8141,7.855,7.6618,7.8402,7.9888,7.855,7.7844,0.0,0.0,0.0,7.5347,0.0,7.4439,7.4757,7.7204,8.0592,8.2992,8.3511,8.2569,8.2516,8.3901,8.1677,8.1216,8.3478,8.467,8.6102,8.7786,8.9257,9.0517,9.1633,9.2787,9.3595,9.4143,9.5018,9.5749,9.6288,9.6288,9.6288,9.6288,9.6288,9.5326,9.371,9.4027,9.348,9.2518,9.2787,9.3595,9.4643,9.522,9.6326,9.7788,6.5131,6.5558,6.5668,6.5424,6.6953,6.9559,7.3523,7.6665,7.9858,8.3381,8.4812,8.7565,9.2941,9.3015,9.3015,9.3896,9.2482,9.017,8.6848,8.5453,8.4132,8.27,8.1158,7.9653,7.8206,7.7249,7.5309,7.2293,7.2588,7.2763,7.2783,7.2138,7.3185,7.5734,7.6996,7.9097,8.1882,8.4866,8.6598,8.7527,8.9719,9.1873,9.3731,9.3211,9.2839,9.2431,9.1316,9.0424,8.9719,8.9719,8.9013,8.8233,8.9124,8.9161,8.8827,8.827,8.8716,8.9273,8.8678,8.8901,8.8716,8.6316,8.4904,8.3306,8.0371,8.052,8.078,7.9182,8.0542,8.1855,8.1261,8.0079,0.0,0.0,0.0,0.0,0.0,7.3241,7.3576,7.5124,7.7769,7.9817,8.0639,8.0161,7.9862,8.0054,7.883,7.8638,7.9977,8.2016,8.417,8.644,8.794,8.9479,9.1171,9.2056,9.2903,9.371,9.4566,9.5441,9.6288,9.6288,9.6288,9.6288,9.6288,9.5326,9.371,9.371,9.3018,9.2056,9.2056,9.2903,9.4181,9.4797,9.6066,9.7827,6.7627,6.726,6.7063,6.7921,6.9963,7.2261,7.4536,7.8427,8.2003,8.4499,8.7675,9.0978,9.4336,9.463,9.4923,9.5731,9.5675,9.3602,8.8867,8.9179,8.7858,8.3968,8.3711,8.2553,8.0257,8.0073,7.8017,7.4052,7.4698,7.5103,7.5227,7.4588,7.5087,7.6698,7.9471,8.105,8.203,8.713,8.9793,9.0759,9.2356,9.3025,9.3062,9.3025,9.3508,9.3991,9.2282,9.1167,9.0499,9.0499,8.9459,8.8604,9.0907,9.113,9.0573,9.0573,9.113,9.1428,8.9904,8.9459,8.9273,8.8418,8.6969,8.5483,8.4629,8.4555,8.4644,8.4577,8.4652,8.5104,8.6207,8.3317,0.0,0.0,0.0,0.0,7.1894,7.2497,7.3379,7.3881,7.6078,7.7955,7.8941,7.9322,7.8531,7.6146,7.6623,7.6707,7.5976,7.9823,8.2901,8.4786,8.7248,8.9402,9.1171,9.2018,9.2864,9.371,9.4527,9.5403,9.6288,9.6288,9.6288,9.6288,9.6288,9.5326,9.371,9.371,9.271,9.121,9.121,9.1787,9.2826,9.4527,9.6182,9.7865,6.8678,6.9889,7.1394,7.2826,7.3546,7.4169,7.4793,7.9381,8.4078,8.7711,9.1546,9.5621,10.0099,9.9475,9.9071,9.9879,9.83,9.6245,9.3786,9.2703,9.14,8.9711,8.7912,8.6664,8.604,8.3691,8.1379,7.914,7.7472,7.6402,7.5874,7.5328,7.5513,7.6353,7.9348,8.1029,8.1879,8.7084,9.0462,9.2393,9.2839,9.3359,9.3842,9.3211,9.3508,9.3991,9.2282,9.1167,9.0499,9.0499,9.0239,8.9979,9.061,9.1093,9.139,9.139,9.1985,9.2579,9.2171,9.2059,9.1688,9.0239,8.8641,8.7081,8.5632,8.6709,8.7829,8.7029,8.827,8.8898,8.6844,8.4108,8.1447,7.9186,0.0,0.0,7.0536,7.0438,7.1156,7.2485,7.2725,7.4169,7.7783,7.657,7.5523,7.5493,7.4267,7.3944,7.4976,7.7284,8.0215,8.3824,8.5786,8.8209,9.1171,9.1441,9.2249,9.371,9.395,9.4826,9.6288,9.6288,9.6288,9.6288,9.6288,9.5326,9.371,9.371,9.271,9.121,9.121,9.2479,9.4566,9.6249,9.7942,9.9567,7.1101,7.3266,7.5212,7.5395,7.7472,7.8919,7.8222,8.0828,8.4462,8.8849,9.2978,9.6685,9.9732,10.12,10.1898,10.2008,10.0523,9.8631,9.6685,9.5694,9.4666,9.3455,9.1767,9.0519,8.9784,8.7308,8.4555,8.1525,8.0131,7.851,7.6749,7.6118,7.5786,7.5823,7.8424,7.9837,8.0714,8.664,9.0657,9.2988,9.2988,9.3248,0.0,9.3174,9.3285,9.3545,9.2616,9.1725,9.0982,9.061,9.0499,9.0573,9.0907,9.1353,9.1762,9.2171,9.2616,9.2988,9.2988,9.2988,9.2765,9.1836,9.0907,8.9947,8.8914,8.9529,9.024,8.9768,8.995,8.9714,8.8203,8.5071,8.1391,7.7358,7.4834,7.2531,7.0054,7.0314,7.1143,7.2085,7.2414,7.3573,7.6144,7.4143,7.2829,7.311,7.2916,7.2706,7.2507,7.6245,7.9477,8.1862,8.5016,8.794,9.0624,9.1402,9.2402,9.371,9.371,9.4595,9.6288,9.6288,9.6288,9.6288,9.6288,9.5326,9.371,9.371,9.271,9.1287,9.2018,9.3633,9.5749,9.7442,9.8673,9.9721,7.4015,7.6497,7.8112,7.6533,8.0901,8.4315,8.3434,8.3654,8.5563,9.0097,9.4134,9.6942,9.786,10.1494,10.3696,10.3109,10.2191,10.0686,9.854,9.8264,9.753,9.6042,9.5107,9.3859,9.2317,9.0391,8.7124,8.2517,8.2076,8.0247,7.7075,7.6405,7.5706,7.508,7.7154,7.8721,8.021,8.6175,9.0312,9.2839,9.2951,9.2988,9.2988,9.2988,9.2988,9.2988,9.2988,9.2505,9.1762,9.1056,9.0833,9.0945,9.165,9.1873,9.2022,9.2765,9.2988,9.2988,9.2988,9.2988,9.2988,9.2988,9.307,9.304,9.2713,9.2442,9.2307,9.2526,9.0895,8.9464,8.973,8.565,8.0601,7.5447,7.3906,7.2642,7.0499,7.1342,7.2271,7.2494,7.3586,0.0,7.4426,7.2537,7.1015,7.0341,7.2095,7.2176,6.9914,7.5763,7.9431,7.9931,8.4709,8.8132,9.0047,9.1556,9.2864,9.3864,9.3749,9.4595,9.6288,9.6288,9.6249,9.6134,9.6249,9.5249,9.3557,9.3672,9.2787,9.1556,9.321,9.4941,9.6634,9.8211,9.8942,9.9327,7.5572,7.7268,7.8295,7.7252,8.1252,8.5637,8.8683,9.1436,9.4189,9.7033,10.0319,10.2999,10.4504,10.421,10.41,10.4593,10.3293,10.2008,10.0907,10.0209,9.9475,9.8501,9.7052,9.5841,9.4868,9.1271,8.7675,8.4168,8.1525,7.8216,7.439,7.4396,7.4249,7.4059,7.6677,8.06,8.5302,8.6638,8.9018,9.1985,9.2691,9.2988,9.2988,9.2988,9.2988,9.2988,9.2988,9.2914,9.2728,9.2616,9.2542,9.2579,9.2728,9.2765,9.2802,9.2951,9.2988,9.2988,9.2988,9.2988,9.2988,9.2988,9.3348,9.3529,9.3056,9.4039,9.4974,9.466,9.3474,9.2035,9.0422,8.4618,7.886,7.5182,7.3906,7.3237,7.2828,7.2419,7.2679,7.4017,7.3492,7.3167,7.3573,7.3504,7.2558,7.0449,7.0942,7.102,7.0232,7.3975,7.7601,8.0777,8.4439,8.7825,9.0941,9.1287,9.2556,9.4758,9.4027,9.4595,9.6288,9.6288,9.5903,9.5258,9.598,9.4941,9.2749,9.3441,9.3133,9.2441,9.4104,9.5788,9.7403,9.8442,9.9673,10.0894,7.8612,7.982,8.0956,8.1744,8.5184,8.9375,9.3878,9.7203,9.9071,9.8557,10.0209,10.1898,10.3109,10.4394,10.5495,10.6302,10.4908,10.3806,10.3403,10.2191,10.1387,10.1083,9.9093,9.7421,9.6286,9.3033,8.9124,8.4609,8.2186,7.8736,7.4294,7.3559,7.3155,7.3171,7.5403,7.9971,8.601,8.648,8.8912,9.2468,9.3731,9.3991,9.3619,9.3619,9.3359,9.2988,9.2988,9.2988,9.2988,9.2988,9.2988,9.2988,9.2988,9.2988,9.2988,9.2988,9.2988,9.307,9.3348,9.3227,9.3086,9.3364,9.3389,9.3373,9.3404,9.4219,9.4946,9.4853,9.3787,9.1942,8.8788,8.4498,8.0631,7.8179,7.6729,7.5801,7.5392,7.4983,7.4723,7.4612,7.4434,7.4075,7.3448,7.3938,7.3112,7.0211,7.0957,7.1129,7.0041,7.3869,7.7007,7.9046,8.367,8.7325,8.9863,9.1633,9.3095,9.4335,9.4373,9.4797,9.5634,9.6095,9.5826,9.5027,9.5451,9.4672,9.3133,9.3518,9.3758,9.3912,9.5172,9.6711,9.8288,9.9144,9.9981,10.0712,8.1854,8.295,8.4458,8.6712,9.012,9.3932,9.8094,10.1493,10.281,10.0289,10.0396,10.098,10.1808,10.4582,10.6696,10.7315,10.6198,10.5316,10.5107,10.3806,10.2991,10.3008,10.0495,9.8473,9.7044,9.4485,9.0334,8.4609,8.2994,7.9617,7.461,7.3193,7.2496,7.2606,7.5044,7.9356,8.4864,8.6259,8.9225,9.305,9.4531,9.4771,9.4214,9.44,9.3842,9.3025,9.3174,9.3136,9.2988,9.2988,9.2988,9.2988,9.2988,9.2988,9.2988,9.2988,9.3103,9.3253,9.3702,9.3567,9.3404,9.3709,9.3552,9.3373,9.3582,9.3968,9.4276,9.4245,9.3252,9.1125,8.7197,8.528,8.3529,8.1337,8.0074,7.8996,7.7993,7.803,7.751,7.5838,7.6061,7.5503,7.3348,7.372,7.2769,6.9534,7.0753,7.1153,7.0003,7.3802,7.6433,7.7277,8.3016,8.7017,8.894,9.1941,9.371,9.4249,9.4758,9.5104,9.5297,9.598,9.5826,9.4989,9.4989,9.4527,9.371,9.371,9.4335,9.5374,9.6211,9.7596,9.9173,9.9837,10.0221,10.0404,8.4374,8.6073,8.7833,9.0045,9.4518,9.8374,10.0103,10.3906,10.6693,10.6894,10.6208,10.6009,10.6801,10.6785,10.6585,10.6507,10.6491,10.6107,10.5201,10.4284,10.3615,10.3008,10.0688,9.8627,9.7044,9.4632,9.0494,8.4609,8.2994,7.9323,7.378,7.2899,7.2496,7.2716,7.7435,8.0692,8.2908,8.6259,8.9662,9.2808,9.3887,9.4251,9.4288,9.4994,9.4325,9.3099,9.3842,9.3619,9.2988,9.2988,9.2988,9.2988,9.2988,9.2988,9.2988,9.2988,9.3364,9.3724,9.3783,9.4118,9.4327,9.3929,9.4132,9.4229,9.3285,9.3858,9.4291,9.3332,9.2428,9.0743,8.7396,8.7239,8.639,8.2526,8.2377,8.2192,8.0594,8.104,8.0928,7.9256,7.8476,7.6544,7.2679,7.2382,7.118,6.8206,6.9171,7.0188,7.0764,7.2757,7.4936,7.7231,8.3016,8.7278,8.9739,9.1672,9.3787,9.6057,9.5335,9.5403,9.6172,9.6249,9.5826,9.4989,9.4989,9.4527,9.371,9.371,9.4672,9.6249,9.7057,9.8442,9.999,10.0106,10.0596,10.1212,8.9965,9.0563,9.2034,9.573,9.719,9.9242,10.3291,10.5302,10.6797,10.8093,10.7292,10.6916,10.7689,10.7022,10.6518,10.6397,10.6019,10.5578,10.5107,10.3917,10.3321,10.3707,10.0791,9.8512,9.7044,9.4963,9.1343,8.604,8.4425,8.1232,7.657,7.4294,7.4001,7.5542,7.9112,8.2508,8.5697,8.8178,9.0935,9.3779,9.5666,9.6108,9.5663,9.5997,9.544,9.4541,9.5225,9.4702,9.376,9.412,9.3695,9.3062,9.3582,9.3731,9.3805,9.4288,9.4263,9.4177,9.482,9.4579,9.416,9.4232,9.4215,9.3906,9.3179,9.3348,9.3543,9.3103,9.2728,9.191,9.009,8.9236,8.8418,8.7267,8.6115,8.5298,8.5149,8.3752,8.2117,8.0408,7.777,7.5243,7.3125,7.1998,7.133,7.1155,7.0239,7.0177,7.1251,7.1759,7.3882,7.7885,8.1785,8.5555,8.9133,9.1864,9.398,9.5518,9.5711,9.5672,9.5518,9.6057,9.5826,9.4989,9.4989,9.4527,9.3826,9.5365,9.6095,9.648,9.8327,9.949,10.0183,10.0596,10.1019,10.1279,9.4201,9.4456,9.5929,10.0592,10.0499,10.1407,10.6093,10.6497,10.6904,10.8395,10.7519,10.7087,10.7778,10.7105,10.6486,10.6397,10.5888,10.5411,10.5107,10.3806,10.3321,10.3781,10.0902,9.8492,9.7044,9.5276,9.2188,8.7711,8.6334,8.3728,7.9947,7.7414,7.7231,7.9234,8.2006,8.5079,8.825,9.0264,9.2606,9.5098,9.6743,9.7163,9.6812,9.6957,9.6331,9.547,9.6164,9.5625,9.4665,9.5269,9.4663,9.3768,9.4102,9.4214,9.44,9.544,9.5293,9.4942,9.573,9.5182,9.4392,9.4362,9.4076,9.3672,9.3114,9.2988,9.2914,9.2653,9.2802,9.2728,9.1873,9.0982,9.035,9.0164,8.9087,8.8121,8.775,8.5706,8.3477,8.1337,7.7881,7.4983,7.32,7.2075,7.1864,7.282,7.1611,7.1197,7.2066,7.1892,7.3843,7.8354,8.1708,8.5363,8.9402,9.2249,9.4249,9.5412,9.6019,9.598,9.5412,9.6019,9.5826,9.4989,9.4989,9.4643,9.422,9.6019,9.6865,9.7211,9.9029,9.999,10.0481,10.1096,10.1279,10.1279,9.5889,9.726,9.9325,10.402,10.5005,10.5915,10.8096,10.801,10.7903,10.8814,10.7795,10.7213,10.7798,10.7394,10.6779,10.6381,10.6585,10.6202,10.5201,10.432,10.3615,10.3008,10.0708,9.8646,9.7044,9.5405,9.2867,8.9363,8.8573,8.6518,8.3308,8.248,8.2553,8.3454,8.6701,8.861,8.9564,9.2149,9.4636,9.6717,9.6434,9.6724,9.7317,9.7726,9.6852,9.5514,9.6294,9.6071,9.5483,9.6078,9.5897,9.5217,9.4437,9.4214,9.4511,9.6108,9.6404,9.6171,9.6171,9.5984,9.5469,9.4146,9.3798,9.3672,9.3114,9.2988,9.2765,9.1873,9.2393,9.2728,9.1873,9.2393,9.2171,8.9719,9.061,9.0499,8.7267,8.6784,8.5558,8.2377,7.9776,7.6655,7.2605,7.2566,7.2455,7.1689,7.2759,7.3426,7.3394,7.3494,7.5091,7.8392,8.3401,8.7709,9.1133,9.2864,9.4557,9.6288,9.6288,9.6288,9.6288,9.6288,9.5826,9.4989,9.4989,9.4989,9.4989,9.5027,9.6528,9.875,9.8788,9.9827,10.1279,10.1279,10.1279,10.1279,10.0103,10.09,10.1794,10.3892,10.4783,10.5396,10.6119,10.7011,10.7309,10.6511,10.6393,10.6214,10.57,10.6215,10.6286,10.5605,10.5225,10.4922,10.4509,10.3202,10.2396,10.2198,10.0313,9.8434,9.6818,9.5752,9.4135,9.1895,9.1106,8.905,8.5894,8.6875,8.7372,8.7601,9.0478,9.2149,9.2995,9.4872,9.6169,9.6985,9.7582,9.7937,9.8103,9.7949,9.7557,9.7248,9.8275,9.7854,9.698,9.7952,9.752,9.662,9.696,9.6893,9.6991,9.8444,9.8133,9.757,9.847,9.7433,9.6122,9.6269,9.5473,9.4482,9.3933,9.3397,9.3062,9.3359,9.3174,9.3062,9.3359,9.3174,9.2728,9.1948,9.2245,9.1428,8.8158,8.6709,8.4555,8.0742,7.8104,7.5875,7.4017,7.3737,7.3668,7.3641,7.381,7.4034,7.4288,7.4318,7.6027,7.9663,8.3051,8.6858,9.1163,9.3441,9.5172,9.6288,9.6288,9.6288,9.6288,9.6288,9.6134,9.5903,9.5903,9.5903,9.5942,9.648,9.6865,9.7288,9.9029,9.9635,9.9712,10.0894,10.1712,10.2097,10.1796,10.2393,10.3019,10.3799,10.469,10.5322,10.5619,10.6808,10.7104,10.5692,10.5816,10.5602,10.4593,10.5098,10.5201,10.4724,10.4003,10.3606,10.3606,10.2393,10.1694,10.1694,10.0012,9.8484,9.7163,9.6061,9.485,9.3565,9.2721,9.1473,8.9748,9.057,9.1214,9.1748,9.3437,9.4596,9.5405,9.6602,9.718,9.7351,9.831,9.8686,9.8717,9.8541,9.8493,9.8614,9.9344,9.9046,9.8423,9.9387,9.9186,9.869,9.9668,9.9938,9.9975,10.0306,9.9803,9.9208,9.9528,9.8268,9.681,9.6735,9.5704,9.4525,9.3904,9.3359,9.3136,9.3657,9.3359,9.3136,9.3657,9.3322,9.2988,9.2988,9.2728,9.1465,8.853,8.6375,8.3737,7.9962,7.8141,7.6811,7.5892,7.6624,7.6977,7.6542,7.7632,7.7803,7.6642,7.6414,7.7866,8.1251,8.4385,8.7993,9.2095,9.4027,9.5451,9.6288,9.6288,9.6288,9.6288,9.6288,9.6288,9.6288,9.6288,9.6288,9.6326,9.6826,9.6942,9.6942,9.8865,9.949,9.9481,10.1212,10.1894,10.2097,10.1491,10.222,10.2908,10.3725,10.4486,10.5303,10.6101,10.6899,10.6991,10.5982,10.5713,10.52,10.4189,10.3913,10.3696,10.3696,10.3093,10.2726,10.2726,10.1881,10.1424,10.1387,9.9842,9.8631,9.7823,9.6355,9.5217,9.4446,9.3675,9.3675,9.4446,9.3713,9.4172,9.566,9.5679,9.6083,9.6819,9.7462,9.7686,9.7772,9.8655,9.9026,9.9135,9.9344,9.9497,9.962,9.9661,9.9674,9.9767,10.0383,10.0886,10.1292,10.2417,10.3194,10.3297,10.1912,10.1393,10.0993,9.9699,9.8672,9.7595,9.6034,9.4994,9.414,9.3285,9.3062,9.3062,9.2988,9.2988,9.2988,9.2988,9.3037,9.3054,9.3004,9.2257,9.0823,8.8285,8.5938,8.3216,7.9958,7.9726,7.9463,7.8401,8.0795,8.181,8.0244,8.3302,8.3676,8.0185,7.9781,8.0745,8.3104,8.7164,9.0731,9.3749,9.4643,9.5489,9.6288,9.6288,9.6288,9.6288,9.6288,9.6288,9.6288,9.6288,9.6288,9.6288,9.6288,9.6788,9.7596,9.8442,9.9336,10.0298,10.1904,10.202,10.151,10.2111,10.2297,10.2519,10.2498,10.3311,10.3903,10.3995,10.4791,10.4993,10.4085,10.3778,10.3288,10.2512,10.2222,10.2101,10.2101,10.259,10.2911,10.2911,10.1586,10.0483,9.9931,9.8802,9.7823,9.7016,9.6612,9.6318,9.6135,9.5327,9.5364,9.6117,9.5986,9.636,9.7201,9.7324,9.7436,9.7461,9.7636,9.7686,9.7772,9.8688,9.9077,9.9135,9.9456,9.958,9.9674,10.01,10.0285,10.0521,10.1684,10.2613,10.3289,10.419,10.549,10.6296,10.4315,10.2991,10.2118,10.1895,10.0381,9.8709,9.8338,9.7112,9.5663,9.4251,9.3917,9.3731,9.3136,9.2988,9.2988,9.2988,9.3348,9.3482,9.3086,9.2094,9.0169,8.6674,8.5473,8.3723,8.0491,8.2108,8.3391,8.3165,8.4056,8.4618,8.4517,8.448,8.4022,8.3037,8.5068,8.6096,8.58,8.9279,9.2303,9.4672,9.5557,9.6095,9.6288,9.6288,9.6288,9.6288,9.6288,9.6288,9.6288,9.6288,9.6288,9.6288,9.6288,9.6788,9.7596,9.8442,9.9336,10.0221,10.1212,10.1904,10.2212,10.2297,10.2295,10.2312,10.2603,10.3416,10.3896,10.3896,10.4598,10.4726,10.3316,10.3087,10.2693,10.1784,10.1611,10.1497,10.1597,10.2095,10.2299,10.2299,10.149,10.0791,10.0387,9.913,9.8227,9.7823,9.7089,9.6685,9.6685,9.6282,9.6282,9.6705,9.7053,9.7228,9.7247,9.7671,9.7619,9.7283,9.7891,9.7789,9.7391,9.8855,9.9306,9.914,9.9689,10.01,10.0389,10.0689,10.1094,10.1509,10.1902,10.3097,10.4492,10.4482,10.5713,10.6923,10.5816,10.4785,10.3781,10.3309,10.1687,9.9935,9.882,9.7855,9.6777,9.5105,9.4734,9.4511,9.3694,9.3545,9.3434,9.3062,9.3221,9.318,9.2356,9.1058,8.8973,8.5617,8.5032,8.4116,8.2,8.4176,8.6096,8.6758,8.7683,8.8068,8.7487,8.8004,8.7767,8.6426,8.9485,9.0148,8.759,9.1009,9.3568,9.4989,9.5865,9.6288,9.6288,9.6288,9.6288,9.6288,9.6288,9.6288,9.6288,9.6288,9.6288,9.6326,9.6711,9.7096,9.7634,9.8904,9.9683,10.0221,10.1481,10.1894,10.202,10.2184,10.2291,10.2415,10.3097,10.3798,10.4408,10.4499,10.4888,10.4587,10.3098,10.2784,10.2393,10.1608,10.1514,10.1594,10.181,10.1578,10.1514,10.1517,10.1404,10.1294,10.109,9.9695,9.8851,9.8721,9.7419,9.6685,9.6685,9.6685,9.6685,9.6705,9.7391,9.7409,9.6877,9.7549,9.7531,9.7064,9.8224,9.8059,9.7192,9.9144,9.9609,9.9263,10.0087,10.0798,10.1279,10.1394,10.202,10.252,10.201,10.3405,10.5213,10.4597,10.5482,10.6784,10.6985,10.6385,10.5479,10.3897,10.2314,10.0586,9.8598,9.8077,9.7669,9.6146,9.5663,9.5365,9.4548,9.4362,9.4173,9.3433,9.3381,9.3022,9.1808,9.007,8.7974,8.5338,8.4985,8.481,8.4247,8.6555,8.8744,9.0153,9.1426,9.1771,9.0719,9.2314,9.2413,9.0263,9.3004,9.3045,8.9476,9.2711,9.4758,9.5172,9.5942,9.6288,9.6288,9.6288,9.6288,9.6288,9.6288,9.6288,9.6288,9.6288,9.6365,9.6519,9.7211,9.7673,9.8057,9.9529,10.0183,10.0491,10.1904,10.202,10.1597,10.1893,10.2387,10.2787,10.279,10.2917,10.3211,10.3909,10.3011,10.2292,10.2693,10.2215,10.1701,10.1514,10.1514,10.1594,10.181,10.1578,10.1611,10.1697,10.1006,10.0209,9.9512,9.8594,9.775,9.7089,9.6832,9.6685,9.6685,9.6685,9.6685,9.6705,9.7391,9.7654,9.7584,9.8257,9.8498,9.8381,9.8586,9.8611,9.8551,9.9558,9.9987,10.0111,10.0913,10.121,10.1394,10.2097,10.252,10.2789,10.4097,10.529,10.629,10.6905,10.779,10.851,10.8513,10.7201,10.529,10.3204,10.1118,9.9378,9.9006,9.8895,9.8672,9.7743,9.6926,9.6183,9.5365,9.5217,9.5103,9.4743,9.5051,9.4846,9.3248,9.0815,8.8564,8.6957,8.654,8.6615,8.7228,9.0484,9.3342,9.505,9.4791,9.529,9.7174,9.5032,9.3906,9.4479,9.4806,9.4451,9.3355,9.5028,9.5992,9.6095,9.6249,9.6288,9.6288,9.6288,9.6288,9.6288,9.6288,9.6288,9.6288,9.6288,9.6673,9.7326,9.7442,9.8365,9.9721,9.999,10.0481,10.1087,10.1394,10.1904,10.2289,10.2421,10.2707,10.3101,10.39,10.3602,10.3513,10.3806,10.2889,10.2081,10.2081,10.1677,10.1514,10.1514,10.1514,10.1594,10.181,10.1578,10.1594,10.1793,10.1284,10.0613,9.9769,9.8998,9.797,9.6722,9.6685,9.6685,9.6685,9.6685,9.6877,9.7247,9.7925,9.8257,9.8289,9.896,9.9049,9.8748,9.9144,9.8856,9.8266,9.9643,9.9895,9.961,10.0503,10.1011,10.1394,10.2289,10.2904,10.3405,10.4212,10.529,10.6405,10.629,10.6905,10.7598,10.7598,10.669,10.5292,10.3185,10.1799,10.0901,10.0492,10.0418,10.0084,9.882,9.8226,9.7595,9.6294,9.6315,9.6371,9.5818,9.5766,9.5414,9.4014,9.1195,8.9027,8.8647,8.8481,8.9074,9.0858,9.3849,9.6249,9.7519,9.7288,9.7519,9.8711,9.7085,9.6169,9.6554,9.6169,9.5747,9.5355,9.5963,9.6288,9.6288,9.6288,9.6288,9.6288,9.6288,9.6288,9.6288,9.6288,9.6288,9.6288,9.6288,9.6749,9.7557,9.8019,9.8942,10.0106,10.0596,10.1019,10.1279,10.1279,10.1597,10.1789,10.2506,10.2807,10.3293,10.4394,10.421,10.3806,10.3586,10.2889,10.2191,10.1587,10.1514,10.1514,10.1514,10.1514,10.1594,10.181,10.1578,10.1594,10.1793,10.1614,10.111,10.0099,9.9071,9.797,9.6722,9.6685,9.6781,9.6933,9.6933,9.7265,9.7942,9.8482,9.8717,9.871,9.9424,9.9452,9.9012,9.9754,9.9326,9.8286,9.9857,9.9966,9.9301,10.0512,10.1196,10.1702,10.2789,10.3597,10.4212,10.4405,10.529,10.628,10.5905,10.6213,10.6703,10.6703,10.6104,10.5105,10.3206,10.2721,10.261,10.1904,10.1793,10.1421,9.9972,9.9526,9.9081,9.7966,9.7904,9.7914,9.7425,9.6818,9.6004,9.4872,9.198,9.0033,9.0465,9.0663,9.1595,9.3749,9.6249,9.8134,9.9029,9.9096,9.9173,9.9365,9.8846,9.8305,9.7808,9.7406,9.6992,9.6586,9.6403,9.6288,9.6288,9.6288,9.6288,9.6288,9.648,9.6596,9.6596,9.6788,9.6865,9.6865,9.6673,9.7057,9.7865,9.8519,9.9298,10.0183,10.1019,10.1279,10.1279,10.1279,10.1394,10.152,10.1608,10.2799,10.3586,10.2999,10.3403,10.3586,10.2889,10.2081,10.1587,10.1514,10.1514,10.1514,10.1514,10.1514,10.1594,10.181,10.1578,10.1594,10.1793,10.1614,10.0796,9.9255,9.7713,9.6832,9.6685,9.6685,9.7027,9.7636,9.7636,9.7976,9.8639,9.8701,9.8717,9.871,9.9484,9.978,9.978,10.0612,10.0491,9.9825,10.0798,10.0688,10.0202,10.1816,10.249,10.2712,10.4289,10.4992,10.5097,10.5905,10.628,10.651,10.729,10.7598,10.7598,10.7598,10.6181,10.4409,10.3095,10.2721,10.2721,10.2592,10.2592,10.2424,10.1477,10.0697,10.0418,10.1012,10.0391,9.99,10.0407,9.8973,9.7407,9.6328,9.3934,9.2251,9.2287,9.2941,9.3796,9.4797,9.7143,9.9058,9.9913,9.999,10.0289,10.1096,10.0423,9.9567,9.875,9.8683,9.826,9.7442,9.6673,9.6288,9.6288,9.6288,9.6288,9.6326,9.7057,9.7403,9.7442,9.825,9.8634,9.8557,9.775,9.7904,9.8711,9.875,9.9298,10.0183,10.1019,10.1279,10.1279,10.1279,10.1779,10.2289,10.2118,10.2705,10.3219,10.3403,10.3293,10.3109,10.2685,10.2008,10.1514,10.1514,10.1514,10.1514,10.1514,10.1514,10.1497,10.1614,10.1517,10.1497,10.1614,10.1497,10.0796,9.9181,9.7566,9.6877,9.7319,9.7319,9.7654,9.8338,9.8338,9.8648,9.9311,9.9311,9.9508,9.9896,10.0288,10.0116,9.9681,10.0689,10.01,9.8479,9.9941,9.999,9.9413,10.0606,10.1712,10.2712,10.3289,10.4212,10.5107,10.4905,10.5213,10.5713,10.6597,10.6895,10.6997,10.771,10.7112,10.6087,10.5697,10.4215,10.2721,10.2721,10.2721,10.2498,10.1718,10.131,10.1117,10.1284,10.1314,10.1296,10.1293,10.0593,9.9514,9.8067,9.5711,9.4412,9.5441,9.5441,9.6211,9.8634,10.0212,10.1289,10.1597,10.1712,10.1597,10.1279,10.1019,10.0481,9.9644,9.9096,9.8404,9.7519,9.7711,9.7596,9.7057,9.7596,9.7865,9.7865,9.8173,9.8288,9.8327,9.8634,9.8788,9.8788,9.8442,9.8788,9.9567,9.9029,9.9596,10.0789,10.0019,10.0404,10.1202,10.0712,10.1096,10.1597,10.2191,10.2522,10.2815,10.3109,10.2889,10.2595,10.2412,10.1918,10.1514,10.1514,10.1514,10.1514,10.1514,10.1514,10.1578,10.1798,10.178,10.1897,10.2109,10.1906,10.122,9.9846,9.8243,9.7689,9.8382,9.8138,9.8317,9.902,9.9261,9.958,9.9999,10.0303,10.0519,10.07,10.0787,10.0596,10.0103,10.0917,9.9912,9.799,9.976,9.9788,9.8942,10.0414,10.1789,10.302,10.3289,10.4289,10.5405,10.4905,10.5097,10.5713,10.651,10.7021,10.729,10.7902,10.7604,10.701,10.6798,10.5109,10.3501,10.3501,10.3316,10.2907,10.209,10.1904,10.2007,10.2305,10.2395,10.2576,10.2788,10.2019,10.0894,9.9788,9.7673,9.6605,9.775,9.7673,9.8442,10.101,10.2097,10.2712,10.2981,10.2981,10.2789,10.2212,10.1904,10.1289,10.0481,9.9673,9.8942,9.8327,9.9135,9.9173,9.8327,9.8634,9.8673,9.8404,9.8942,9.9058,9.8827,9.9365,9.9596,9.9558,9.9327,9.9375,9.9644,9.9058,9.9327,10.001,9.9442,10.0096,10.1289,10.0981,10.1404,10.202,10.1514,10.2081,10.2412,10.1604,10.2191,10.2412,10.1604,10.1514,10.1514,10.1514,10.1514,10.1514,10.1514,10.1514,10.1778,10.2518,10.2591,10.2913,10.3587,10.2901,10.2103,10.14,9.9749,9.9202,9.9881,9.9108,9.9049,9.971,10.0506,10.0785,10.0604,10.1521,10.1503,10.0798,10.0919,10.1113,10.1188,10.1278,10.0289,9.8942,10.0596,10.0289,9.9058,10.1597,10.3097,10.3982,10.4789,10.5713,10.6395,10.6395,10.6395,10.651,10.7405,10.8203,10.88,10.8392,10.7694,10.6791,10.5612,10.521,10.521,10.521,10.4616,10.3799,10.2907,10.2721,10.3086,10.4576,10.4094,10.3715,10.5091,10.3197,10.1279,10.1279,9.9904,9.8827,9.8827,9.9567,10.0404,10.1202,10.2097,10.2981,10.3789,10.3905,10.3905,10.3905,10.3097,10.2212,10.1394,10.0606,10.0106,10.0106,10.0904,10.0904,10.0106,9.9259,9.8365,9.7557,9.9259,9.9644,9.8865,10.051,10.1279,10.1289,10.0491,9.9606,9.8827,9.8788,9.8288,9.7711,9.9413,10.0596,10.1394,10.2289,10.3097,10.3597,9.9916,10.0503,10.0907,10.0686,10.131,10.1808,10.1494,10.1514,10.1514,10.1514,10.1514,10.1514,10.1514,10.2009,10.2408,10.261,10.2995,10.3422,10.3582,10.341,10.3389,10.3579,10.0997,9.9634,9.976,9.9509,9.971,10.0301,10.0606,10.0679,10.0604,10.0909,10.0891,10.0798,10.0919,10.068,10.0294,10.0404,9.9442,9.798,9.9096,9.925,9.9019,10.1019,10.2597,10.3905,10.4212,10.5213,10.6203,10.502,10.4982,10.5597,10.6521,10.79,10.9095,10.9008,10.8883,10.8599,10.7791,10.7196,10.64,10.4801,10.4207,10.3799,10.2907,10.2721,10.3079,10.4395,10.439,10.4421,10.5092,10.4505,10.3597,10.2404,10.1289,10.0789,10.1404,10.1212,10.1712,10.3712,10.4212,10.4482,10.4713,10.4713,10.4482,10.3905,10.3712,10.3097,10.2289,10.2597,10.1722,9.9259,10.1212,10.1212,9.9221,9.9529,9.9567,9.9336,9.9837,9.9952,9.976,10.0789,10.1279,10.1279,10.101,10.0789,10.0519,9.9288,9.9327,9.9971,9.8134,9.9019,10.1289,10.0981,10.1799,10.2904,9.9218,9.9969,10.0697,10.0697,10.161,10.2185,10.1992,10.1897,10.1817,10.1517,10.1514,10.1597,10.1895,10.2297,10.2787,10.3298,10.4009,10.4304,10.4009,10.4312,10.4277,10.4103,10.2602,10.1502,10.109,10.0709,10.0709,10.1089,10.1483,10.1506,10.1209,10.1514,10.1376,10.1017,10.1004,10.0791,10.0508,10.049,9.9788,9.8596,9.9442,9.9788,9.9942,10.1289,10.2904,10.4405,10.4405,10.5213,10.6203,10.5213,10.5099,10.5416,10.6399,10.7495,10.8518,10.9089,10.941,10.9409,10.9097,10.8608,10.7796,10.6089,10.4809,10.3799,10.2907,10.2721,10.3112,10.4311,10.4913,10.5311,10.6007,10.579,10.529,10.4289,10.3097,10.252,10.302,10.2712,10.302,10.4915,10.5107,10.5213,10.5597,10.5597,10.529,10.4405,10.4405,10.3982,10.3212,10.3597,10.2789,10.0404,10.1789,10.1712,9.9827,9.999,10.0106,10.0106,10.0404,10.0404,10.0106,10.0904,10.1279,10.1279,10.1278,10.1114,10.0692,9.9653,9.9615,9.999,9.8077,9.8942,10.1202,10.0789,10.1712,10.3097,9.8986,10.0204,10.1305,10.1305,10.2623,10.3385,10.2789,10.2681,10.2389,10.1795,10.1697,10.1916,10.2609,10.2698,10.3289,10.4509,10.5408,10.5587,10.4912,10.5485,10.5193,10.3684,10.4202,10.4119,10.3278,10.2514,10.2006,10.2006,10.2717,10.2788,10.2088,10.2788,10.2386,10.1216,10.1216,10.119,10.1279,10.1202,10.0789,10.0183,10.0904,10.1212,10.1289,10.2289,10.3712,10.4982,10.5223,10.5692,10.6294,10.6291,10.589,10.5613,10.6714,10.6992,10.7288,10.8879,10.9409,10.9409,10.9409,10.9492,10.931,10.8491,10.6305,10.4093,10.3202,10.2886,10.3199,10.4401,10.5311,10.6191,10.7516,10.7098,10.651,10.651,10.5213,10.4212,10.4212,10.4212,10.4482,10.529,10.5415,10.5597,10.6395,10.6395,10.6097,10.529,10.5213,10.4905,10.4097,10.4097,10.3712,10.2597,10.2712,10.2289,10.1279,10.0712,10.0221,10.0106,10.0789,10.0789,10.0106,10.0904,10.1317,10.1308,10.1218,10.0707,10.0005,9.9928,9.9467,9.8835,9.8702,9.974,10.1279,10.1087,10.2212,10.3482,9.8128,9.9704,10.112,10.112,10.2488,10.3587,10.3402,10.3406,10.3318,10.3204,10.3095,10.3201,10.3389,10.3891,10.4319,10.4581,10.6512,10.7317,10.6477,10.719,10.6897,10.5282,10.5318,10.4998,10.4195,10.3317,10.2896,10.2896,10.2494,10.2283,10.2088,10.1691,10.1388,10.1216,10.1216,10.119,10.1289,10.0596,10.0298,10.0106,10.0298,10.0414,10.0606,10.2789,10.3789,10.4289,10.5597,10.5904,10.5603,10.5103,10.4902,10.4892,10.5813,10.6224,10.6515,10.7493,10.83,10.8789,10.8789,10.9101,10.931,10.8491,10.7805,10.6997,10.571,10.4397,10.3915,10.5307,10.5578,10.5978,10.7377,10.7521,10.7405,10.7405,10.7098,10.6905,10.6905,10.6905,10.7213,10.7982,10.7482,10.7213,10.7405,10.679,10.628,10.6087,10.6097,10.5713,10.4905,10.5482,10.4905,10.2712,10.3289,10.2904,10.1279,10.1789,10.1404,10.0106,10.0298,10.0298,10.0106,10.0904,10.1278,10.1208,10.1188,10.1011,10.0697,9.9996,10.0097,10.0409,9.846,9.9173,10.1087,9.9827,10.0404,10.1587,9.8752,10.0288,10.1709,10.2101,10.3508,10.439,10.3588,10.3806,10.3805,10.3179,10.341,10.3794,10.4191,10.46,10.5094,10.5777,10.738,10.8115,10.758,10.8015,10.7596,10.6297,10.6297,10.5901,10.5094,10.4712,10.4291,10.3909,10.3087,10.268,10.2791,10.2012,10.1301,10.072,10.1095,10.1086,10.0712,10.0712,10.0712,10.0712,10.0712,10.0904,10.1385,10.2899,10.3695,10.4199,10.5194,10.5307,10.4982,10.4416,10.438,10.4909,10.5701,10.6295,10.6894,10.8011,10.871,10.9091,10.9417,11.0008,11.0585,11.0409,10.9909,10.8907,10.6987,10.561,10.4999,10.6018,10.6096,10.639,10.7514,10.7982,10.829,10.829,10.829,10.829,10.829,10.829,10.8406,10.879,10.8482,10.8098,10.7713,10.6895,10.6395,10.6395,10.6395,10.6213,10.5713,10.6213,10.5597,10.3789,10.4212,10.3712,10.1894,10.2404,10.2212,10.1289,10.1289,10.1096,10.0712,10.0712,10.0894,10.1216,10.0694,10.061,10.0886,10.0377,10.0606,10.0914,9.8805,9.9115,10.0481,9.8827,9.9019,9.9904,9.9765,10.1301,10.2804,10.3501,10.4799,10.5307,10.4,10.4388,10.4401,10.3208,10.3693,10.441,10.4899,10.5002,10.5688,10.7419,10.8204,10.8593,10.8593,10.8496,10.8002,10.702,10.6791,10.6495,10.5913,10.5913,10.5606,10.4791,10.3906,10.3399,10.3519,10.2606,10.1516,10.0191,10.099,10.0904,10.0289,10.0902,10.1218,10.1208,10.1098,10.1413,10.21,10.2411,10.3094,10.3922,10.4209,10.4387,10.4401,10.37,10.3988,10.4912,10.5809,10.6605,10.7403,10.8894,10.9197,10.931,11.0203,11.1085,11.1787,11.2686,11.1999,11.0602,10.8488,10.7002,10.6094,10.6795,10.6803,10.6917,10.7612,10.8213,10.8713,10.8906,10.8906,10.8906,10.8906,10.8983,10.9098,10.9098,10.8983,10.8598,10.779,10.6895,10.6395,10.6395,10.6395,10.6395,10.6395,10.6395,10.6097,10.529,10.5223,10.4405,10.302,10.302,10.2981,10.2789,10.2789,10.2404,10.151,10.0481,10.0509,10.1091,10.0094,10.0092,10.0787,10.0802,10.088,10.0781,9.9176,9.9182,9.9875,9.8134,9.7865,9.825,9.9838,10.2092,10.4085,10.42,10.5102,10.5698,10.5593,10.5682,10.5706,10.5486,10.5613,10.5483,10.4913,10.481,10.5802,10.8209,10.9183,10.9593,10.9604,10.9581,10.8879,10.7281,10.6515,10.6104,10.6001,10.6001,10.5886,10.5809,10.4423,10.3399,10.2913,10.1891,10.1116,10.0501,10.1004,10.1202,10.1106,10.0809,10.0593,10.0597,9.9999,9.9884,10.0099,10.0906,10.1701,10.2508,10.3197,10.3594,10.3706,10.3095,10.3305,10.4086,10.5621,10.612,10.6298,10.8015,10.8088,10.7989,10.9981,11.0675,11.1415,11.3297,11.3709,11.318,11.2202,10.9218,10.6795,10.7698,10.7101,10.6717,10.751,10.779,10.8098,10.879,10.8906,10.8906,10.8906,10.9483,10.9983,10.9983,10.9406,10.8598,10.779,10.6895,10.6395,10.6395,10.6395,10.6395,10.6395,10.6395,10.628,10.6203,10.5482,10.4992,10.4789,10.4789,10.4405,10.3712,10.3712,10.3289,10.2404,10.0798,10.0509,10.1091,10.0094,10.0092,10.0814,10.0711,10.0802,10.0808,9.9093,9.9112,9.9875,9.8134,9.7134,9.6634,10.0913,10.2395,10.4004,10.4998,10.5517,10.5704,10.5177,10.5591,10.5683,10.4807,10.5087,10.5092,10.4394,10.4786,10.5494,10.6092,10.7792,10.8883,10.8883,10.88,10.8402,10.7718,10.6684,10.6495,10.6983,10.6499,10.6309,10.6217,10.4212,10.302,10.2688,10.1108,9.9895,9.915,9.9957,10.0319,10.0283,10.0608,10.0697,10.0595,10.0384,9.9986,9.9655,10.0189,10.091,10.1717,10.2584,10.3006,10.3199,10.321,10.3801,10.4608,10.5986,10.6688,10.7297,10.8515,10.8892,10.9377,11.079,11.2009,11.3104,11.4391,11.4714,11.4484,11.3599,11.0984,10.8611,10.8523,10.7795,10.7098,10.7021,10.7021,10.7213,10.8098,10.8213,10.8406,10.879,10.9213,10.9483,10.9483,10.8713,10.8098,10.7713,10.6895,10.6413,10.6312,10.6312,10.6312,10.6312,10.6312,10.6294,10.6395,10.602,10.5597,10.5107,10.5107,10.4905,10.4607,10.4097,10.3405,10.252,10.0914,10.0202,10.0399,10.0003,9.9958,10.0185,10.0092,10.0218,10.0212,9.8513,9.7884,9.7865,9.7096,9.6596,9.6288]}]]